<?xml version="1.0" encoding="UTF-8" standalone="no" ?>
<gpx xmlns="http://www.topografix.com/GPX/1/1" xmlns:xsi="http://www.w3.org/2001/XMLSchema-instance" xsi:schemaLocation="http://www.topografix.com/GPX/1/1 http://www.topografix.com/GPX/1/1/gpx.xsd" version="1.1" creator="VisuGPX - https://www.visugpx.com">
  <metadata>
    <name>Rallye équestre de Gabriac</name>
    <desc><![CDATA[Boucle équestre sans grande difficulté traversant le village de Gabriac et le hameau de Ceyrac.
]]></desc>
  </metadata>
  <trk>
    <name><![CDATA[rallye gabriac]]></name>
    <trkseg>
      <trkpt lat="44.45354" lon="2.79412">
        <ele>552.553283</ele>
        <time>2014-04-13T07:53:05Z</time>
      </trkpt>
      <trkpt lat="44.45346" lon="2.79408">
        <ele>552.344116</ele>
        <time>2014-04-13T07:53:11Z</time>
      </trkpt>
      <trkpt lat="44.45345" lon="2.79407">
        <ele>552.298278</ele>
        <time>2014-04-13T07:53:12Z</time>
      </trkpt>
      <trkpt lat="44.45333" lon="2.79413">
        <ele>552</ele>
        <time>2014-04-13T07:53:35Z</time>
      </trkpt>
      <trkpt lat="44.45333" lon="2.79424">
        <ele>550.9</ele>
        <time>2014-04-13T07:53:43Z</time>
      </trkpt>
      <trkpt lat="44.45333" lon="2.79436">
        <ele>550</ele>
        <time>2014-04-13T07:53:50Z</time>
      </trkpt>
      <trkpt lat="44.45332" lon="2.79448">
        <ele>549.3</ele>
        <time>2014-04-13T07:53:56Z</time>
      </trkpt>
      <trkpt lat="44.45332" lon="2.79459">
        <ele>548.5</ele>
        <time>2014-04-13T07:54:02Z</time>
      </trkpt>
      <trkpt lat="44.45332" lon="2.7947">
        <ele>548.1</ele>
        <time>2014-04-13T07:54:06Z</time>
      </trkpt>
      <trkpt lat="44.45332" lon="2.79481">
        <ele>547.8</ele>
        <time>2014-04-13T07:54:10Z</time>
      </trkpt>
      <trkpt lat="44.45332" lon="2.79492">
        <ele>548.2</ele>
        <time>2014-04-13T07:54:15Z</time>
      </trkpt>
      <trkpt lat="44.45332" lon="2.79495">
        <ele>548.2</ele>
        <time>2014-04-13T07:54:16Z</time>
      </trkpt>
      <trkpt lat="44.45332" lon="2.79514">
        <ele>546.9</ele>
        <time>2014-04-13T07:54:24Z</time>
      </trkpt>
      <trkpt lat="44.45332" lon="2.79524">
        <ele>546.7</ele>
        <time>2014-04-13T07:54:28Z</time>
      </trkpt>
      <trkpt lat="44.45332" lon="2.79535">
        <ele>546.6</ele>
        <time>2014-04-13T07:54:32Z</time>
      </trkpt>
      <trkpt lat="44.45332" lon="2.79546">
        <ele>545.5</ele>
        <time>2014-04-13T07:54:36Z</time>
      </trkpt>
      <trkpt lat="44.45333" lon="2.79556">
        <ele>545.5</ele>
        <time>2014-04-13T07:54:40Z</time>
      </trkpt>
      <trkpt lat="44.45333" lon="2.79566">
        <ele>545</ele>
        <time>2014-04-13T07:54:44Z</time>
      </trkpt>
      <trkpt lat="44.45333" lon="2.79577">
        <ele>543.7</ele>
        <time>2014-04-13T07:54:48Z</time>
      </trkpt>
      <trkpt lat="44.45333" lon="2.79589">
        <ele>543.5</ele>
        <time>2014-04-13T07:54:53Z</time>
      </trkpt>
      <trkpt lat="44.45334" lon="2.796">
        <ele>543</ele>
        <time>2014-04-13T07:54:58Z</time>
      </trkpt>
      <trkpt lat="44.45336" lon="2.79611">
        <ele>542.6</ele>
        <time>2014-04-13T07:55:04Z</time>
      </trkpt>
      <trkpt lat="44.45337" lon="2.79621">
        <ele>542.3</ele>
        <time>2014-04-13T07:55:09Z</time>
      </trkpt>
      <trkpt lat="44.45339" lon="2.79632">
        <ele>541.4</ele>
        <time>2014-04-13T07:55:14Z</time>
      </trkpt>
      <trkpt lat="44.45342" lon="2.79643">
        <ele>541.6</ele>
        <time>2014-04-13T07:55:20Z</time>
      </trkpt>
      <trkpt lat="44.45343" lon="2.79645">
        <ele>541.6</ele>
        <time>2014-04-13T07:55:21Z</time>
      </trkpt>
      <trkpt lat="44.45349" lon="2.79665">
        <ele>540.1</ele>
        <time>2014-04-13T07:55:31Z</time>
      </trkpt>
      <trkpt lat="44.45354" lon="2.79675">
        <ele>539.5</ele>
        <time>2014-04-13T07:55:37Z</time>
      </trkpt>
      <trkpt lat="44.45359" lon="2.79684">
        <ele>539.4</ele>
        <time>2014-04-13T07:55:43Z</time>
      </trkpt>
      <trkpt lat="44.45364" lon="2.79694">
        <ele>538.4</ele>
        <time>2014-04-13T07:55:49Z</time>
      </trkpt>
      <trkpt lat="44.45368" lon="2.79704">
        <ele>538.8</ele>
        <time>2014-04-13T07:55:54Z</time>
      </trkpt>
      <trkpt lat="44.4537" lon="2.79714">
        <ele>539.3</ele>
        <time>2014-04-13T07:55:58Z</time>
      </trkpt>
      <trkpt lat="44.45374" lon="2.79725">
        <ele>539.3</ele>
        <time>2014-04-13T07:56:03Z</time>
      </trkpt>
      <trkpt lat="44.45379" lon="2.79735">
        <ele>539.2</ele>
        <time>2014-04-13T07:56:08Z</time>
      </trkpt>
      <trkpt lat="44.45384" lon="2.79745">
        <ele>539.7</ele>
        <time>2014-04-13T07:56:13Z</time>
      </trkpt>
      <trkpt lat="44.4539" lon="2.79754">
        <ele>540.1</ele>
        <time>2014-04-13T07:56:18Z</time>
      </trkpt>
      <trkpt lat="44.45395" lon="2.79763">
        <ele>540.8</ele>
        <time>2014-04-13T07:56:23Z</time>
      </trkpt>
      <trkpt lat="44.45396" lon="2.79765">
        <ele>540.9</ele>
        <time>2014-04-13T07:56:24Z</time>
      </trkpt>
      <trkpt lat="44.45406" lon="2.79779">
        <ele>541.5</ele>
        <time>2014-04-13T07:56:35Z</time>
      </trkpt>
      <trkpt lat="44.45414" lon="2.79786">
        <ele>541.4</ele>
        <time>2014-04-13T07:56:41Z</time>
      </trkpt>
      <trkpt lat="44.45421" lon="2.79794">
        <ele>540.6</ele>
        <time>2014-04-13T07:56:47Z</time>
      </trkpt>
      <trkpt lat="44.45428" lon="2.79799">
        <ele>541</ele>
        <time>2014-04-13T07:56:52Z</time>
      </trkpt>
      <trkpt lat="44.45435" lon="2.79805">
        <ele>540.3</ele>
        <time>2014-04-13T07:56:57Z</time>
      </trkpt>
      <trkpt lat="44.45442" lon="2.7981">
        <ele>539.6</ele>
        <time>2014-04-13T07:57:02Z</time>
      </trkpt>
      <trkpt lat="44.4545" lon="2.79814">
        <ele>539.6</ele>
        <time>2014-04-13T07:57:07Z</time>
      </trkpt>
      <trkpt lat="44.45457" lon="2.79818">
        <ele>539.3</ele>
        <time>2014-04-13T07:57:12Z</time>
      </trkpt>
      <trkpt lat="44.45465" lon="2.79822">
        <ele>538.1</ele>
        <time>2014-04-13T07:57:17Z</time>
      </trkpt>
      <trkpt lat="44.45473" lon="2.79826">
        <ele>538.1</ele>
        <time>2014-04-13T07:57:22Z</time>
      </trkpt>
      <trkpt lat="44.4548" lon="2.79831">
        <ele>537.7</ele>
        <time>2014-04-13T07:57:27Z</time>
      </trkpt>
      <trkpt lat="44.45481" lon="2.79832">
        <ele>537.7</ele>
        <time>2014-04-13T07:57:28Z</time>
      </trkpt>
      <trkpt lat="44.45491" lon="2.79849">
        <ele>536.5</ele>
        <time>2014-04-13T07:57:37Z</time>
      </trkpt>
      <trkpt lat="44.45495" lon="2.79858">
        <ele>535.2</ele>
        <time>2014-04-13T07:57:42Z</time>
      </trkpt>
      <trkpt lat="44.45499" lon="2.79868">
        <ele>534.2</ele>
        <time>2014-04-13T07:57:47Z</time>
      </trkpt>
      <trkpt lat="44.45503" lon="2.79879">
        <ele>533.8</ele>
        <time>2014-04-13T07:57:52Z</time>
      </trkpt>
      <trkpt lat="44.45507" lon="2.7989">
        <ele>532.7</ele>
        <time>2014-04-13T07:57:58Z</time>
      </trkpt>
      <trkpt lat="44.45511" lon="2.79899">
        <ele>531.8</ele>
        <time>2014-04-13T07:58:03Z</time>
      </trkpt>
      <trkpt lat="44.45516" lon="2.79909">
        <ele>530.4</ele>
        <time>2014-04-13T07:58:08Z</time>
      </trkpt>
      <trkpt lat="44.45521" lon="2.79919">
        <ele>531.1</ele>
        <time>2014-04-13T07:58:13Z</time>
      </trkpt>
      <trkpt lat="44.45525" lon="2.79928">
        <ele>530.7</ele>
        <time>2014-04-13T07:58:18Z</time>
      </trkpt>
      <trkpt lat="44.45529" lon="2.79937">
        <ele>529.9</ele>
        <time>2014-04-13T07:58:23Z</time>
      </trkpt>
      <trkpt lat="44.45533" lon="2.79947">
        <ele>529.6</ele>
        <time>2014-04-13T07:58:28Z</time>
      </trkpt>
      <trkpt lat="44.45534" lon="2.79948">
        <ele>529.6</ele>
        <time>2014-04-13T07:58:29Z</time>
      </trkpt>
      <trkpt lat="44.45541" lon="2.79966">
        <ele>528.2</ele>
        <time>2014-04-13T07:58:39Z</time>
      </trkpt>
      <trkpt lat="44.45545" lon="2.79977">
        <ele>527.8</ele>
        <time>2014-04-13T07:58:45Z</time>
      </trkpt>
      <trkpt lat="44.4555" lon="2.79987">
        <ele>529.2</ele>
        <time>2014-04-13T07:58:51Z</time>
      </trkpt>
      <trkpt lat="44.45554" lon="2.79997">
        <ele>528.2</ele>
        <time>2014-04-13T07:58:57Z</time>
      </trkpt>
      <trkpt lat="44.45559" lon="2.80008">
        <ele>528.6</ele>
        <time>2014-04-13T07:59:03Z</time>
      </trkpt>
      <trkpt lat="44.45563" lon="2.80019">
        <ele>528.6</ele>
        <time>2014-04-13T07:59:08Z</time>
      </trkpt>
      <trkpt lat="44.45568" lon="2.80028">
        <ele>529.2</ele>
        <time>2014-04-13T07:59:13Z</time>
      </trkpt>
      <trkpt lat="44.45572" lon="2.80037">
        <ele>529.5</ele>
        <time>2014-04-13T07:59:18Z</time>
      </trkpt>
      <trkpt lat="44.45577" lon="2.80047">
        <ele>530.1</ele>
        <time>2014-04-13T07:59:23Z</time>
      </trkpt>
      <trkpt lat="44.45581" lon="2.80057">
        <ele>530.9</ele>
        <time>2014-04-13T07:59:28Z</time>
      </trkpt>
      <trkpt lat="44.45587" lon="2.80065">
        <ele>531.9</ele>
        <time>2014-04-13T07:59:33Z</time>
      </trkpt>
      <trkpt lat="44.45588" lon="2.80067">
        <ele>532.2</ele>
        <time>2014-04-13T07:59:34Z</time>
      </trkpt>
      <trkpt lat="44.45599" lon="2.80079">
        <ele>533.7</ele>
        <time>2014-04-13T07:59:43Z</time>
      </trkpt>
      <trkpt lat="44.45606" lon="2.80085">
        <ele>534.5</ele>
        <time>2014-04-13T07:59:48Z</time>
      </trkpt>
      <trkpt lat="44.45614" lon="2.8009">
        <ele>535.7</ele>
        <time>2014-04-13T07:59:54Z</time>
      </trkpt>
      <trkpt lat="44.45621" lon="2.80094">
        <ele>535.9</ele>
        <time>2014-04-13T07:59:59Z</time>
      </trkpt>
      <trkpt lat="44.4563" lon="2.80099">
        <ele>536.8</ele>
        <time>2014-04-13T08:00:05Z</time>
      </trkpt>
      <trkpt lat="44.45638" lon="2.80103">
        <ele>537.9</ele>
        <time>2014-04-13T08:00:21Z</time>
      </trkpt>
      <trkpt lat="44.45645" lon="2.80104">
        <ele>539.4</ele>
        <time>2014-04-13T08:00:26Z</time>
      </trkpt>
      <trkpt lat="44.45653" lon="2.80106">
        <ele>539.7</ele>
        <time>2014-04-13T08:00:31Z</time>
      </trkpt>
      <trkpt lat="44.45661" lon="2.80108">
        <ele>540.1</ele>
        <time>2014-04-13T08:00:36Z</time>
      </trkpt>
      <trkpt lat="44.45662" lon="2.80109">
        <ele>540.2</ele>
        <time>2014-04-13T08:00:37Z</time>
      </trkpt>
      <trkpt lat="44.45678" lon="2.80112">
        <ele>541.4</ele>
        <time>2014-04-13T08:00:48Z</time>
      </trkpt>
      <trkpt lat="44.45685" lon="2.80115">
        <ele>541.7</ele>
        <time>2014-04-13T08:00:53Z</time>
      </trkpt>
      <trkpt lat="44.45694" lon="2.80117">
        <ele>541.8</ele>
        <time>2014-04-13T08:00:59Z</time>
      </trkpt>
      <trkpt lat="44.45702" lon="2.80118">
        <ele>543.2</ele>
        <time>2014-04-13T08:01:04Z</time>
      </trkpt>
      <trkpt lat="44.4571" lon="2.80117">
        <ele>544.7</ele>
        <time>2014-04-13T08:01:10Z</time>
      </trkpt>
      <trkpt lat="44.45719" lon="2.80117">
        <ele>545</ele>
        <time>2014-04-13T08:01:16Z</time>
      </trkpt>
      <trkpt lat="44.45726" lon="2.80113">
        <ele>545.9</ele>
        <time>2014-04-13T08:01:21Z</time>
      </trkpt>
      <trkpt lat="44.45733" lon="2.80107">
        <ele>546.8</ele>
        <time>2014-04-13T08:01:27Z</time>
      </trkpt>
      <trkpt lat="44.45741" lon="2.80102">
        <ele>547.2</ele>
        <time>2014-04-13T08:01:33Z</time>
      </trkpt>
      <trkpt lat="44.4575" lon="2.80097">
        <ele>548</ele>
        <time>2014-04-13T08:01:39Z</time>
      </trkpt>
      <trkpt lat="44.45751" lon="2.80097">
        <ele>548.3</ele>
        <time>2014-04-13T08:01:40Z</time>
      </trkpt>
      <trkpt lat="44.45766" lon="2.80092">
        <ele>549.1</ele>
        <time>2014-04-13T08:01:52Z</time>
      </trkpt>
      <trkpt lat="44.45774" lon="2.8009">
        <ele>550.5</ele>
        <time>2014-04-13T08:01:58Z</time>
      </trkpt>
      <trkpt lat="44.45782" lon="2.80088">
        <ele>551.4</ele>
        <time>2014-04-13T08:02:07Z</time>
      </trkpt>
      <trkpt lat="44.45788" lon="2.80079">
        <ele>550.7</ele>
        <time>2014-04-13T08:02:15Z</time>
      </trkpt>
      <trkpt lat="44.45795" lon="2.80072">
        <ele>550.7</ele>
        <time>2014-04-13T08:02:21Z</time>
      </trkpt>
      <trkpt lat="44.45802" lon="2.80067">
        <ele>550.1</ele>
        <time>2014-04-13T08:02:27Z</time>
      </trkpt>
      <trkpt lat="44.4581" lon="2.80062">
        <ele>551.2</ele>
        <time>2014-04-13T08:02:33Z</time>
      </trkpt>
      <trkpt lat="44.45816" lon="2.80055">
        <ele>551.7</ele>
        <time>2014-04-13T08:02:39Z</time>
      </trkpt>
      <trkpt lat="44.45823" lon="2.80048">
        <ele>552.2</ele>
        <time>2014-04-13T08:02:45Z</time>
      </trkpt>
      <trkpt lat="44.45824" lon="2.80046">
        <ele>552.4</ele>
        <time>2014-04-13T08:02:46Z</time>
      </trkpt>
      <trkpt lat="44.45833" lon="2.80031">
        <ele>553.1</ele>
        <time>2014-04-13T08:02:55Z</time>
      </trkpt>
      <trkpt lat="44.45838" lon="2.80022">
        <ele>552.9</ele>
        <time>2014-04-13T08:03:02Z</time>
      </trkpt>
      <trkpt lat="44.45843" lon="2.80012">
        <ele>552.8</ele>
        <time>2014-04-13T08:03:09Z</time>
      </trkpt>
      <trkpt lat="44.45848" lon="2.80003">
        <ele>553.2</ele>
        <time>2014-04-13T08:03:15Z</time>
      </trkpt>
      <trkpt lat="44.45852" lon="2.79993">
        <ele>552.9</ele>
        <time>2014-04-13T08:03:21Z</time>
      </trkpt>
      <trkpt lat="44.45856" lon="2.79983">
        <ele>551.8</ele>
        <time>2014-04-13T08:03:27Z</time>
      </trkpt>
      <trkpt lat="44.45861" lon="2.79973">
        <ele>552.3</ele>
        <time>2014-04-13T08:03:33Z</time>
      </trkpt>
      <trkpt lat="44.45865" lon="2.79962">
        <ele>552.5</ele>
        <time>2014-04-13T08:03:40Z</time>
      </trkpt>
      <trkpt lat="44.45868" lon="2.79951">
        <ele>551.7</ele>
        <time>2014-04-13T08:03:45Z</time>
      </trkpt>
      <trkpt lat="44.4587" lon="2.7994">
        <ele>551.4</ele>
        <time>2014-04-13T08:03:50Z</time>
      </trkpt>
      <trkpt lat="44.4587" lon="2.79938">
        <ele>551.8</ele>
        <time>2014-04-13T08:03:51Z</time>
      </trkpt>
      <trkpt lat="44.45875" lon="2.79919">
        <ele>550.2</ele>
        <time>2014-04-13T08:04:02Z</time>
      </trkpt>
      <trkpt lat="44.45876" lon="2.79906">
        <ele>550.4</ele>
        <time>2014-04-13T08:04:08Z</time>
      </trkpt>
      <trkpt lat="44.45878" lon="2.79894">
        <ele>550.5</ele>
        <time>2014-04-13T08:04:14Z</time>
      </trkpt>
      <trkpt lat="44.4588" lon="2.79883">
        <ele>550.1</ele>
        <time>2014-04-13T08:04:19Z</time>
      </trkpt>
      <trkpt lat="44.45882" lon="2.79873">
        <ele>549.5</ele>
        <time>2014-04-13T08:04:23Z</time>
      </trkpt>
      <trkpt lat="44.45884" lon="2.79862">
        <ele>549.6</ele>
        <time>2014-04-13T08:04:28Z</time>
      </trkpt>
      <trkpt lat="44.45886" lon="2.79851">
        <ele>548.2</ele>
        <time>2014-04-13T08:04:34Z</time>
      </trkpt>
      <trkpt lat="44.45888" lon="2.79839">
        <ele>547.7</ele>
        <time>2014-04-13T08:04:41Z</time>
      </trkpt>
      <trkpt lat="44.45891" lon="2.79828">
        <ele>546.9</ele>
        <time>2014-04-13T08:04:48Z</time>
      </trkpt>
      <trkpt lat="44.45895" lon="2.79818">
        <ele>545.6</ele>
        <time>2014-04-13T08:04:54Z</time>
      </trkpt>
      <trkpt lat="44.45896" lon="2.79816">
        <ele>545.1</ele>
        <time>2014-04-13T08:04:55Z</time>
      </trkpt>
      <trkpt lat="44.45902" lon="2.79797">
        <ele>543.7</ele>
        <time>2014-04-13T08:05:05Z</time>
      </trkpt>
      <trkpt lat="44.45905" lon="2.79788">
        <ele>543.1</ele>
        <time>2014-04-13T08:05:10Z</time>
      </trkpt>
      <trkpt lat="44.4591" lon="2.79777">
        <ele>542.5</ele>
        <time>2014-04-13T08:05:16Z</time>
      </trkpt>
      <trkpt lat="44.45915" lon="2.79768">
        <ele>541.6</ele>
        <time>2014-04-13T08:05:22Z</time>
      </trkpt>
      <trkpt lat="44.45921" lon="2.79759">
        <ele>541.4</ele>
        <time>2014-04-13T08:05:28Z</time>
      </trkpt>
      <trkpt lat="44.45925" lon="2.7975">
        <ele>541.7</ele>
        <time>2014-04-13T08:05:33Z</time>
      </trkpt>
      <trkpt lat="44.45926" lon="2.79738">
        <ele>541.1</ele>
        <time>2014-04-13T08:05:38Z</time>
      </trkpt>
      <trkpt lat="44.45927" lon="2.79727">
        <ele>539.8</ele>
        <time>2014-04-13T08:05:42Z</time>
      </trkpt>
      <trkpt lat="44.45927" lon="2.79715">
        <ele>539.9</ele>
        <time>2014-04-13T08:05:47Z</time>
      </trkpt>
      <trkpt lat="44.45927" lon="2.79704">
        <ele>540.1</ele>
        <time>2014-04-13T08:05:52Z</time>
      </trkpt>
      <trkpt lat="44.45926" lon="2.79693">
        <ele>539.7</ele>
        <time>2014-04-13T08:05:57Z</time>
      </trkpt>
      <trkpt lat="44.45925" lon="2.7969">
        <ele>539.9</ele>
        <time>2014-04-13T08:05:58Z</time>
      </trkpt>
      <trkpt lat="44.45925" lon="2.79668">
        <ele>540.9</ele>
        <time>2014-04-13T08:06:07Z</time>
      </trkpt>
      <trkpt lat="44.45929" lon="2.79658">
        <ele>542.4</ele>
        <time>2014-04-13T08:06:12Z</time>
      </trkpt>
      <trkpt lat="44.45934" lon="2.79649">
        <ele>542.3</ele>
        <time>2014-04-13T08:06:17Z</time>
      </trkpt>
      <trkpt lat="44.45939" lon="2.79641">
        <ele>542.3</ele>
        <time>2014-04-13T08:06:22Z</time>
      </trkpt>
      <trkpt lat="44.45945" lon="2.79633">
        <ele>543.2</ele>
        <time>2014-04-13T08:06:27Z</time>
      </trkpt>
      <trkpt lat="44.4595" lon="2.79625">
        <ele>543.6</ele>
        <time>2014-04-13T08:06:32Z</time>
      </trkpt>
      <trkpt lat="44.45956" lon="2.79616">
        <ele>543.9</ele>
        <time>2014-04-13T08:06:38Z</time>
      </trkpt>
      <trkpt lat="44.45961" lon="2.79608">
        <ele>545</ele>
        <time>2014-04-13T08:06:43Z</time>
      </trkpt>
      <trkpt lat="44.45968" lon="2.79601">
        <ele>545.7</ele>
        <time>2014-04-13T08:06:48Z</time>
      </trkpt>
      <trkpt lat="44.45974" lon="2.79594">
        <ele>546.5</ele>
        <time>2014-04-13T08:06:53Z</time>
      </trkpt>
      <trkpt lat="44.4598" lon="2.79588">
        <ele>547</ele>
        <time>2014-04-13T08:06:58Z</time>
      </trkpt>
      <trkpt lat="44.45981" lon="2.79586">
        <ele>547.2</ele>
        <time>2014-04-13T08:06:59Z</time>
      </trkpt>
      <trkpt lat="44.45994" lon="2.79575">
        <ele>547.8</ele>
        <time>2014-04-13T08:07:09Z</time>
      </trkpt>
      <trkpt lat="44.46001" lon="2.79569">
        <ele>549</ele>
        <time>2014-04-13T08:07:14Z</time>
      </trkpt>
      <trkpt lat="44.46008" lon="2.79563">
        <ele>548.9</ele>
        <time>2014-04-13T08:07:19Z</time>
      </trkpt>
      <trkpt lat="44.46014" lon="2.79557">
        <ele>549.3</ele>
        <time>2014-04-13T08:07:24Z</time>
      </trkpt>
      <trkpt lat="44.4602" lon="2.79551">
        <ele>549.2</ele>
        <time>2014-04-13T08:07:29Z</time>
      </trkpt>
      <trkpt lat="44.46026" lon="2.79544">
        <ele>549.6</ele>
        <time>2014-04-13T08:07:34Z</time>
      </trkpt>
      <trkpt lat="44.46032" lon="2.79535">
        <ele>549.6</ele>
        <time>2014-04-13T08:07:40Z</time>
      </trkpt>
      <trkpt lat="44.46038" lon="2.79527">
        <ele>550.6</ele>
        <time>2014-04-13T08:07:45Z</time>
      </trkpt>
      <trkpt lat="44.46043" lon="2.79519">
        <ele>549.8</ele>
        <time>2014-04-13T08:07:50Z</time>
      </trkpt>
      <trkpt lat="44.46048" lon="2.79509">
        <ele>549.7</ele>
        <time>2014-04-13T08:07:56Z</time>
      </trkpt>
      <trkpt lat="44.46054" lon="2.795">
        <ele>550.2</ele>
        <time>2014-04-13T08:08:02Z</time>
      </trkpt>
      <trkpt lat="44.46055" lon="2.79498">
        <ele>550.5</ele>
        <time>2014-04-13T08:08:03Z</time>
      </trkpt>
      <trkpt lat="44.46065" lon="2.79484">
        <ele>551.6</ele>
        <time>2014-04-13T08:08:12Z</time>
      </trkpt>
      <trkpt lat="44.46071" lon="2.79475">
        <ele>552.2</ele>
        <time>2014-04-13T08:08:18Z</time>
      </trkpt>
      <trkpt lat="44.46076" lon="2.79466">
        <ele>551.9</ele>
        <time>2014-04-13T08:08:24Z</time>
      </trkpt>
      <trkpt lat="44.46082" lon="2.79457">
        <ele>552.4</ele>
        <time>2014-04-13T08:08:30Z</time>
      </trkpt>
      <trkpt lat="44.46088" lon="2.7945">
        <ele>552.6</ele>
        <time>2014-04-13T08:08:36Z</time>
      </trkpt>
      <trkpt lat="44.46094" lon="2.79443">
        <ele>552.3</ele>
        <time>2014-04-13T08:08:41Z</time>
      </trkpt>
      <trkpt lat="44.46101" lon="2.79437">
        <ele>552.9</ele>
        <time>2014-04-13T08:08:46Z</time>
      </trkpt>
      <trkpt lat="44.46108" lon="2.79431">
        <ele>553.4</ele>
        <time>2014-04-13T08:08:51Z</time>
      </trkpt>
      <trkpt lat="44.46116" lon="2.79424">
        <ele>553.7</ele>
        <time>2014-04-13T08:08:57Z</time>
      </trkpt>
      <trkpt lat="44.46123" lon="2.79417">
        <ele>554.5</ele>
        <time>2014-04-13T08:09:03Z</time>
      </trkpt>
      <trkpt lat="44.46124" lon="2.79416">
        <ele>554.4</ele>
        <time>2014-04-13T08:09:04Z</time>
      </trkpt>
      <trkpt lat="44.46136" lon="2.79404">
        <ele>555</ele>
        <time>2014-04-13T08:09:14Z</time>
      </trkpt>
      <trkpt lat="44.46142" lon="2.79397">
        <ele>555.8</ele>
        <time>2014-04-13T08:09:19Z</time>
      </trkpt>
      <trkpt lat="44.46148" lon="2.7939">
        <ele>555.9</ele>
        <time>2014-04-13T08:09:24Z</time>
      </trkpt>
      <trkpt lat="44.46155" lon="2.79382">
        <ele>556.4</ele>
        <time>2014-04-13T08:09:29Z</time>
      </trkpt>
      <trkpt lat="44.46161" lon="2.79374">
        <ele>557.6</ele>
        <time>2014-04-13T08:09:34Z</time>
      </trkpt>
      <trkpt lat="44.46166" lon="2.79367">
        <ele>559</ele>
        <time>2014-04-13T08:09:39Z</time>
      </trkpt>
      <trkpt lat="44.46172" lon="2.7936">
        <ele>559.6</ele>
        <time>2014-04-13T08:09:44Z</time>
      </trkpt>
      <trkpt lat="44.46178" lon="2.79353">
        <ele>560.6</ele>
        <time>2014-04-13T08:09:49Z</time>
      </trkpt>
      <trkpt lat="44.46184" lon="2.79346">
        <ele>562.4</ele>
        <time>2014-04-13T08:09:54Z</time>
      </trkpt>
      <trkpt lat="44.46191" lon="2.7934">
        <ele>563.5</ele>
        <time>2014-04-13T08:09:59Z</time>
      </trkpt>
      <trkpt lat="44.46197" lon="2.79334">
        <ele>563.9</ele>
        <time>2014-04-13T08:10:04Z</time>
      </trkpt>
      <trkpt lat="44.46198" lon="2.79332">
        <ele>563.9</ele>
        <time>2014-04-13T08:10:05Z</time>
      </trkpt>
      <trkpt lat="44.46209" lon="2.79316">
        <ele>564.3</ele>
        <time>2014-04-13T08:10:16Z</time>
      </trkpt>
      <trkpt lat="44.46215" lon="2.79307">
        <ele>564.4</ele>
        <time>2014-04-13T08:10:22Z</time>
      </trkpt>
      <trkpt lat="44.4622" lon="2.79299">
        <ele>564.1</ele>
        <time>2014-04-13T08:10:28Z</time>
      </trkpt>
      <trkpt lat="44.46225" lon="2.79289">
        <ele>564.5</ele>
        <time>2014-04-13T08:10:34Z</time>
      </trkpt>
      <trkpt lat="44.4623" lon="2.7928">
        <ele>564.2</ele>
        <time>2014-04-13T08:10:39Z</time>
      </trkpt>
      <trkpt lat="44.46236" lon="2.79271">
        <ele>564.2</ele>
        <time>2014-04-13T08:10:44Z</time>
      </trkpt>
      <trkpt lat="44.46241" lon="2.79263">
        <ele>564.2</ele>
        <time>2014-04-13T08:10:49Z</time>
      </trkpt>
      <trkpt lat="44.46248" lon="2.79257">
        <ele>563.8</ele>
        <time>2014-04-13T08:10:54Z</time>
      </trkpt>
      <trkpt lat="44.46256" lon="2.79253">
        <ele>563.2</ele>
        <time>2014-04-13T08:10:59Z</time>
      </trkpt>
      <trkpt lat="44.46264" lon="2.79251">
        <ele>562.4</ele>
        <time>2014-04-13T08:11:03Z</time>
      </trkpt>
      <trkpt lat="44.46272" lon="2.79253">
        <ele>561.9</ele>
        <time>2014-04-13T08:11:08Z</time>
      </trkpt>
      <trkpt lat="44.46274" lon="2.79254">
        <ele>562</ele>
        <time>2014-04-13T08:11:09Z</time>
      </trkpt>
      <trkpt lat="44.46286" lon="2.79259">
        <ele>560.5</ele>
        <time>2014-04-13T08:11:17Z</time>
      </trkpt>
      <trkpt lat="44.46294" lon="2.79261">
        <ele>559.4</ele>
        <time>2014-04-13T08:11:22Z</time>
      </trkpt>
      <trkpt lat="44.46301" lon="2.79264">
        <ele>557.5</ele>
        <time>2014-04-13T08:11:27Z</time>
      </trkpt>
      <trkpt lat="44.4631" lon="2.79266">
        <ele>557</ele>
        <time>2014-04-13T08:11:33Z</time>
      </trkpt>
      <trkpt lat="44.46318" lon="2.79266">
        <ele>556.6</ele>
        <time>2014-04-13T08:11:40Z</time>
      </trkpt>
      <trkpt lat="44.46326" lon="2.79264">
        <ele>557.1</ele>
        <time>2014-04-13T08:11:46Z</time>
      </trkpt>
      <trkpt lat="44.46334" lon="2.79258">
        <ele>556.9</ele>
        <time>2014-04-13T08:11:53Z</time>
      </trkpt>
      <trkpt lat="44.46341" lon="2.79254">
        <ele>557.5</ele>
        <time>2014-04-13T08:11:59Z</time>
      </trkpt>
      <trkpt lat="44.46349" lon="2.79256">
        <ele>556.2</ele>
        <time>2014-04-13T08:12:04Z</time>
      </trkpt>
      <trkpt lat="44.46356" lon="2.79262">
        <ele>555.9</ele>
        <time>2014-04-13T08:12:09Z</time>
      </trkpt>
      <trkpt lat="44.46358" lon="2.79263">
        <ele>555.9</ele>
        <time>2014-04-13T08:12:10Z</time>
      </trkpt>
      <trkpt lat="44.46366" lon="2.79282">
        <ele>555.1</ele>
        <time>2014-04-13T08:12:22Z</time>
      </trkpt>
      <trkpt lat="44.46368" lon="2.79294">
        <ele>554</ele>
        <time>2014-04-13T08:12:28Z</time>
      </trkpt>
      <trkpt lat="44.46368" lon="2.79305">
        <ele>553.4</ele>
        <time>2014-04-13T08:12:34Z</time>
      </trkpt>
      <trkpt lat="44.46368" lon="2.79317">
        <ele>553.4</ele>
        <time>2014-04-13T08:12:40Z</time>
      </trkpt>
      <trkpt lat="44.46369" lon="2.79329">
        <ele>554</ele>
        <time>2014-04-13T08:12:46Z</time>
      </trkpt>
      <trkpt lat="44.4637" lon="2.79341">
        <ele>555.2</ele>
        <time>2014-04-13T08:12:52Z</time>
      </trkpt>
      <trkpt lat="44.46374" lon="2.79351">
        <ele>555.8</ele>
        <time>2014-04-13T08:12:57Z</time>
      </trkpt>
      <trkpt lat="44.46375" lon="2.79362">
        <ele>557</ele>
        <time>2014-04-13T08:13:02Z</time>
      </trkpt>
      <trkpt lat="44.46378" lon="2.79373">
        <ele>558.2</ele>
        <time>2014-04-13T08:13:07Z</time>
      </trkpt>
      <trkpt lat="44.46381" lon="2.79384">
        <ele>557.9</ele>
        <time>2014-04-13T08:13:12Z</time>
      </trkpt>
      <trkpt lat="44.46382" lon="2.79387">
        <ele>557.9</ele>
        <time>2014-04-13T08:13:13Z</time>
      </trkpt>
      <trkpt lat="44.46388" lon="2.79403">
        <ele>557.9</ele>
        <time>2014-04-13T08:13:21Z</time>
      </trkpt>
      <trkpt lat="44.46393" lon="2.79413">
        <ele>558.5</ele>
        <time>2014-04-13T08:13:26Z</time>
      </trkpt>
      <trkpt lat="44.46397" lon="2.79422">
        <ele>558.4</ele>
        <time>2014-04-13T08:13:31Z</time>
      </trkpt>
      <trkpt lat="44.46402" lon="2.79432">
        <ele>558.7</ele>
        <time>2014-04-13T08:13:37Z</time>
      </trkpt>
      <trkpt lat="44.46407" lon="2.79442">
        <ele>559.5</ele>
        <time>2014-04-13T08:13:44Z</time>
      </trkpt>
      <trkpt lat="44.46412" lon="2.79452">
        <ele>560.4</ele>
        <time>2014-04-13T08:13:50Z</time>
      </trkpt>
      <trkpt lat="44.46415" lon="2.79461">
        <ele>559.9</ele>
        <time>2014-04-13T08:13:54Z</time>
      </trkpt>
      <trkpt lat="44.46418" lon="2.79471">
        <ele>559.7</ele>
        <time>2014-04-13T08:13:58Z</time>
      </trkpt>
      <trkpt lat="44.46422" lon="2.7948">
        <ele>559.5</ele>
        <time>2014-04-13T08:14:02Z</time>
      </trkpt>
      <trkpt lat="44.46426" lon="2.7949">
        <ele>559.3</ele>
        <time>2014-04-13T08:14:07Z</time>
      </trkpt>
      <trkpt lat="44.4643" lon="2.795">
        <ele>559.3</ele>
        <time>2014-04-13T08:14:12Z</time>
      </trkpt>
      <trkpt lat="44.46433" lon="2.79511">
        <ele>559.9</ele>
        <time>2014-04-13T08:14:17Z</time>
      </trkpt>
      <trkpt lat="44.46434" lon="2.79513">
        <ele>560.1</ele>
        <time>2014-04-13T08:14:18Z</time>
      </trkpt>
      <trkpt lat="44.46438" lon="2.79532">
        <ele>560.2</ele>
        <time>2014-04-13T08:14:27Z</time>
      </trkpt>
      <trkpt lat="44.4644" lon="2.79542">
        <ele>559.8</ele>
        <time>2014-04-13T08:14:32Z</time>
      </trkpt>
      <trkpt lat="44.46444" lon="2.79553">
        <ele>559.5</ele>
        <time>2014-04-13T08:14:37Z</time>
      </trkpt>
      <trkpt lat="44.46448" lon="2.79564">
        <ele>559.5</ele>
        <time>2014-04-13T08:14:42Z</time>
      </trkpt>
      <trkpt lat="44.46451" lon="2.79574">
        <ele>559.1</ele>
        <time>2014-04-13T08:14:47Z</time>
      </trkpt>
      <trkpt lat="44.46455" lon="2.79584">
        <ele>558.8</ele>
        <time>2014-04-13T08:14:52Z</time>
      </trkpt>
      <trkpt lat="44.46458" lon="2.79594">
        <ele>558.4</ele>
        <time>2014-04-13T08:14:58Z</time>
      </trkpt>
      <trkpt lat="44.46463" lon="2.79604">
        <ele>558.1</ele>
        <time>2014-04-13T08:15:04Z</time>
      </trkpt>
      <trkpt lat="44.46466" lon="2.79614">
        <ele>557.6</ele>
        <time>2014-04-13T08:15:10Z</time>
      </trkpt>
      <trkpt lat="44.46469" lon="2.79624">
        <ele>556.8</ele>
        <time>2014-04-13T08:15:16Z</time>
      </trkpt>
      <trkpt lat="44.46472" lon="2.79635">
        <ele>556.6</ele>
        <time>2014-04-13T08:15:22Z</time>
      </trkpt>
      <trkpt lat="44.46473" lon="2.79636">
        <ele>556.6</ele>
        <time>2014-04-13T08:15:23Z</time>
      </trkpt>
      <trkpt lat="44.46487" lon="2.7965">
        <ele>557.7</ele>
        <time>2014-04-13T08:15:38Z</time>
      </trkpt>
      <trkpt lat="44.46494" lon="2.79656">
        <ele>557.8</ele>
        <time>2014-04-13T08:15:45Z</time>
      </trkpt>
      <trkpt lat="44.46501" lon="2.79661">
        <ele>558</ele>
        <time>2014-04-13T08:15:51Z</time>
      </trkpt>
      <trkpt lat="44.46508" lon="2.79667">
        <ele>557.8</ele>
        <time>2014-04-13T08:15:57Z</time>
      </trkpt>
      <trkpt lat="44.46515" lon="2.79672">
        <ele>558.9</ele>
        <time>2014-04-13T08:16:02Z</time>
      </trkpt>
      <trkpt lat="44.46523" lon="2.79674">
        <ele>558.7</ele>
        <time>2014-04-13T08:16:08Z</time>
      </trkpt>
      <trkpt lat="44.4653" lon="2.79668">
        <ele>559.3</ele>
        <time>2014-04-13T08:16:14Z</time>
      </trkpt>
      <trkpt lat="44.46535" lon="2.79659">
        <ele>560.2</ele>
        <time>2014-04-13T08:16:20Z</time>
      </trkpt>
      <trkpt lat="44.4654" lon="2.79649">
        <ele>561.8</ele>
        <time>2014-04-13T08:16:26Z</time>
      </trkpt>
      <trkpt lat="44.46541" lon="2.79647">
        <ele>562</ele>
        <time>2014-04-13T08:16:27Z</time>
      </trkpt>
      <trkpt lat="44.46556" lon="2.79644">
        <ele>566.4</ele>
        <time>2014-04-13T08:16:40Z</time>
      </trkpt>
      <trkpt lat="44.46564" lon="2.79646">
        <ele>566.2</ele>
        <time>2014-04-13T08:16:47Z</time>
      </trkpt>
      <trkpt lat="44.46571" lon="2.79648">
        <ele>565.9</ele>
        <time>2014-04-13T08:16:53Z</time>
      </trkpt>
      <trkpt lat="44.4658" lon="2.7965">
        <ele>566.4</ele>
        <time>2014-04-13T08:16:59Z</time>
      </trkpt>
      <trkpt lat="44.46588" lon="2.79652">
        <ele>565.6</ele>
        <time>2014-04-13T08:17:05Z</time>
      </trkpt>
      <trkpt lat="44.46595" lon="2.79654">
        <ele>566.5</ele>
        <time>2014-04-13T08:17:10Z</time>
      </trkpt>
      <trkpt lat="44.46603" lon="2.79657">
        <ele>566.2</ele>
        <time>2014-04-13T08:17:16Z</time>
      </trkpt>
      <trkpt lat="44.46611" lon="2.7966">
        <ele>565.6</ele>
        <time>2014-04-13T08:17:23Z</time>
      </trkpt>
      <trkpt lat="44.46619" lon="2.79665">
        <ele>565</ele>
        <time>2014-04-13T08:17:29Z</time>
      </trkpt>
      <trkpt lat="44.4662" lon="2.79666">
        <ele>564.9</ele>
        <time>2014-04-13T08:17:30Z</time>
      </trkpt>
      <trkpt lat="44.46636" lon="2.79663">
        <ele>564.6</ele>
        <time>2014-04-13T08:17:43Z</time>
      </trkpt>
      <trkpt lat="44.46643" lon="2.79662">
        <ele>564.7</ele>
        <time>2014-04-13T08:17:48Z</time>
      </trkpt>
      <trkpt lat="44.46652" lon="2.79661">
        <ele>564.4</ele>
        <time>2014-04-13T08:17:53Z</time>
      </trkpt>
      <trkpt lat="44.4666" lon="2.79663">
        <ele>565.2</ele>
        <time>2014-04-13T08:17:59Z</time>
      </trkpt>
      <trkpt lat="44.46668" lon="2.79666">
        <ele>564.8</ele>
        <time>2014-04-13T08:18:05Z</time>
      </trkpt>
      <trkpt lat="44.46674" lon="2.79672">
        <ele>564.7</ele>
        <time>2014-04-13T08:18:10Z</time>
      </trkpt>
      <trkpt lat="44.4668" lon="2.79679">
        <ele>564.1</ele>
        <time>2014-04-13T08:18:13Z</time>
      </trkpt>
      <trkpt lat="44.46685" lon="2.79685">
        <ele>564.6</ele>
        <time>2014-04-13T08:18:15Z</time>
      </trkpt>
      <trkpt lat="44.46691" lon="2.79693">
        <ele>564.4</ele>
        <time>2014-04-13T08:18:17Z</time>
      </trkpt>
      <trkpt lat="44.46697" lon="2.79701">
        <ele>564</ele>
        <time>2014-04-13T08:18:19Z</time>
      </trkpt>
      <trkpt lat="44.46702" lon="2.79707">
        <ele>563.7</ele>
        <time>2014-04-13T08:18:21Z</time>
      </trkpt>
      <trkpt lat="44.46707" lon="2.79715">
        <ele>564</ele>
        <time>2014-04-13T08:18:23Z</time>
      </trkpt>
      <trkpt lat="44.46712" lon="2.79724">
        <ele>564.4</ele>
        <time>2014-04-13T08:18:25Z</time>
      </trkpt>
      <trkpt lat="44.46719" lon="2.79732">
        <ele>564</ele>
        <time>2014-04-13T08:18:27Z</time>
      </trkpt>
      <trkpt lat="44.46726" lon="2.79739">
        <ele>563.7</ele>
        <time>2014-04-13T08:18:29Z</time>
      </trkpt>
      <trkpt lat="44.46729" lon="2.79744">
        <ele>563.6</ele>
        <time>2014-04-13T08:18:30Z</time>
      </trkpt>
      <trkpt lat="44.46733" lon="2.79748">
        <ele>563.9</ele>
        <time>2014-04-13T08:18:31Z</time>
      </trkpt>
      <trkpt lat="44.46739" lon="2.79755">
        <ele>564.2</ele>
        <time>2014-04-13T08:18:33Z</time>
      </trkpt>
      <trkpt lat="44.46745" lon="2.79763">
        <ele>564.3</ele>
        <time>2014-04-13T08:18:35Z</time>
      </trkpt>
      <trkpt lat="44.46749" lon="2.79766">
        <ele>564.6</ele>
        <time>2014-04-13T08:18:36Z</time>
      </trkpt>
      <trkpt lat="44.46754" lon="2.79768">
        <ele>564.8</ele>
        <time>2014-04-13T08:18:37Z</time>
      </trkpt>
      <trkpt lat="44.46759" lon="2.79769">
        <ele>565.4</ele>
        <time>2014-04-13T08:18:38Z</time>
      </trkpt>
      <trkpt lat="44.46767" lon="2.79772">
        <ele>566.2</ele>
        <time>2014-04-13T08:18:40Z</time>
      </trkpt>
      <trkpt lat="44.46773" lon="2.79778">
        <ele>565.6</ele>
        <time>2014-04-13T08:18:42Z</time>
      </trkpt>
      <trkpt lat="44.46778" lon="2.79784">
        <ele>566.5</ele>
        <time>2014-04-13T08:18:44Z</time>
      </trkpt>
      <trkpt lat="44.46783" lon="2.79791">
        <ele>566.6</ele>
        <time>2014-04-13T08:18:46Z</time>
      </trkpt>
      <trkpt lat="44.46787" lon="2.79799">
        <ele>567</ele>
        <time>2014-04-13T08:18:48Z</time>
      </trkpt>
      <trkpt lat="44.46792" lon="2.79807">
        <ele>567.2</ele>
        <time>2014-04-13T08:18:50Z</time>
      </trkpt>
      <trkpt lat="44.46797" lon="2.79814">
        <ele>567</ele>
        <time>2014-04-13T08:18:52Z</time>
      </trkpt>
      <trkpt lat="44.46801" lon="2.79822">
        <ele>566.7</ele>
        <time>2014-04-13T08:18:54Z</time>
      </trkpt>
      <trkpt lat="44.46807" lon="2.79831">
        <ele>567.1</ele>
        <time>2014-04-13T08:18:58Z</time>
      </trkpt>
      <trkpt lat="44.46812" lon="2.79839">
        <ele>567.4</ele>
        <time>2014-04-13T08:19:02Z</time>
      </trkpt>
      <trkpt lat="44.46817" lon="2.79848">
        <ele>566.8</ele>
        <time>2014-04-13T08:19:07Z</time>
      </trkpt>
      <trkpt lat="44.46822" lon="2.79857">
        <ele>567</ele>
        <time>2014-04-13T08:19:12Z</time>
      </trkpt>
      <trkpt lat="44.46827" lon="2.79865">
        <ele>567.7</ele>
        <time>2014-04-13T08:19:17Z</time>
      </trkpt>
      <trkpt lat="44.46832" lon="2.79874">
        <ele>567.8</ele>
        <time>2014-04-13T08:19:22Z</time>
      </trkpt>
      <trkpt lat="44.46836" lon="2.79883">
        <ele>567.7</ele>
        <time>2014-04-13T08:19:27Z</time>
      </trkpt>
      <trkpt lat="44.4684" lon="2.79894">
        <ele>568.1</ele>
        <time>2014-04-13T08:19:33Z</time>
      </trkpt>
      <trkpt lat="44.46841" lon="2.79895">
        <ele>568.1</ele>
        <time>2014-04-13T08:19:34Z</time>
      </trkpt>
      <trkpt lat="44.4685" lon="2.79914">
        <ele>568.9</ele>
        <time>2014-04-13T08:19:43Z</time>
      </trkpt>
      <trkpt lat="44.46854" lon="2.79924">
        <ele>568.8</ele>
        <time>2014-04-13T08:19:48Z</time>
      </trkpt>
      <trkpt lat="44.46858" lon="2.79935">
        <ele>569.6</ele>
        <time>2014-04-13T08:19:53Z</time>
      </trkpt>
      <trkpt lat="44.46862" lon="2.79944">
        <ele>569.3</ele>
        <time>2014-04-13T08:19:58Z</time>
      </trkpt>
      <trkpt lat="44.46866" lon="2.79954">
        <ele>570.1</ele>
        <time>2014-04-13T08:20:03Z</time>
      </trkpt>
      <trkpt lat="44.46871" lon="2.79963">
        <ele>569.6</ele>
        <time>2014-04-13T08:20:08Z</time>
      </trkpt>
      <trkpt lat="44.46875" lon="2.79971">
        <ele>569.5</ele>
        <time>2014-04-13T08:20:13Z</time>
      </trkpt>
      <trkpt lat="44.4688" lon="2.7998">
        <ele>571</ele>
        <time>2014-04-13T08:20:18Z</time>
      </trkpt>
      <trkpt lat="44.46885" lon="2.79988">
        <ele>570.7</ele>
        <time>2014-04-13T08:20:23Z</time>
      </trkpt>
      <trkpt lat="44.46889" lon="2.79998">
        <ele>571.5</ele>
        <time>2014-04-13T08:20:28Z</time>
      </trkpt>
      <trkpt lat="44.46889" lon="2.8001">
        <ele>572.2</ele>
        <time>2014-04-13T08:20:33Z</time>
      </trkpt>
      <trkpt lat="44.46887" lon="2.80021">
        <ele>572.6</ele>
        <time>2014-04-13T08:20:38Z</time>
      </trkpt>
      <trkpt lat="44.46887" lon="2.80024">
        <ele>572.9</ele>
        <time>2014-04-13T08:20:39Z</time>
      </trkpt>
      <trkpt lat="44.46885" lon="2.80042">
        <ele>572.4</ele>
        <time>2014-04-13T08:20:48Z</time>
      </trkpt>
      <trkpt lat="44.46883" lon="2.80053">
        <ele>572.2</ele>
        <time>2014-04-13T08:20:53Z</time>
      </trkpt>
      <trkpt lat="44.4688" lon="2.80064">
        <ele>572.5</ele>
        <time>2014-04-13T08:20:59Z</time>
      </trkpt>
      <trkpt lat="44.46879" lon="2.80075">
        <ele>572.2</ele>
        <time>2014-04-13T08:21:05Z</time>
      </trkpt>
      <trkpt lat="44.46877" lon="2.80086">
        <ele>572.4</ele>
        <time>2014-04-13T08:21:10Z</time>
      </trkpt>
      <trkpt lat="44.46874" lon="2.80096">
        <ele>572.5</ele>
        <time>2014-04-13T08:21:15Z</time>
      </trkpt>
      <trkpt lat="44.46871" lon="2.80106">
        <ele>572.4</ele>
        <time>2014-04-13T08:21:20Z</time>
      </trkpt>
      <trkpt lat="44.46868" lon="2.80117">
        <ele>572.1</ele>
        <time>2014-04-13T08:21:25Z</time>
      </trkpt>
      <trkpt lat="44.46864" lon="2.80126">
        <ele>572</ele>
        <time>2014-04-13T08:21:29Z</time>
      </trkpt>
      <trkpt lat="44.4686" lon="2.80136">
        <ele>572.5</ele>
        <time>2014-04-13T08:21:34Z</time>
      </trkpt>
      <trkpt lat="44.46856" lon="2.80147">
        <ele>573</ele>
        <time>2014-04-13T08:21:40Z</time>
      </trkpt>
      <trkpt lat="44.46856" lon="2.80148">
        <ele>572.8</ele>
        <time>2014-04-13T08:21:41Z</time>
      </trkpt>
      <trkpt lat="44.46862" lon="2.80164">
        <ele>572.1</ele>
        <time>2014-04-13T08:21:58Z</time>
      </trkpt>
      <trkpt lat="44.4687" lon="2.80167">
        <ele>572.6</ele>
        <time>2014-04-13T08:22:05Z</time>
      </trkpt>
      <trkpt lat="44.46878" lon="2.8017">
        <ele>573</ele>
        <time>2014-04-13T08:22:12Z</time>
      </trkpt>
      <trkpt lat="44.46886" lon="2.80172">
        <ele>572.4</ele>
        <time>2014-04-13T08:22:18Z</time>
      </trkpt>
      <trkpt lat="44.46895" lon="2.80176">
        <ele>573.1</ele>
        <time>2014-04-13T08:22:24Z</time>
      </trkpt>
      <trkpt lat="44.46902" lon="2.80181">
        <ele>573.1</ele>
        <time>2014-04-13T08:22:29Z</time>
      </trkpt>
      <trkpt lat="44.46909" lon="2.80186">
        <ele>573.3</ele>
        <time>2014-04-13T08:22:35Z</time>
      </trkpt>
      <trkpt lat="44.46916" lon="2.80194">
        <ele>573.5</ele>
        <time>2014-04-13T08:22:42Z</time>
      </trkpt>
      <trkpt lat="44.46917" lon="2.80195">
        <ele>573</ele>
        <time>2014-04-13T08:22:43Z</time>
      </trkpt>
      <trkpt lat="44.4693" lon="2.80202">
        <ele>572.5</ele>
        <time>2014-04-13T08:22:52Z</time>
      </trkpt>
      <trkpt lat="44.46937" lon="2.80208">
        <ele>573.3</ele>
        <time>2014-04-13T08:22:58Z</time>
      </trkpt>
      <trkpt lat="44.46944" lon="2.80215">
        <ele>573.9</ele>
        <time>2014-04-13T08:23:04Z</time>
      </trkpt>
      <trkpt lat="44.46951" lon="2.80222">
        <ele>573.8</ele>
        <time>2014-04-13T08:23:10Z</time>
      </trkpt>
      <trkpt lat="44.46958" lon="2.80228">
        <ele>573</ele>
        <time>2014-04-13T08:23:16Z</time>
      </trkpt>
      <trkpt lat="44.46965" lon="2.80235">
        <ele>573.1</ele>
        <time>2014-04-13T08:23:22Z</time>
      </trkpt>
      <trkpt lat="44.46972" lon="2.8024">
        <ele>572.8</ele>
        <time>2014-04-13T08:23:27Z</time>
      </trkpt>
      <trkpt lat="44.46978" lon="2.80248">
        <ele>573.7</ele>
        <time>2014-04-13T08:23:33Z</time>
      </trkpt>
      <trkpt lat="44.46984" lon="2.80256">
        <ele>573.8</ele>
        <time>2014-04-13T08:23:39Z</time>
      </trkpt>
      <trkpt lat="44.4699" lon="2.80264">
        <ele>572.3</ele>
        <time>2014-04-13T08:23:44Z</time>
      </trkpt>
      <trkpt lat="44.46991" lon="2.80266">
        <ele>572.2</ele>
        <time>2014-04-13T08:23:45Z</time>
      </trkpt>
      <trkpt lat="44.47001" lon="2.8028">
        <ele>573.5</ele>
        <time>2014-04-13T08:23:53Z</time>
      </trkpt>
      <trkpt lat="44.47007" lon="2.80289">
        <ele>573.4</ele>
        <time>2014-04-13T08:23:59Z</time>
      </trkpt>
      <trkpt lat="44.47014" lon="2.80298">
        <ele>571.2</ele>
        <time>2014-04-13T08:24:05Z</time>
      </trkpt>
      <trkpt lat="44.47021" lon="2.80305">
        <ele>574.1</ele>
        <time>2014-04-13T08:24:12Z</time>
      </trkpt>
      <trkpt lat="44.47026" lon="2.80314">
        <ele>573.7</ele>
        <time>2014-04-13T08:24:18Z</time>
      </trkpt>
      <trkpt lat="44.47032" lon="2.80322">
        <ele>573.4</ele>
        <time>2014-04-13T08:24:24Z</time>
      </trkpt>
      <trkpt lat="44.47038" lon="2.8033">
        <ele>572.9</ele>
        <time>2014-04-13T08:24:30Z</time>
      </trkpt>
      <trkpt lat="44.47045" lon="2.80336">
        <ele>572.7</ele>
        <time>2014-04-13T08:24:36Z</time>
      </trkpt>
      <trkpt lat="44.47053" lon="2.80341">
        <ele>573.1</ele>
        <time>2014-04-13T08:24:42Z</time>
      </trkpt>
      <trkpt lat="44.47061" lon="2.80344">
        <ele>572.6</ele>
        <time>2014-04-13T08:24:48Z</time>
      </trkpt>
      <trkpt lat="44.47063" lon="2.80344">
        <ele>572.5</ele>
        <time>2014-04-13T08:24:49Z</time>
      </trkpt>
      <trkpt lat="44.47079" lon="2.80347">
        <ele>572.8</ele>
        <time>2014-04-13T08:25:02Z</time>
      </trkpt>
      <trkpt lat="44.47088" lon="2.80347">
        <ele>572.8</ele>
        <time>2014-04-13T08:25:09Z</time>
      </trkpt>
      <trkpt lat="44.47096" lon="2.80348">
        <ele>572.9</ele>
        <time>2014-04-13T08:25:14Z</time>
      </trkpt>
      <trkpt lat="44.47104" lon="2.80348">
        <ele>572.7</ele>
        <time>2014-04-13T08:25:20Z</time>
      </trkpt>
      <trkpt lat="44.47113" lon="2.8035">
        <ele>572.7</ele>
        <time>2014-04-13T08:25:25Z</time>
      </trkpt>
      <trkpt lat="44.47121" lon="2.80352">
        <ele>572</ele>
        <time>2014-04-13T08:25:31Z</time>
      </trkpt>
      <trkpt lat="44.47128" lon="2.80356">
        <ele>572.6</ele>
        <time>2014-04-13T08:25:36Z</time>
      </trkpt>
      <trkpt lat="44.47135" lon="2.80361">
        <ele>572.6</ele>
        <time>2014-04-13T08:25:41Z</time>
      </trkpt>
      <trkpt lat="44.47142" lon="2.80367">
        <ele>573.6</ele>
        <time>2014-04-13T08:25:46Z</time>
      </trkpt>
      <trkpt lat="44.4715" lon="2.80373">
        <ele>573.5</ele>
        <time>2014-04-13T08:25:52Z</time>
      </trkpt>
      <trkpt lat="44.47151" lon="2.80374">
        <ele>573.5</ele>
        <time>2014-04-13T08:25:53Z</time>
      </trkpt>
      <trkpt lat="44.47163" lon="2.80386">
        <ele>574.3</ele>
        <time>2014-04-13T08:26:04Z</time>
      </trkpt>
      <trkpt lat="44.4717" lon="2.80394">
        <ele>574.4</ele>
        <time>2014-04-13T08:26:10Z</time>
      </trkpt>
      <trkpt lat="44.47176" lon="2.80402">
        <ele>575.1</ele>
        <time>2014-04-13T08:26:16Z</time>
      </trkpt>
      <trkpt lat="44.47181" lon="2.80411">
        <ele>574.9</ele>
        <time>2014-04-13T08:26:21Z</time>
      </trkpt>
      <trkpt lat="44.47186" lon="2.80419">
        <ele>575.4</ele>
        <time>2014-04-13T08:26:26Z</time>
      </trkpt>
      <trkpt lat="44.47191" lon="2.80428">
        <ele>576</ele>
        <time>2014-04-13T08:26:31Z</time>
      </trkpt>
      <trkpt lat="44.47196" lon="2.80437">
        <ele>576.2</ele>
        <time>2014-04-13T08:26:37Z</time>
      </trkpt>
      <trkpt lat="44.47201" lon="2.80446">
        <ele>577</ele>
        <time>2014-04-13T08:26:43Z</time>
      </trkpt>
      <trkpt lat="44.47205" lon="2.80455">
        <ele>577.2</ele>
        <time>2014-04-13T08:26:49Z</time>
      </trkpt>
      <trkpt lat="44.4721" lon="2.80464">
        <ele>577.4</ele>
        <time>2014-04-13T08:26:54Z</time>
      </trkpt>
      <trkpt lat="44.47211" lon="2.80466">
        <ele>577.4</ele>
        <time>2014-04-13T08:26:55Z</time>
      </trkpt>
      <trkpt lat="44.47218" lon="2.80485">
        <ele>579.2</ele>
        <time>2014-04-13T08:27:05Z</time>
      </trkpt>
      <trkpt lat="44.47221" lon="2.80497">
        <ele>580.5</ele>
        <time>2014-04-13T08:27:11Z</time>
      </trkpt>
      <trkpt lat="44.47222" lon="2.80507">
        <ele>581</ele>
        <time>2014-04-13T08:27:16Z</time>
      </trkpt>
      <trkpt lat="44.47222" lon="2.80519">
        <ele>581</ele>
        <time>2014-04-13T08:27:22Z</time>
      </trkpt>
      <trkpt lat="44.47224" lon="2.8053">
        <ele>582.7</ele>
        <time>2014-04-13T08:27:28Z</time>
      </trkpt>
      <trkpt lat="44.47226" lon="2.80542">
        <ele>582.9</ele>
        <time>2014-04-13T08:27:34Z</time>
      </trkpt>
      <trkpt lat="44.47228" lon="2.80553">
        <ele>583.6</ele>
        <time>2014-04-13T08:27:40Z</time>
      </trkpt>
      <trkpt lat="44.4723" lon="2.80564">
        <ele>584.5</ele>
        <time>2014-04-13T08:27:45Z</time>
      </trkpt>
      <trkpt lat="44.47232" lon="2.80574">
        <ele>585</ele>
        <time>2014-04-13T08:27:50Z</time>
      </trkpt>
      <trkpt lat="44.47235" lon="2.80585">
        <ele>585.5</ele>
        <time>2014-04-13T08:27:55Z</time>
      </trkpt>
      <trkpt lat="44.47235" lon="2.80588">
        <ele>585.9</ele>
        <time>2014-04-13T08:27:56Z</time>
      </trkpt>
      <trkpt lat="44.4724" lon="2.80609">
        <ele>587.2</ele>
        <time>2014-04-13T08:28:07Z</time>
      </trkpt>
      <trkpt lat="44.47242" lon="2.80621">
        <ele>587.2</ele>
        <time>2014-04-13T08:28:14Z</time>
      </trkpt>
      <trkpt lat="44.47241" lon="2.80632">
        <ele>588.4</ele>
        <time>2014-04-13T08:28:20Z</time>
      </trkpt>
      <trkpt lat="44.47239" lon="2.80644">
        <ele>588.8</ele>
        <time>2014-04-13T08:28:26Z</time>
      </trkpt>
      <trkpt lat="44.47237" lon="2.80655">
        <ele>589.1</ele>
        <time>2014-04-13T08:28:31Z</time>
      </trkpt>
      <trkpt lat="44.47234" lon="2.80667">
        <ele>590.2</ele>
        <time>2014-04-13T08:28:36Z</time>
      </trkpt>
      <trkpt lat="44.47231" lon="2.80678">
        <ele>591.3</ele>
        <time>2014-04-13T08:28:46Z</time>
      </trkpt>
      <trkpt lat="44.47229" lon="2.80689">
        <ele>591.6</ele>
        <time>2014-04-13T08:28:53Z</time>
      </trkpt>
      <trkpt lat="44.47227" lon="2.80699">
        <ele>592.4</ele>
        <time>2014-04-13T08:28:58Z</time>
      </trkpt>
      <trkpt lat="44.47226" lon="2.80701">
        <ele>592.5</ele>
        <time>2014-04-13T08:28:59Z</time>
      </trkpt>
      <trkpt lat="44.47218" lon="2.80718">
        <ele>592.9</ele>
        <time>2014-04-13T08:29:09Z</time>
      </trkpt>
      <trkpt lat="44.47212" lon="2.80727">
        <ele>592.7</ele>
        <time>2014-04-13T08:29:16Z</time>
      </trkpt>
      <trkpt lat="44.47207" lon="2.80737">
        <ele>593.7</ele>
        <time>2014-04-13T08:29:24Z</time>
      </trkpt>
      <trkpt lat="44.47202" lon="2.80746">
        <ele>594.5</ele>
        <time>2014-04-13T08:29:30Z</time>
      </trkpt>
      <trkpt lat="44.47196" lon="2.80755">
        <ele>594.3</ele>
        <time>2014-04-13T08:29:35Z</time>
      </trkpt>
      <trkpt lat="44.47191" lon="2.80764">
        <ele>595.1</ele>
        <time>2014-04-13T08:29:40Z</time>
      </trkpt>
      <trkpt lat="44.47187" lon="2.80773">
        <ele>595.2</ele>
        <time>2014-04-13T08:29:45Z</time>
      </trkpt>
      <trkpt lat="44.47181" lon="2.80782">
        <ele>595</ele>
        <time>2014-04-13T08:29:50Z</time>
      </trkpt>
      <trkpt lat="44.47176" lon="2.80792">
        <ele>595.6</ele>
        <time>2014-04-13T08:29:55Z</time>
      </trkpt>
      <trkpt lat="44.47169" lon="2.808">
        <ele>596.2</ele>
        <time>2014-04-13T08:30:00Z</time>
      </trkpt>
      <trkpt lat="44.47168" lon="2.80802">
        <ele>596.3</ele>
        <time>2014-04-13T08:30:01Z</time>
      </trkpt>
      <trkpt lat="44.47155" lon="2.80814">
        <ele>597.3</ele>
        <time>2014-04-13T08:30:10Z</time>
      </trkpt>
      <trkpt lat="44.47147" lon="2.8082">
        <ele>597.5</ele>
        <time>2014-04-13T08:30:15Z</time>
      </trkpt>
      <trkpt lat="44.4714" lon="2.80827">
        <ele>596.1</ele>
        <time>2014-04-13T08:30:20Z</time>
      </trkpt>
      <trkpt lat="44.47134" lon="2.80834">
        <ele>596.6</ele>
        <time>2014-04-13T08:30:25Z</time>
      </trkpt>
      <trkpt lat="44.47126" lon="2.80839">
        <ele>597.7</ele>
        <time>2014-04-13T08:31:35Z</time>
      </trkpt>
      <trkpt lat="44.47126" lon="2.80839">
        <ele>597.6</ele>
        <time>2014-04-13T08:31:36Z</time>
      </trkpt>
      <trkpt lat="44.47118" lon="2.80861">
        <ele>598.1</ele>
        <time>2014-04-13T08:32:19Z</time>
      </trkpt>
      <trkpt lat="44.47114" lon="2.80872">
        <ele>598.7</ele>
        <time>2014-04-13T08:32:24Z</time>
      </trkpt>
      <trkpt lat="44.4711" lon="2.80882">
        <ele>598.2</ele>
        <time>2014-04-13T08:32:29Z</time>
      </trkpt>
      <trkpt lat="44.47107" lon="2.80893">
        <ele>598.3</ele>
        <time>2014-04-13T08:32:34Z</time>
      </trkpt>
      <trkpt lat="44.47103" lon="2.80904">
        <ele>598.4</ele>
        <time>2014-04-13T08:32:39Z</time>
      </trkpt>
      <trkpt lat="44.47102" lon="2.80906">
        <ele>598.4</ele>
        <time>2014-04-13T08:32:40Z</time>
      </trkpt>
      <trkpt lat="44.47096" lon="2.80925">
        <ele>598.5</ele>
        <time>2014-04-13T08:32:49Z</time>
      </trkpt>
      <trkpt lat="44.47092" lon="2.80937">
        <ele>598.9</ele>
        <time>2014-04-13T08:32:57Z</time>
      </trkpt>
      <trkpt lat="44.47089" lon="2.80948">
        <ele>599.2</ele>
        <time>2014-04-13T08:33:03Z</time>
      </trkpt>
      <trkpt lat="44.47087" lon="2.8096">
        <ele>599.7</ele>
        <time>2014-04-13T08:33:08Z</time>
      </trkpt>
      <trkpt lat="44.47087" lon="2.8097">
        <ele>599.4</ele>
        <time>2014-04-13T08:33:13Z</time>
      </trkpt>
      <trkpt lat="44.47088" lon="2.80981">
        <ele>601.2</ele>
        <time>2014-04-13T08:33:18Z</time>
      </trkpt>
      <trkpt lat="44.4709" lon="2.80991">
        <ele>601</ele>
        <time>2014-04-13T08:33:23Z</time>
      </trkpt>
      <trkpt lat="44.47093" lon="2.81002">
        <ele>600.7</ele>
        <time>2014-04-13T08:33:28Z</time>
      </trkpt>
      <trkpt lat="44.47096" lon="2.81013">
        <ele>600.3</ele>
        <time>2014-04-13T08:33:33Z</time>
      </trkpt>
      <trkpt lat="44.471" lon="2.81023">
        <ele>600.7</ele>
        <time>2014-04-13T08:33:38Z</time>
      </trkpt>
      <trkpt lat="44.47105" lon="2.81033">
        <ele>600.8</ele>
        <time>2014-04-13T08:33:43Z</time>
      </trkpt>
      <trkpt lat="44.47106" lon="2.81035">
        <ele>600.7</ele>
        <time>2014-04-13T08:33:44Z</time>
      </trkpt>
      <trkpt lat="44.47117" lon="2.8105">
        <ele>600.3</ele>
        <time>2014-04-13T08:33:55Z</time>
      </trkpt>
      <trkpt lat="44.47122" lon="2.81059">
        <ele>601.3</ele>
        <time>2014-04-13T08:34:00Z</time>
      </trkpt>
      <trkpt lat="44.47127" lon="2.81068">
        <ele>601.3</ele>
        <time>2014-04-13T08:34:06Z</time>
      </trkpt>
      <trkpt lat="44.47132" lon="2.81078">
        <ele>601.8</ele>
        <time>2014-04-13T08:34:11Z</time>
      </trkpt>
      <trkpt lat="44.47138" lon="2.81086">
        <ele>601.8</ele>
        <time>2014-04-13T08:34:16Z</time>
      </trkpt>
      <trkpt lat="44.47142" lon="2.81096">
        <ele>601.8</ele>
        <time>2014-04-13T08:34:21Z</time>
      </trkpt>
      <trkpt lat="44.47147" lon="2.81105">
        <ele>602.2</ele>
        <time>2014-04-13T08:34:26Z</time>
      </trkpt>
      <trkpt lat="44.47151" lon="2.81114">
        <ele>603.1</ele>
        <time>2014-04-13T08:34:31Z</time>
      </trkpt>
      <trkpt lat="44.47156" lon="2.81123">
        <ele>602.8</ele>
        <time>2014-04-13T08:34:36Z</time>
      </trkpt>
      <trkpt lat="44.4716" lon="2.81132">
        <ele>602.8</ele>
        <time>2014-04-13T08:34:42Z</time>
      </trkpt>
      <trkpt lat="44.47163" lon="2.81143">
        <ele>604</ele>
        <time>2014-04-13T08:34:47Z</time>
      </trkpt>
      <trkpt lat="44.47164" lon="2.81145">
        <ele>604.1</ele>
        <time>2014-04-13T08:34:48Z</time>
      </trkpt>
      <trkpt lat="44.47168" lon="2.81163">
        <ele>604.5</ele>
        <time>2014-04-13T08:34:56Z</time>
      </trkpt>
      <trkpt lat="44.47172" lon="2.81174">
        <ele>603.6</ele>
        <time>2014-04-13T08:35:01Z</time>
      </trkpt>
      <trkpt lat="44.47176" lon="2.81183">
        <ele>603.7</ele>
        <time>2014-04-13T08:35:06Z</time>
      </trkpt>
      <trkpt lat="44.47181" lon="2.81191">
        <ele>605</ele>
        <time>2014-04-13T08:35:11Z</time>
      </trkpt>
      <trkpt lat="44.47187" lon="2.812">
        <ele>605.1</ele>
        <time>2014-04-13T08:35:17Z</time>
      </trkpt>
      <trkpt lat="44.47194" lon="2.81207">
        <ele>605.8</ele>
        <time>2014-04-13T08:35:23Z</time>
      </trkpt>
      <trkpt lat="44.472" lon="2.81214">
        <ele>605.5</ele>
        <time>2014-04-13T08:35:28Z</time>
      </trkpt>
      <trkpt lat="44.47204" lon="2.81222">
        <ele>605.9</ele>
        <time>2014-04-13T08:35:32Z</time>
      </trkpt>
      <trkpt lat="44.47209" lon="2.8123">
        <ele>606.1</ele>
        <time>2014-04-13T08:35:36Z</time>
      </trkpt>
      <trkpt lat="44.47214" lon="2.81239">
        <ele>606.4</ele>
        <time>2014-04-13T08:35:40Z</time>
      </trkpt>
      <trkpt lat="44.47219" lon="2.81248">
        <ele>605.9</ele>
        <time>2014-04-13T08:35:45Z</time>
      </trkpt>
      <trkpt lat="44.47224" lon="2.81256">
        <ele>606.7</ele>
        <time>2014-04-13T08:35:49Z</time>
      </trkpt>
      <trkpt lat="44.47225" lon="2.81258">
        <ele>606.5</ele>
        <time>2014-04-13T08:35:50Z</time>
      </trkpt>
      <trkpt lat="44.47236" lon="2.81272">
        <ele>607.1</ele>
        <time>2014-04-13T08:36:00Z</time>
      </trkpt>
      <trkpt lat="44.47242" lon="2.81279">
        <ele>607.6</ele>
        <time>2014-04-13T08:36:05Z</time>
      </trkpt>
      <trkpt lat="44.47249" lon="2.81286">
        <ele>607.7</ele>
        <time>2014-04-13T08:36:10Z</time>
      </trkpt>
      <trkpt lat="44.47255" lon="2.81293">
        <ele>608.1</ele>
        <time>2014-04-13T08:36:15Z</time>
      </trkpt>
      <trkpt lat="44.47261" lon="2.813">
        <ele>608.2</ele>
        <time>2014-04-13T08:36:20Z</time>
      </trkpt>
      <trkpt lat="44.47268" lon="2.81308">
        <ele>609.5</ele>
        <time>2014-04-13T08:36:25Z</time>
      </trkpt>
      <trkpt lat="44.47274" lon="2.81316">
        <ele>610.2</ele>
        <time>2014-04-13T08:36:30Z</time>
      </trkpt>
      <trkpt lat="44.4728" lon="2.81324">
        <ele>610.5</ele>
        <time>2014-04-13T08:36:35Z</time>
      </trkpt>
      <trkpt lat="44.47286" lon="2.81333">
        <ele>611.1</ele>
        <time>2014-04-13T08:36:40Z</time>
      </trkpt>
      <trkpt lat="44.47289" lon="2.81344">
        <ele>611.6</ele>
        <time>2014-04-13T08:36:46Z</time>
      </trkpt>
      <trkpt lat="44.47289" lon="2.81355">
        <ele>611.5</ele>
        <time>2014-04-13T08:36:54Z</time>
      </trkpt>
      <trkpt lat="44.47289" lon="2.81357">
        <ele>611.6</ele>
        <time>2014-04-13T08:36:55Z</time>
      </trkpt>
      <trkpt lat="44.47282" lon="2.81375">
        <ele>611.2</ele>
        <time>2014-04-13T08:37:06Z</time>
      </trkpt>
      <trkpt lat="44.47276" lon="2.81382">
        <ele>610.8</ele>
        <time>2014-04-13T08:37:12Z</time>
      </trkpt>
      <trkpt lat="44.4727" lon="2.81389">
        <ele>610.6</ele>
        <time>2014-04-13T08:37:18Z</time>
      </trkpt>
      <trkpt lat="44.47264" lon="2.81397">
        <ele>610.5</ele>
        <time>2014-04-13T08:37:24Z</time>
      </trkpt>
      <trkpt lat="44.4726" lon="2.81407">
        <ele>610.5</ele>
        <time>2014-04-13T08:37:29Z</time>
      </trkpt>
      <trkpt lat="44.47257" lon="2.81417">
        <ele>610.6</ele>
        <time>2014-04-13T08:37:34Z</time>
      </trkpt>
      <trkpt lat="44.47256" lon="2.8143">
        <ele>609.7</ele>
        <time>2014-04-13T08:37:40Z</time>
      </trkpt>
      <trkpt lat="44.47255" lon="2.81442">
        <ele>610.2</ele>
        <time>2014-04-13T08:37:46Z</time>
      </trkpt>
      <trkpt lat="44.47253" lon="2.81453">
        <ele>609.5</ele>
        <time>2014-04-13T08:37:52Z</time>
      </trkpt>
      <trkpt lat="44.47248" lon="2.81462">
        <ele>610.1</ele>
        <time>2014-04-13T08:37:57Z</time>
      </trkpt>
      <trkpt lat="44.47247" lon="2.81463">
        <ele>610.1</ele>
        <time>2014-04-13T08:37:58Z</time>
      </trkpt>
      <trkpt lat="44.47237" lon="2.81478">
        <ele>610.1</ele>
        <time>2014-04-13T08:38:07Z</time>
      </trkpt>
      <trkpt lat="44.47231" lon="2.81485">
        <ele>608.9</ele>
        <time>2014-04-13T08:38:12Z</time>
      </trkpt>
      <trkpt lat="44.47224" lon="2.81493">
        <ele>608.9</ele>
        <time>2014-04-13T08:38:18Z</time>
      </trkpt>
      <trkpt lat="44.47218" lon="2.815">
        <ele>608.4</ele>
        <time>2014-04-13T08:38:23Z</time>
      </trkpt>
      <trkpt lat="44.47212" lon="2.81507">
        <ele>607.6</ele>
        <time>2014-04-13T08:38:28Z</time>
      </trkpt>
      <trkpt lat="44.47206" lon="2.81514">
        <ele>607.2</ele>
        <time>2014-04-13T08:38:33Z</time>
      </trkpt>
      <trkpt lat="44.472" lon="2.81522">
        <ele>606</ele>
        <time>2014-04-13T08:38:39Z</time>
      </trkpt>
      <trkpt lat="44.47193" lon="2.81529">
        <ele>605.4</ele>
        <time>2014-04-13T08:38:44Z</time>
      </trkpt>
      <trkpt lat="44.47187" lon="2.81536">
        <ele>605.1</ele>
        <time>2014-04-13T08:38:49Z</time>
      </trkpt>
      <trkpt lat="44.47182" lon="2.81544">
        <ele>605.1</ele>
        <time>2014-04-13T08:38:54Z</time>
      </trkpt>
      <trkpt lat="44.47177" lon="2.8155">
        <ele>604.9</ele>
        <time>2014-04-13T08:38:58Z</time>
      </trkpt>
      <trkpt lat="44.47175" lon="2.81552">
        <ele>605.1</ele>
        <time>2014-04-13T08:38:59Z</time>
      </trkpt>
      <trkpt lat="44.47166" lon="2.81567">
        <ele>604.4</ele>
        <time>2014-04-13T08:39:07Z</time>
      </trkpt>
      <trkpt lat="44.47162" lon="2.81577">
        <ele>604.5</ele>
        <time>2014-04-13T08:39:11Z</time>
      </trkpt>
      <trkpt lat="44.47158" lon="2.81585">
        <ele>604</ele>
        <time>2014-04-13T08:39:13Z</time>
      </trkpt>
      <trkpt lat="44.47154" lon="2.81594">
        <ele>603.7</ele>
        <time>2014-04-13T08:39:15Z</time>
      </trkpt>
      <trkpt lat="44.4715" lon="2.81603">
        <ele>603.7</ele>
        <time>2014-04-13T08:39:17Z</time>
      </trkpt>
      <trkpt lat="44.47146" lon="2.81613">
        <ele>603.4</ele>
        <time>2014-04-13T08:39:19Z</time>
      </trkpt>
      <trkpt lat="44.47142" lon="2.81623">
        <ele>603.1</ele>
        <time>2014-04-13T08:39:21Z</time>
      </trkpt>
      <trkpt lat="44.47137" lon="2.81631">
        <ele>603.3</ele>
        <time>2014-04-13T08:39:23Z</time>
      </trkpt>
      <trkpt lat="44.47133" lon="2.8164">
        <ele>603.1</ele>
        <time>2014-04-13T08:39:25Z</time>
      </trkpt>
      <trkpt lat="44.47129" lon="2.81649">
        <ele>602.4</ele>
        <time>2014-04-13T08:39:27Z</time>
      </trkpt>
      <trkpt lat="44.47126" lon="2.81655">
        <ele>601.9</ele>
        <time>2014-04-13T08:39:29Z</time>
      </trkpt>
      <trkpt lat="44.47121" lon="2.81663">
        <ele>601.4</ele>
        <time>2014-04-13T08:39:31Z</time>
      </trkpt>
      <trkpt lat="44.47116" lon="2.81671">
        <ele>601.4</ele>
        <time>2014-04-13T08:39:33Z</time>
      </trkpt>
      <trkpt lat="44.47112" lon="2.81679">
        <ele>601.8</ele>
        <time>2014-04-13T08:39:35Z</time>
      </trkpt>
      <trkpt lat="44.47108" lon="2.81689">
        <ele>601.7</ele>
        <time>2014-04-13T08:39:38Z</time>
      </trkpt>
      <trkpt lat="44.47103" lon="2.81699">
        <ele>601.2</ele>
        <time>2014-04-13T08:39:41Z</time>
      </trkpt>
      <trkpt lat="44.47098" lon="2.81705">
        <ele>600.6</ele>
        <time>2014-04-13T08:39:43Z</time>
      </trkpt>
      <trkpt lat="44.47093" lon="2.81715">
        <ele>600</ele>
        <time>2014-04-13T08:39:46Z</time>
      </trkpt>
      <trkpt lat="44.4709" lon="2.81723">
        <ele>599.9</ele>
        <time>2014-04-13T08:39:48Z</time>
      </trkpt>
      <trkpt lat="44.47087" lon="2.81734">
        <ele>599</ele>
        <time>2014-04-13T08:39:51Z</time>
      </trkpt>
      <trkpt lat="44.47084" lon="2.81746">
        <ele>598.4</ele>
        <time>2014-04-13T08:39:54Z</time>
      </trkpt>
      <trkpt lat="44.47079" lon="2.81756">
        <ele>597.1</ele>
        <time>2014-04-13T08:39:57Z</time>
      </trkpt>
      <trkpt lat="44.47073" lon="2.81759">
        <ele>596.2</ele>
        <time>2014-04-13T08:40:00Z</time>
      </trkpt>
      <trkpt lat="44.4707" lon="2.81758">
        <ele>595.9</ele>
        <time>2014-04-13T08:40:01Z</time>
      </trkpt>
      <trkpt lat="44.47059" lon="2.81749">
        <ele>594</ele>
        <time>2014-04-13T08:40:08Z</time>
      </trkpt>
      <trkpt lat="44.47053" lon="2.8174">
        <ele>593.1</ele>
        <time>2014-04-13T08:40:16Z</time>
      </trkpt>
      <trkpt lat="44.47049" lon="2.81729">
        <ele>591.6</ele>
        <time>2014-04-13T08:40:23Z</time>
      </trkpt>
      <trkpt lat="44.47048" lon="2.81718">
        <ele>591.2</ele>
        <time>2014-04-13T08:40:28Z</time>
      </trkpt>
      <trkpt lat="44.47048" lon="2.81706">
        <ele>590.4</ele>
        <time>2014-04-13T08:40:34Z</time>
      </trkpt>
      <trkpt lat="44.47045" lon="2.81696">
        <ele>589.4</ele>
        <time>2014-04-13T08:40:39Z</time>
      </trkpt>
      <trkpt lat="44.47037" lon="2.81692">
        <ele>589</ele>
        <time>2014-04-13T08:40:45Z</time>
      </trkpt>
      <trkpt lat="44.4703" lon="2.817">
        <ele>588.6</ele>
        <time>2014-04-13T08:40:52Z</time>
      </trkpt>
      <trkpt lat="44.47026" lon="2.8171">
        <ele>587.8</ele>
        <time>2014-04-13T08:40:59Z</time>
      </trkpt>
      <trkpt lat="44.47025" lon="2.81722">
        <ele>586.6</ele>
        <time>2014-04-13T08:41:06Z</time>
      </trkpt>
      <trkpt lat="44.47026" lon="2.81723">
        <ele>586.6</ele>
        <time>2014-04-13T08:41:07Z</time>
      </trkpt>
      <trkpt lat="44.47032" lon="2.81743">
        <ele>585.1</ele>
        <time>2014-04-13T08:41:20Z</time>
      </trkpt>
      <trkpt lat="44.47034" lon="2.81754">
        <ele>584.3</ele>
        <time>2014-04-13T08:41:25Z</time>
      </trkpt>
      <trkpt lat="44.47037" lon="2.81766">
        <ele>583.6</ele>
        <time>2014-04-13T08:41:31Z</time>
      </trkpt>
      <trkpt lat="44.47039" lon="2.81776">
        <ele>582.9</ele>
        <time>2014-04-13T08:41:36Z</time>
      </trkpt>
      <trkpt lat="44.47041" lon="2.81788">
        <ele>582.3</ele>
        <time>2014-04-13T08:41:41Z</time>
      </trkpt>
      <trkpt lat="44.47042" lon="2.81798">
        <ele>581.1</ele>
        <time>2014-04-13T08:41:45Z</time>
      </trkpt>
      <trkpt lat="44.47043" lon="2.8181">
        <ele>581.1</ele>
        <time>2014-04-13T08:41:49Z</time>
      </trkpt>
      <trkpt lat="44.47045" lon="2.8182">
        <ele>580.4</ele>
        <time>2014-04-13T08:41:54Z</time>
      </trkpt>
      <trkpt lat="44.47046" lon="2.81831">
        <ele>579.3</ele>
        <time>2014-04-13T08:41:58Z</time>
      </trkpt>
      <trkpt lat="44.47048" lon="2.81842">
        <ele>578.1</ele>
        <time>2014-04-13T08:42:03Z</time>
      </trkpt>
      <trkpt lat="44.47051" lon="2.81853">
        <ele>577.8</ele>
        <time>2014-04-13T08:42:08Z</time>
      </trkpt>
      <trkpt lat="44.47051" lon="2.81855">
        <ele>577.4</ele>
        <time>2014-04-13T08:42:09Z</time>
      </trkpt>
      <trkpt lat="44.47058" lon="2.81872">
        <ele>577.1</ele>
        <time>2014-04-13T08:42:18Z</time>
      </trkpt>
      <trkpt lat="44.47064" lon="2.81881">
        <ele>576.1</ele>
        <time>2014-04-13T08:42:24Z</time>
      </trkpt>
      <trkpt lat="44.47066" lon="2.81893">
        <ele>574</ele>
        <time>2014-04-13T08:42:32Z</time>
      </trkpt>
      <trkpt lat="44.47066" lon="2.81905">
        <ele>573.2</ele>
        <time>2014-04-13T08:42:38Z</time>
      </trkpt>
      <trkpt lat="44.47066" lon="2.81917">
        <ele>571.7</ele>
        <time>2014-04-13T08:42:45Z</time>
      </trkpt>
      <trkpt lat="44.47068" lon="2.81929">
        <ele>569.8</ele>
        <time>2014-04-13T08:42:51Z</time>
      </trkpt>
      <trkpt lat="44.47068" lon="2.8194">
        <ele>567.8</ele>
        <time>2014-04-13T08:42:56Z</time>
      </trkpt>
      <trkpt lat="44.4707" lon="2.81952">
        <ele>567.1</ele>
        <time>2014-04-13T08:43:02Z</time>
      </trkpt>
      <trkpt lat="44.47071" lon="2.81964">
        <ele>565.8</ele>
        <time>2014-04-13T08:43:09Z</time>
      </trkpt>
      <trkpt lat="44.4707" lon="2.81965">
        <ele>565.8</ele>
        <time>2014-04-13T08:43:10Z</time>
      </trkpt>
      <trkpt lat="44.47063" lon="2.81984">
        <ele>563.5</ele>
        <time>2014-04-13T08:43:26Z</time>
      </trkpt>
      <trkpt lat="44.47058" lon="2.81994">
        <ele>563.2</ele>
        <time>2014-04-13T08:43:33Z</time>
      </trkpt>
      <trkpt lat="44.47053" lon="2.82005">
        <ele>563.1</ele>
        <time>2014-04-13T08:43:44Z</time>
      </trkpt>
      <trkpt lat="44.4705" lon="2.82016">
        <ele>563.6</ele>
        <time>2014-04-13T08:43:58Z</time>
      </trkpt>
      <trkpt lat="44.47051" lon="2.82029">
        <ele>564.6</ele>
        <time>2014-04-13T08:44:06Z</time>
      </trkpt>
      <trkpt lat="44.4705" lon="2.8204">
        <ele>565.2</ele>
        <time>2014-04-13T08:44:12Z</time>
      </trkpt>
      <trkpt lat="44.4705" lon="2.82041">
        <ele>565.2</ele>
        <time>2014-04-13T08:44:13Z</time>
      </trkpt>
      <trkpt lat="44.47043" lon="2.82059">
        <ele>567.7</ele>
        <time>2014-04-13T08:44:24Z</time>
      </trkpt>
      <trkpt lat="44.47038" lon="2.82069">
        <ele>569.8</ele>
        <time>2014-04-13T08:44:30Z</time>
      </trkpt>
      <trkpt lat="44.47035" lon="2.8208">
        <ele>572.2</ele>
        <time>2014-04-13T08:44:35Z</time>
      </trkpt>
      <trkpt lat="44.4703" lon="2.82089">
        <ele>573.4</ele>
        <time>2014-04-13T08:44:41Z</time>
      </trkpt>
      <trkpt lat="44.47023" lon="2.82094">
        <ele>574.1</ele>
        <time>2014-04-13T08:44:46Z</time>
      </trkpt>
      <trkpt lat="44.47015" lon="2.82097">
        <ele>576.2</ele>
        <time>2014-04-13T08:44:52Z</time>
      </trkpt>
      <trkpt lat="44.47007" lon="2.82093">
        <ele>577.4</ele>
        <time>2014-04-13T08:44:58Z</time>
      </trkpt>
      <trkpt lat="44.47001" lon="2.82089">
        <ele>577</ele>
        <time>2014-04-13T08:45:01Z</time>
      </trkpt>
      <trkpt lat="44.46993" lon="2.82085">
        <ele>577.5</ele>
        <time>2014-04-13T08:45:04Z</time>
      </trkpt>
      <trkpt lat="44.46986" lon="2.82084">
        <ele>578.1</ele>
        <time>2014-04-13T08:45:07Z</time>
      </trkpt>
      <trkpt lat="44.46981" lon="2.82081">
        <ele>577.1</ele>
        <time>2014-04-13T08:45:09Z</time>
      </trkpt>
      <trkpt lat="44.46972" lon="2.82078">
        <ele>577.2</ele>
        <time>2014-04-13T08:45:12Z</time>
      </trkpt>
      <trkpt lat="44.46964" lon="2.82075">
        <ele>578.5</ele>
        <time>2014-04-13T08:45:16Z</time>
      </trkpt>
      <trkpt lat="44.46961" lon="2.82073">
        <ele>578.6</ele>
        <time>2014-04-13T08:45:17Z</time>
      </trkpt>
      <trkpt lat="44.46948" lon="2.82071">
        <ele>580.6</ele>
        <time>2014-04-13T08:45:22Z</time>
      </trkpt>
      <trkpt lat="44.46939" lon="2.82072">
        <ele>582.1</ele>
        <time>2014-04-13T08:45:25Z</time>
      </trkpt>
      <trkpt lat="44.46934" lon="2.82073">
        <ele>582.9</ele>
        <time>2014-04-13T08:45:27Z</time>
      </trkpt>
      <trkpt lat="44.46927" lon="2.82073">
        <ele>584.1</ele>
        <time>2014-04-13T08:45:29Z</time>
      </trkpt>
      <trkpt lat="44.4692" lon="2.82074">
        <ele>585.2</ele>
        <time>2014-04-13T08:45:31Z</time>
      </trkpt>
      <trkpt lat="44.46912" lon="2.82075">
        <ele>586.3</ele>
        <time>2014-04-13T08:45:34Z</time>
      </trkpt>
      <trkpt lat="44.46906" lon="2.82074">
        <ele>587.4</ele>
        <time>2014-04-13T08:45:36Z</time>
      </trkpt>
      <trkpt lat="44.46898" lon="2.82069">
        <ele>587.7</ele>
        <time>2014-04-13T08:45:38Z</time>
      </trkpt>
      <trkpt lat="44.46891" lon="2.82064">
        <ele>588.1</ele>
        <time>2014-04-13T08:45:40Z</time>
      </trkpt>
      <trkpt lat="44.46884" lon="2.82063">
        <ele>588</ele>
        <time>2014-04-13T08:45:42Z</time>
      </trkpt>
      <trkpt lat="44.46877" lon="2.82064">
        <ele>588.9</ele>
        <time>2014-04-13T08:45:44Z</time>
      </trkpt>
      <trkpt lat="44.46868" lon="2.82067">
        <ele>590.4</ele>
        <time>2014-04-13T08:45:47Z</time>
      </trkpt>
      <trkpt lat="44.4686" lon="2.8207">
        <ele>592.4</ele>
        <time>2014-04-13T08:45:50Z</time>
      </trkpt>
      <trkpt lat="44.46852" lon="2.82074">
        <ele>593.9</ele>
        <time>2014-04-13T08:45:53Z</time>
      </trkpt>
      <trkpt lat="44.46844" lon="2.82075">
        <ele>595.1</ele>
        <time>2014-04-13T08:45:56Z</time>
      </trkpt>
      <trkpt lat="44.46835" lon="2.82074">
        <ele>596.3</ele>
        <time>2014-04-13T08:45:59Z</time>
      </trkpt>
      <trkpt lat="44.46829" lon="2.82073">
        <ele>598.2</ele>
        <time>2014-04-13T08:46:01Z</time>
      </trkpt>
      <trkpt lat="44.46822" lon="2.82072">
        <ele>599.5</ele>
        <time>2014-04-13T08:46:03Z</time>
      </trkpt>
      <trkpt lat="44.46816" lon="2.82071">
        <ele>600.7</ele>
        <time>2014-04-13T08:46:05Z</time>
      </trkpt>
      <trkpt lat="44.46809" lon="2.82072">
        <ele>602</ele>
        <time>2014-04-13T08:46:07Z</time>
      </trkpt>
      <trkpt lat="44.46803" lon="2.82072">
        <ele>603</ele>
        <time>2014-04-13T08:46:09Z</time>
      </trkpt>
      <trkpt lat="44.46795" lon="2.82073">
        <ele>604.2</ele>
        <time>2014-04-13T08:46:12Z</time>
      </trkpt>
      <trkpt lat="44.46787" lon="2.82077">
        <ele>605.4</ele>
        <time>2014-04-13T08:46:15Z</time>
      </trkpt>
      <trkpt lat="44.46782" lon="2.82081">
        <ele>606</ele>
        <time>2014-04-13T08:46:17Z</time>
      </trkpt>
      <trkpt lat="44.46779" lon="2.82082">
        <ele>606.2</ele>
        <time>2014-04-13T08:46:18Z</time>
      </trkpt>
      <trkpt lat="44.46768" lon="2.82083">
        <ele>608.2</ele>
        <time>2014-04-13T08:46:22Z</time>
      </trkpt>
      <trkpt lat="44.46762" lon="2.8208">
        <ele>609.1</ele>
        <time>2014-04-13T08:46:24Z</time>
      </trkpt>
      <trkpt lat="44.46754" lon="2.82075">
        <ele>610</ele>
        <time>2014-04-13T08:46:26Z</time>
      </trkpt>
      <trkpt lat="44.46748" lon="2.82069">
        <ele>610.7</ele>
        <time>2014-04-13T08:46:28Z</time>
      </trkpt>
      <trkpt lat="44.46743" lon="2.82064">
        <ele>611.3</ele>
        <time>2014-04-13T08:46:30Z</time>
      </trkpt>
      <trkpt lat="44.46738" lon="2.82058">
        <ele>612.6</ele>
        <time>2014-04-13T08:46:32Z</time>
      </trkpt>
      <trkpt lat="44.46733" lon="2.82053">
        <ele>613.1</ele>
        <time>2014-04-13T08:46:34Z</time>
      </trkpt>
      <trkpt lat="44.46727" lon="2.82048">
        <ele>613.9</ele>
        <time>2014-04-13T08:46:36Z</time>
      </trkpt>
      <trkpt lat="44.46718" lon="2.82044">
        <ele>614.9</ele>
        <time>2014-04-13T08:46:39Z</time>
      </trkpt>
      <trkpt lat="44.46712" lon="2.82042">
        <ele>615.5</ele>
        <time>2014-04-13T08:46:41Z</time>
      </trkpt>
      <trkpt lat="44.46706" lon="2.82039">
        <ele>616.3</ele>
        <time>2014-04-13T08:46:43Z</time>
      </trkpt>
      <trkpt lat="44.46698" lon="2.82035">
        <ele>618.1</ele>
        <time>2014-04-13T08:46:46Z</time>
      </trkpt>
      <trkpt lat="44.46692" lon="2.82032">
        <ele>619.1</ele>
        <time>2014-04-13T08:46:48Z</time>
      </trkpt>
      <trkpt lat="44.46686" lon="2.82028">
        <ele>620.2</ele>
        <time>2014-04-13T08:46:50Z</time>
      </trkpt>
      <trkpt lat="44.46679" lon="2.82022">
        <ele>621.7</ele>
        <time>2014-04-13T08:46:53Z</time>
      </trkpt>
      <trkpt lat="44.46672" lon="2.82018">
        <ele>623.1</ele>
        <time>2014-04-13T08:46:56Z</time>
      </trkpt>
      <trkpt lat="44.46664" lon="2.82014">
        <ele>624.5</ele>
        <time>2014-04-13T08:46:59Z</time>
      </trkpt>
      <trkpt lat="44.46655" lon="2.82013">
        <ele>626.2</ele>
        <time>2014-04-13T08:47:02Z</time>
      </trkpt>
      <trkpt lat="44.46646" lon="2.82013">
        <ele>627.6</ele>
        <time>2014-04-13T08:47:05Z</time>
      </trkpt>
      <trkpt lat="44.4664" lon="2.82014">
        <ele>628.3</ele>
        <time>2014-04-13T08:47:07Z</time>
      </trkpt>
      <trkpt lat="44.46634" lon="2.82015">
        <ele>629.1</ele>
        <time>2014-04-13T08:47:09Z</time>
      </trkpt>
      <trkpt lat="44.46628" lon="2.82017">
        <ele>629.8</ele>
        <time>2014-04-13T08:47:11Z</time>
      </trkpt>
      <trkpt lat="44.4662" lon="2.82022">
        <ele>631.2</ele>
        <time>2014-04-13T08:47:14Z</time>
      </trkpt>
      <trkpt lat="44.46612" lon="2.82026">
        <ele>632.5</ele>
        <time>2014-04-13T08:47:17Z</time>
      </trkpt>
      <trkpt lat="44.46604" lon="2.8203">
        <ele>633.4</ele>
        <time>2014-04-13T08:47:20Z</time>
      </trkpt>
      <trkpt lat="44.46601" lon="2.82032">
        <ele>633.6</ele>
        <time>2014-04-13T08:47:21Z</time>
      </trkpt>
      <trkpt lat="44.46593" lon="2.82037">
        <ele>634.7</ele>
        <time>2014-04-13T08:47:24Z</time>
      </trkpt>
      <trkpt lat="44.46587" lon="2.82042">
        <ele>635.5</ele>
        <time>2014-04-13T08:47:26Z</time>
      </trkpt>
      <trkpt lat="44.46581" lon="2.82046">
        <ele>636</ele>
        <time>2014-04-13T08:47:28Z</time>
      </trkpt>
      <trkpt lat="44.46576" lon="2.82051">
        <ele>636.9</ele>
        <time>2014-04-13T08:47:30Z</time>
      </trkpt>
      <trkpt lat="44.46568" lon="2.82055">
        <ele>638.8</ele>
        <time>2014-04-13T08:47:33Z</time>
      </trkpt>
      <trkpt lat="44.46562" lon="2.82059">
        <ele>640</ele>
        <time>2014-04-13T08:47:35Z</time>
      </trkpt>
      <trkpt lat="44.46556" lon="2.82064">
        <ele>640.6</ele>
        <time>2014-04-13T08:47:37Z</time>
      </trkpt>
      <trkpt lat="44.4655" lon="2.82069">
        <ele>641.6</ele>
        <time>2014-04-13T08:47:39Z</time>
      </trkpt>
      <trkpt lat="44.46545" lon="2.82074">
        <ele>642.4</ele>
        <time>2014-04-13T08:47:41Z</time>
      </trkpt>
      <trkpt lat="44.46539" lon="2.82078">
        <ele>643.4</ele>
        <time>2014-04-13T08:47:43Z</time>
      </trkpt>
      <trkpt lat="44.46533" lon="2.82082">
        <ele>644.1</ele>
        <time>2014-04-13T08:47:45Z</time>
      </trkpt>
      <trkpt lat="44.46527" lon="2.82086">
        <ele>645.3</ele>
        <time>2014-04-13T08:47:47Z</time>
      </trkpt>
      <trkpt lat="44.46521" lon="2.8209">
        <ele>646.6</ele>
        <time>2014-04-13T08:47:49Z</time>
      </trkpt>
      <trkpt lat="44.46515" lon="2.82094">
        <ele>647.5</ele>
        <time>2014-04-13T08:47:51Z</time>
      </trkpt>
      <trkpt lat="44.46509" lon="2.82097">
        <ele>647.9</ele>
        <time>2014-04-13T08:47:53Z</time>
      </trkpt>
      <trkpt lat="44.46503" lon="2.821">
        <ele>648.9</ele>
        <time>2014-04-13T08:47:55Z</time>
      </trkpt>
      <trkpt lat="44.46497" lon="2.82103">
        <ele>649.2</ele>
        <time>2014-04-13T08:47:57Z</time>
      </trkpt>
      <trkpt lat="44.4649" lon="2.82105">
        <ele>649.7</ele>
        <time>2014-04-13T08:47:59Z</time>
      </trkpt>
      <trkpt lat="44.46484" lon="2.82107">
        <ele>650.4</ele>
        <time>2014-04-13T08:48:01Z</time>
      </trkpt>
      <trkpt lat="44.46478" lon="2.8211">
        <ele>651</ele>
        <time>2014-04-13T08:48:03Z</time>
      </trkpt>
      <trkpt lat="44.46472" lon="2.82114">
        <ele>651.2</ele>
        <time>2014-04-13T08:48:05Z</time>
      </trkpt>
      <trkpt lat="44.46466" lon="2.82118">
        <ele>651.7</ele>
        <time>2014-04-13T08:48:07Z</time>
      </trkpt>
      <trkpt lat="44.46461" lon="2.82122">
        <ele>652.6</ele>
        <time>2014-04-13T08:48:09Z</time>
      </trkpt>
      <trkpt lat="44.46453" lon="2.82128">
        <ele>653.8</ele>
        <time>2014-04-13T08:48:12Z</time>
      </trkpt>
      <trkpt lat="44.46448" lon="2.82134">
        <ele>653.7</ele>
        <time>2014-04-13T08:48:14Z</time>
      </trkpt>
      <trkpt lat="44.46442" lon="2.82142">
        <ele>654.5</ele>
        <time>2014-04-13T08:48:18Z</time>
      </trkpt>
      <trkpt lat="44.46436" lon="2.82151">
        <ele>655.6</ele>
        <time>2014-04-13T08:48:24Z</time>
      </trkpt>
      <trkpt lat="44.46435" lon="2.82153">
        <ele>655.5</ele>
        <time>2014-04-13T08:48:25Z</time>
      </trkpt>
      <trkpt lat="44.46426" lon="2.82171">
        <ele>656.7</ele>
        <time>2014-04-13T08:48:39Z</time>
      </trkpt>
      <trkpt lat="44.46422" lon="2.82181">
        <ele>657.8</ele>
        <time>2014-04-13T08:48:45Z</time>
      </trkpt>
      <trkpt lat="44.46419" lon="2.8219">
        <ele>657.7</ele>
        <time>2014-04-13T08:48:50Z</time>
      </trkpt>
      <trkpt lat="44.46415" lon="2.82201">
        <ele>658.3</ele>
        <time>2014-04-13T08:48:55Z</time>
      </trkpt>
      <trkpt lat="44.46412" lon="2.82212">
        <ele>659.6</ele>
        <time>2014-04-13T08:49:01Z</time>
      </trkpt>
      <trkpt lat="44.46407" lon="2.82223">
        <ele>660.1</ele>
        <time>2014-04-13T08:49:08Z</time>
      </trkpt>
      <trkpt lat="44.46403" lon="2.82232">
        <ele>660.1</ele>
        <time>2014-04-13T08:49:14Z</time>
      </trkpt>
      <trkpt lat="44.46399" lon="2.82244">
        <ele>661.3</ele>
        <time>2014-04-13T08:49:21Z</time>
      </trkpt>
      <trkpt lat="44.46396" lon="2.82255">
        <ele>661.1</ele>
        <time>2014-04-13T08:49:27Z</time>
      </trkpt>
      <trkpt lat="44.46396" lon="2.82256">
        <ele>661.1</ele>
        <time>2014-04-13T08:49:28Z</time>
      </trkpt>
      <trkpt lat="44.46391" lon="2.82275">
        <ele>661.9</ele>
        <time>2014-04-13T08:49:38Z</time>
      </trkpt>
      <trkpt lat="44.46387" lon="2.82284">
        <ele>662.8</ele>
        <time>2014-04-13T08:49:43Z</time>
      </trkpt>
      <trkpt lat="44.46383" lon="2.82293">
        <ele>663.4</ele>
        <time>2014-04-13T08:49:47Z</time>
      </trkpt>
      <trkpt lat="44.46378" lon="2.82303">
        <ele>664.3</ele>
        <time>2014-04-13T08:49:52Z</time>
      </trkpt>
      <trkpt lat="44.46373" lon="2.82313">
        <ele>664.6</ele>
        <time>2014-04-13T08:49:57Z</time>
      </trkpt>
      <trkpt lat="44.46368" lon="2.82322">
        <ele>664.9</ele>
        <time>2014-04-13T08:50:02Z</time>
      </trkpt>
      <trkpt lat="44.46363" lon="2.82331">
        <ele>664.9</ele>
        <time>2014-04-13T08:50:07Z</time>
      </trkpt>
      <trkpt lat="44.46357" lon="2.82339">
        <ele>665.2</ele>
        <time>2014-04-13T08:50:12Z</time>
      </trkpt>
      <trkpt lat="44.46351" lon="2.82348">
        <ele>665.2</ele>
        <time>2014-04-13T08:50:17Z</time>
      </trkpt>
      <trkpt lat="44.46345" lon="2.82357">
        <ele>665.3</ele>
        <time>2014-04-13T08:50:22Z</time>
      </trkpt>
      <trkpt lat="44.46339" lon="2.82367">
        <ele>665.2</ele>
        <time>2014-04-13T08:50:27Z</time>
      </trkpt>
      <trkpt lat="44.46333" lon="2.82376">
        <ele>664</ele>
        <time>2014-04-13T08:50:32Z</time>
      </trkpt>
      <trkpt lat="44.46332" lon="2.82377">
        <ele>664.1</ele>
        <time>2014-04-13T08:50:33Z</time>
      </trkpt>
      <trkpt lat="44.4632" lon="2.82389">
        <ele>664.2</ele>
        <time>2014-04-13T08:50:42Z</time>
      </trkpt>
      <trkpt lat="44.46313" lon="2.82395">
        <ele>664.4</ele>
        <time>2014-04-13T08:50:47Z</time>
      </trkpt>
      <trkpt lat="44.46306" lon="2.82398">
        <ele>664.8</ele>
        <time>2014-04-13T08:50:52Z</time>
      </trkpt>
      <trkpt lat="44.46298" lon="2.82402">
        <ele>664.7</ele>
        <time>2014-04-13T08:50:57Z</time>
      </trkpt>
      <trkpt lat="44.46291" lon="2.82406">
        <ele>665.4</ele>
        <time>2014-04-13T08:51:02Z</time>
      </trkpt>
      <trkpt lat="44.46284" lon="2.8241">
        <ele>666.3</ele>
        <time>2014-04-13T08:51:07Z</time>
      </trkpt>
      <trkpt lat="44.46276" lon="2.82416">
        <ele>666.6</ele>
        <time>2014-04-13T08:51:13Z</time>
      </trkpt>
      <trkpt lat="44.4627" lon="2.82422">
        <ele>666.4</ele>
        <time>2014-04-13T08:51:18Z</time>
      </trkpt>
      <trkpt lat="44.46262" lon="2.82426">
        <ele>665.9</ele>
        <time>2014-04-13T08:51:24Z</time>
      </trkpt>
      <trkpt lat="44.46256" lon="2.82431">
        <ele>666.6</ele>
        <time>2014-04-13T08:51:29Z</time>
      </trkpt>
      <trkpt lat="44.46247" lon="2.82435">
        <ele>665</ele>
        <time>2014-04-13T08:51:34Z</time>
      </trkpt>
      <trkpt lat="44.46246" lon="2.82436">
        <ele>664.9</ele>
        <time>2014-04-13T08:51:35Z</time>
      </trkpt>
      <trkpt lat="44.46232" lon="2.82443">
        <ele>665</ele>
        <time>2014-04-13T08:51:47Z</time>
      </trkpt>
      <trkpt lat="44.46225" lon="2.82447">
        <ele>664.9</ele>
        <time>2014-04-13T08:51:52Z</time>
      </trkpt>
      <trkpt lat="44.46218" lon="2.82451">
        <ele>664.1</ele>
        <time>2014-04-13T08:51:57Z</time>
      </trkpt>
      <trkpt lat="44.4621" lon="2.82453">
        <ele>664.4</ele>
        <time>2014-04-13T08:52:02Z</time>
      </trkpt>
      <trkpt lat="44.46203" lon="2.82457">
        <ele>664</ele>
        <time>2014-04-13T08:52:07Z</time>
      </trkpt>
      <trkpt lat="44.46194" lon="2.82461">
        <ele>663.8</ele>
        <time>2014-04-13T08:52:13Z</time>
      </trkpt>
      <trkpt lat="44.46186" lon="2.82467">
        <ele>662.7</ele>
        <time>2014-04-13T08:52:19Z</time>
      </trkpt>
      <trkpt lat="44.46179" lon="2.82473">
        <ele>661.9</ele>
        <time>2014-04-13T08:52:25Z</time>
      </trkpt>
      <trkpt lat="44.46173" lon="2.82481">
        <ele>660.8</ele>
        <time>2014-04-13T08:52:33Z</time>
      </trkpt>
      <trkpt lat="44.46168" lon="2.8249">
        <ele>660.2</ele>
        <time>2014-04-13T08:52:40Z</time>
      </trkpt>
      <trkpt lat="44.46168" lon="2.82491">
        <ele>660.4</ele>
        <time>2014-04-13T08:52:41Z</time>
      </trkpt>
      <trkpt lat="44.46158" lon="2.82508">
        <ele>659.4</ele>
        <time>2014-04-13T08:52:53Z</time>
      </trkpt>
      <trkpt lat="44.46154" lon="2.82519">
        <ele>658.1</ele>
        <time>2014-04-13T08:53:00Z</time>
      </trkpt>
      <trkpt lat="44.4616" lon="2.82528">
        <ele>657</ele>
        <time>2014-04-13T08:53:09Z</time>
      </trkpt>
      <trkpt lat="44.46167" lon="2.82533">
        <ele>657.4</ele>
        <time>2014-04-13T08:53:17Z</time>
      </trkpt>
      <trkpt lat="44.46175" lon="2.82536">
        <ele>657.4</ele>
        <time>2014-04-13T08:53:24Z</time>
      </trkpt>
      <trkpt lat="44.46183" lon="2.82539">
        <ele>656.7</ele>
        <time>2014-04-13T08:53:30Z</time>
      </trkpt>
      <trkpt lat="44.46192" lon="2.82541">
        <ele>656.5</ele>
        <time>2014-04-13T08:53:35Z</time>
      </trkpt>
      <trkpt lat="44.46201" lon="2.82543">
        <ele>656.9</ele>
        <time>2014-04-13T08:53:40Z</time>
      </trkpt>
      <trkpt lat="44.46208" lon="2.82544">
        <ele>656.9</ele>
        <time>2014-04-13T08:53:45Z</time>
      </trkpt>
      <trkpt lat="44.4621" lon="2.82545">
        <ele>656.8</ele>
        <time>2014-04-13T08:53:46Z</time>
      </trkpt>
      <trkpt lat="44.46224" lon="2.82551">
        <ele>656.8</ele>
        <time>2014-04-13T08:53:55Z</time>
      </trkpt>
      <trkpt lat="44.46232" lon="2.82555">
        <ele>656.2</ele>
        <time>2014-04-13T08:54:00Z</time>
      </trkpt>
      <trkpt lat="44.4624" lon="2.82558">
        <ele>656.2</ele>
        <time>2014-04-13T08:54:05Z</time>
      </trkpt>
      <trkpt lat="44.46247" lon="2.82562">
        <ele>656.5</ele>
        <time>2014-04-13T08:54:10Z</time>
      </trkpt>
      <trkpt lat="44.46256" lon="2.82565">
        <ele>655.8</ele>
        <time>2014-04-13T08:54:16Z</time>
      </trkpt>
      <trkpt lat="44.46263" lon="2.82569">
        <ele>655.6</ele>
        <time>2014-04-13T08:54:22Z</time>
      </trkpt>
      <trkpt lat="44.46272" lon="2.82571">
        <ele>654.4</ele>
        <time>2014-04-13T08:54:29Z</time>
      </trkpt>
      <trkpt lat="44.4628" lon="2.82575">
        <ele>654.3</ele>
        <time>2014-04-13T08:54:34Z</time>
      </trkpt>
      <trkpt lat="44.46288" lon="2.82577">
        <ele>654.4</ele>
        <time>2014-04-13T08:54:40Z</time>
      </trkpt>
      <trkpt lat="44.46296" lon="2.82582">
        <ele>654.2</ele>
        <time>2014-04-13T08:54:46Z</time>
      </trkpt>
      <trkpt lat="44.46298" lon="2.82582">
        <ele>654.3</ele>
        <time>2014-04-13T08:54:47Z</time>
      </trkpt>
      <trkpt lat="44.46313" lon="2.82585">
        <ele>654.5</ele>
        <time>2014-04-13T08:54:56Z</time>
      </trkpt>
      <trkpt lat="44.46321" lon="2.82588">
        <ele>654</ele>
        <time>2014-04-13T08:55:01Z</time>
      </trkpt>
      <trkpt lat="44.46329" lon="2.82591">
        <ele>653.6</ele>
        <time>2014-04-13T08:55:07Z</time>
      </trkpt>
      <trkpt lat="44.46337" lon="2.82593">
        <ele>653.8</ele>
        <time>2014-04-13T08:55:12Z</time>
      </trkpt>
      <trkpt lat="44.46345" lon="2.82595">
        <ele>653.1</ele>
        <time>2014-04-13T08:55:16Z</time>
      </trkpt>
      <trkpt lat="44.46352" lon="2.82597">
        <ele>653.8</ele>
        <time>2014-04-13T08:55:21Z</time>
      </trkpt>
      <trkpt lat="44.46359" lon="2.826">
        <ele>654</ele>
        <time>2014-04-13T08:55:25Z</time>
      </trkpt>
      <trkpt lat="44.46366" lon="2.82605">
        <ele>653.4</ele>
        <time>2014-04-13T08:55:29Z</time>
      </trkpt>
      <trkpt lat="44.46373" lon="2.8261">
        <ele>653.9</ele>
        <time>2014-04-13T08:55:33Z</time>
      </trkpt>
      <trkpt lat="44.46381" lon="2.82615">
        <ele>653.2</ele>
        <time>2014-04-13T08:55:38Z</time>
      </trkpt>
      <trkpt lat="44.46388" lon="2.8262">
        <ele>653.4</ele>
        <time>2014-04-13T08:55:42Z</time>
      </trkpt>
      <trkpt lat="44.46394" lon="2.82625">
        <ele>653.8</ele>
        <time>2014-04-13T08:55:46Z</time>
      </trkpt>
      <trkpt lat="44.46402" lon="2.8263">
        <ele>654.5</ele>
        <time>2014-04-13T08:55:51Z</time>
      </trkpt>
      <trkpt lat="44.46404" lon="2.8263">
        <ele>654.4</ele>
        <time>2014-04-13T08:55:52Z</time>
      </trkpt>
      <trkpt lat="44.46417" lon="2.82638">
        <ele>654.4</ele>
        <time>2014-04-13T08:56:00Z</time>
      </trkpt>
      <trkpt lat="44.46425" lon="2.82643">
        <ele>655.3</ele>
        <time>2014-04-13T08:56:05Z</time>
      </trkpt>
      <trkpt lat="44.46432" lon="2.82647">
        <ele>655</ele>
        <time>2014-04-13T08:56:10Z</time>
      </trkpt>
      <trkpt lat="44.46439" lon="2.82653">
        <ele>654.7</ele>
        <time>2014-04-13T08:56:14Z</time>
      </trkpt>
      <trkpt lat="44.46445" lon="2.82657">
        <ele>655.3</ele>
        <time>2014-04-13T08:56:16Z</time>
      </trkpt>
      <trkpt lat="44.46451" lon="2.8266">
        <ele>655.7</ele>
        <time>2014-04-13T08:56:18Z</time>
      </trkpt>
      <trkpt lat="44.46457" lon="2.82664">
        <ele>656</ele>
        <time>2014-04-13T08:56:20Z</time>
      </trkpt>
      <trkpt lat="44.46463" lon="2.82669">
        <ele>656.3</ele>
        <time>2014-04-13T08:56:22Z</time>
      </trkpt>
      <trkpt lat="44.46469" lon="2.82673">
        <ele>656.5</ele>
        <time>2014-04-13T08:56:24Z</time>
      </trkpt>
      <trkpt lat="44.46477" lon="2.82678">
        <ele>656.6</ele>
        <time>2014-04-13T08:56:26Z</time>
      </trkpt>
      <trkpt lat="44.46484" lon="2.82682">
        <ele>656.8</ele>
        <time>2014-04-13T08:56:28Z</time>
      </trkpt>
      <trkpt lat="44.46492" lon="2.82686">
        <ele>657.2</ele>
        <time>2014-04-13T08:56:30Z</time>
      </trkpt>
      <trkpt lat="44.46499" lon="2.82691">
        <ele>658.2</ele>
        <time>2014-04-13T08:56:32Z</time>
      </trkpt>
      <trkpt lat="44.46506" lon="2.82696">
        <ele>658.5</ele>
        <time>2014-04-13T08:56:34Z</time>
      </trkpt>
      <trkpt lat="44.46513" lon="2.827">
        <ele>658.8</ele>
        <time>2014-04-13T08:56:36Z</time>
      </trkpt>
      <trkpt lat="44.4652" lon="2.82705">
        <ele>659.3</ele>
        <time>2014-04-13T08:56:38Z</time>
      </trkpt>
      <trkpt lat="44.46527" lon="2.8271">
        <ele>659.7</ele>
        <time>2014-04-13T08:56:40Z</time>
      </trkpt>
      <trkpt lat="44.46534" lon="2.82715">
        <ele>660.1</ele>
        <time>2014-04-13T08:56:42Z</time>
      </trkpt>
      <trkpt lat="44.46542" lon="2.8272">
        <ele>660.3</ele>
        <time>2014-04-13T08:56:44Z</time>
      </trkpt>
      <trkpt lat="44.46549" lon="2.82724">
        <ele>660.1</ele>
        <time>2014-04-13T08:56:46Z</time>
      </trkpt>
      <trkpt lat="44.46555" lon="2.82728">
        <ele>659.9</ele>
        <time>2014-04-13T08:56:48Z</time>
      </trkpt>
      <trkpt lat="44.46561" lon="2.82731">
        <ele>659.4</ele>
        <time>2014-04-13T08:56:50Z</time>
      </trkpt>
      <trkpt lat="44.46567" lon="2.82735">
        <ele>658.5</ele>
        <time>2014-04-13T08:56:52Z</time>
      </trkpt>
      <trkpt lat="44.4657" lon="2.82736">
        <ele>658.4</ele>
        <time>2014-04-13T08:56:53Z</time>
      </trkpt>
      <trkpt lat="44.46582" lon="2.8274">
        <ele>659</ele>
        <time>2014-04-13T08:56:56Z</time>
      </trkpt>
      <trkpt lat="44.46589" lon="2.82743">
        <ele>658.7</ele>
        <time>2014-04-13T08:56:58Z</time>
      </trkpt>
      <trkpt lat="44.46596" lon="2.82746">
        <ele>657.9</ele>
        <time>2014-04-13T08:57:00Z</time>
      </trkpt>
      <trkpt lat="44.46603" lon="2.82749">
        <ele>657.1</ele>
        <time>2014-04-13T08:57:02Z</time>
      </trkpt>
      <trkpt lat="44.4661" lon="2.82751">
        <ele>656.4</ele>
        <time>2014-04-13T08:57:04Z</time>
      </trkpt>
      <trkpt lat="44.46617" lon="2.82757">
        <ele>656.1</ele>
        <time>2014-04-13T08:57:06Z</time>
      </trkpt>
      <trkpt lat="44.46624" lon="2.82762">
        <ele>656.6</ele>
        <time>2014-04-13T08:57:08Z</time>
      </trkpt>
      <trkpt lat="44.46631" lon="2.82768">
        <ele>656.4</ele>
        <time>2014-04-13T08:57:10Z</time>
      </trkpt>
      <trkpt lat="44.46637" lon="2.82775">
        <ele>656.2</ele>
        <time>2014-04-13T08:57:12Z</time>
      </trkpt>
      <trkpt lat="44.46642" lon="2.82782">
        <ele>656.2</ele>
        <time>2014-04-13T08:57:14Z</time>
      </trkpt>
      <trkpt lat="44.46644" lon="2.82787">
        <ele>656.2</ele>
        <time>2014-04-13T08:57:15Z</time>
      </trkpt>
      <trkpt lat="44.46649" lon="2.82798">
        <ele>656.1</ele>
        <time>2014-04-13T08:57:17Z</time>
      </trkpt>
      <trkpt lat="44.46653" lon="2.82809">
        <ele>655.7</ele>
        <time>2014-04-13T08:57:19Z</time>
      </trkpt>
      <trkpt lat="44.46655" lon="2.8282">
        <ele>655.5</ele>
        <time>2014-04-13T08:57:21Z</time>
      </trkpt>
      <trkpt lat="44.46656" lon="2.8283">
        <ele>655.5</ele>
        <time>2014-04-13T08:57:23Z</time>
      </trkpt>
      <trkpt lat="44.46655" lon="2.82841">
        <ele>655.1</ele>
        <time>2014-04-13T08:57:25Z</time>
      </trkpt>
      <trkpt lat="44.46655" lon="2.82853">
        <ele>655.6</ele>
        <time>2014-04-13T08:57:27Z</time>
      </trkpt>
      <trkpt lat="44.46655" lon="2.82864">
        <ele>655.5</ele>
        <time>2014-04-13T08:57:29Z</time>
      </trkpt>
      <trkpt lat="44.46655" lon="2.82875">
        <ele>655.7</ele>
        <time>2014-04-13T08:57:31Z</time>
      </trkpt>
      <trkpt lat="44.46654" lon="2.82885">
        <ele>655.9</ele>
        <time>2014-04-13T08:57:33Z</time>
      </trkpt>
      <trkpt lat="44.46654" lon="2.82897">
        <ele>655.9</ele>
        <time>2014-04-13T08:57:35Z</time>
      </trkpt>
      <trkpt lat="44.46655" lon="2.82908">
        <ele>656.3</ele>
        <time>2014-04-13T08:57:37Z</time>
      </trkpt>
      <trkpt lat="44.46656" lon="2.82918">
        <ele>656.1</ele>
        <time>2014-04-13T08:57:39Z</time>
      </trkpt>
      <trkpt lat="44.46659" lon="2.82928">
        <ele>655.4</ele>
        <time>2014-04-13T08:57:41Z</time>
      </trkpt>
      <trkpt lat="44.46662" lon="2.82937">
        <ele>655.4</ele>
        <time>2014-04-13T08:57:43Z</time>
      </trkpt>
      <trkpt lat="44.46665" lon="2.82945">
        <ele>655.8</ele>
        <time>2014-04-13T08:57:45Z</time>
      </trkpt>
      <trkpt lat="44.4667" lon="2.82953">
        <ele>656.2</ele>
        <time>2014-04-13T08:57:48Z</time>
      </trkpt>
      <trkpt lat="44.46676" lon="2.8296">
        <ele>655.5</ele>
        <time>2014-04-13T08:57:53Z</time>
      </trkpt>
      <trkpt lat="44.46677" lon="2.82961">
        <ele>655.3</ele>
        <time>2014-04-13T08:57:54Z</time>
      </trkpt>
      <trkpt lat="44.46691" lon="2.82969">
        <ele>653.4</ele>
        <time>2014-04-13T08:58:06Z</time>
      </trkpt>
      <trkpt lat="44.46699" lon="2.82972">
        <ele>652.3</ele>
        <time>2014-04-13T08:58:12Z</time>
      </trkpt>
      <trkpt lat="44.46708" lon="2.82974">
        <ele>652.1</ele>
        <time>2014-04-13T08:58:17Z</time>
      </trkpt>
      <trkpt lat="44.46716" lon="2.82976">
        <ele>651.1</ele>
        <time>2014-04-13T08:58:22Z</time>
      </trkpt>
      <trkpt lat="44.46724" lon="2.82978">
        <ele>649.8</ele>
        <time>2014-04-13T08:58:27Z</time>
      </trkpt>
      <trkpt lat="44.46731" lon="2.82981">
        <ele>649.2</ele>
        <time>2014-04-13T08:58:31Z</time>
      </trkpt>
      <trkpt lat="44.46738" lon="2.82985">
        <ele>648.8</ele>
        <time>2014-04-13T08:58:35Z</time>
      </trkpt>
      <trkpt lat="44.46744" lon="2.82988">
        <ele>648.4</ele>
        <time>2014-04-13T08:58:39Z</time>
      </trkpt>
      <trkpt lat="44.46753" lon="2.82992">
        <ele>648</ele>
        <time>2014-04-13T08:58:44Z</time>
      </trkpt>
      <trkpt lat="44.4676" lon="2.82999">
        <ele>647.4</ele>
        <time>2014-04-13T08:58:51Z</time>
      </trkpt>
      <trkpt lat="44.46768" lon="2.83006">
        <ele>646.6</ele>
        <time>2014-04-13T08:59:13Z</time>
      </trkpt>
      <trkpt lat="44.46768" lon="2.83006">
        <ele>646.5</ele>
        <time>2014-04-13T08:59:14Z</time>
      </trkpt>
      <trkpt lat="44.46778" lon="2.83025">
        <ele>645.4</ele>
        <time>2014-04-13T09:00:26Z</time>
      </trkpt>
      <trkpt lat="44.46779" lon="2.83026">
        <ele>645.1</ele>
        <time>2014-04-13T09:00:27Z</time>
      </trkpt>
      <trkpt lat="44.46794" lon="2.8303">
        <ele>642.7</ele>
        <time>2014-04-13T09:00:38Z</time>
      </trkpt>
      <trkpt lat="44.46801" lon="2.83032">
        <ele>642.5</ele>
        <time>2014-04-13T09:00:42Z</time>
      </trkpt>
      <trkpt lat="44.46808" lon="2.83037">
        <ele>641.1</ele>
        <time>2014-04-13T09:00:46Z</time>
      </trkpt>
      <trkpt lat="44.46816" lon="2.83041">
        <ele>641.2</ele>
        <time>2014-04-13T09:00:51Z</time>
      </trkpt>
      <trkpt lat="44.46824" lon="2.83046">
        <ele>640.1</ele>
        <time>2014-04-13T09:00:56Z</time>
      </trkpt>
      <trkpt lat="44.46831" lon="2.83049">
        <ele>639.7</ele>
        <time>2014-04-13T09:01:00Z</time>
      </trkpt>
      <trkpt lat="44.46839" lon="2.83052">
        <ele>639.4</ele>
        <time>2014-04-13T09:01:05Z</time>
      </trkpt>
      <trkpt lat="44.46847" lon="2.83055">
        <ele>639.2</ele>
        <time>2014-04-13T09:01:10Z</time>
      </trkpt>
      <trkpt lat="44.46854" lon="2.8306">
        <ele>638.2</ele>
        <time>2014-04-13T09:01:14Z</time>
      </trkpt>
      <trkpt lat="44.46859" lon="2.83068">
        <ele>637.2</ele>
        <time>2014-04-13T09:01:22Z</time>
      </trkpt>
      <trkpt lat="44.46864" lon="2.83078">
        <ele>637.7</ele>
        <time>2014-04-13T09:01:27Z</time>
      </trkpt>
      <trkpt lat="44.46866" lon="2.83079">
        <ele>637.5</ele>
        <time>2014-04-13T09:01:28Z</time>
      </trkpt>
      <trkpt lat="44.46878" lon="2.8309">
        <ele>637.4</ele>
        <time>2014-04-13T09:01:36Z</time>
      </trkpt>
      <trkpt lat="44.46884" lon="2.83096">
        <ele>637.6</ele>
        <time>2014-04-13T09:01:40Z</time>
      </trkpt>
      <trkpt lat="44.4689" lon="2.83102">
        <ele>637.7</ele>
        <time>2014-04-13T09:01:44Z</time>
      </trkpt>
      <trkpt lat="44.46896" lon="2.83109">
        <ele>637.9</ele>
        <time>2014-04-13T09:01:48Z</time>
      </trkpt>
      <trkpt lat="44.46903" lon="2.83116">
        <ele>638.3</ele>
        <time>2014-04-13T09:01:53Z</time>
      </trkpt>
      <trkpt lat="44.46909" lon="2.83123">
        <ele>638.9</ele>
        <time>2014-04-13T09:02:01Z</time>
      </trkpt>
      <trkpt lat="44.46916" lon="2.8313">
        <ele>639.6</ele>
        <time>2014-04-13T09:02:07Z</time>
      </trkpt>
      <trkpt lat="44.46923" lon="2.83136">
        <ele>639.6</ele>
        <time>2014-04-13T09:02:12Z</time>
      </trkpt>
      <trkpt lat="44.46929" lon="2.83142">
        <ele>640.2</ele>
        <time>2014-04-13T09:02:17Z</time>
      </trkpt>
      <trkpt lat="44.46936" lon="2.83148">
        <ele>640</ele>
        <time>2014-04-13T09:02:22Z</time>
      </trkpt>
      <trkpt lat="44.46942" lon="2.83155">
        <ele>641.2</ele>
        <time>2014-04-13T09:02:27Z</time>
      </trkpt>
      <trkpt lat="44.46949" lon="2.83161">
        <ele>641.4</ele>
        <time>2014-04-13T09:02:32Z</time>
      </trkpt>
      <trkpt lat="44.46951" lon="2.83163">
        <ele>641.4</ele>
        <time>2014-04-13T09:02:33Z</time>
      </trkpt>
      <trkpt lat="44.46963" lon="2.83174">
        <ele>642.6</ele>
        <time>2014-04-13T09:02:42Z</time>
      </trkpt>
      <trkpt lat="44.4697" lon="2.83181">
        <ele>642.9</ele>
        <time>2014-04-13T09:02:47Z</time>
      </trkpt>
      <trkpt lat="44.46977" lon="2.83188">
        <ele>644.1</ele>
        <time>2014-04-13T09:02:52Z</time>
      </trkpt>
      <trkpt lat="44.46982" lon="2.83196">
        <ele>644.6</ele>
        <time>2014-04-13T09:02:57Z</time>
      </trkpt>
      <trkpt lat="44.46985" lon="2.83206">
        <ele>644.9</ele>
        <time>2014-04-13T09:03:03Z</time>
      </trkpt>
      <trkpt lat="44.46985" lon="2.83217">
        <ele>645.4</ele>
        <time>2014-04-13T09:03:08Z</time>
      </trkpt>
      <trkpt lat="44.46984" lon="2.83228">
        <ele>645.1</ele>
        <time>2014-04-13T09:03:13Z</time>
      </trkpt>
      <trkpt lat="44.46983" lon="2.8324">
        <ele>645</ele>
        <time>2014-04-13T09:03:19Z</time>
      </trkpt>
      <trkpt lat="44.46982" lon="2.8325">
        <ele>644.3</ele>
        <time>2014-04-13T09:03:24Z</time>
      </trkpt>
      <trkpt lat="44.46981" lon="2.83262">
        <ele>644.6</ele>
        <time>2014-04-13T09:03:29Z</time>
      </trkpt>
      <trkpt lat="44.46981" lon="2.83274">
        <ele>644.5</ele>
        <time>2014-04-13T09:03:34Z</time>
      </trkpt>
      <trkpt lat="44.46981" lon="2.83276">
        <ele>644.7</ele>
        <time>2014-04-13T09:03:35Z</time>
      </trkpt>
      <trkpt lat="44.46982" lon="2.83297">
        <ele>644.2</ele>
        <time>2014-04-13T09:03:44Z</time>
      </trkpt>
      <trkpt lat="44.46981" lon="2.83307">
        <ele>644.1</ele>
        <time>2014-04-13T09:03:48Z</time>
      </trkpt>
      <trkpt lat="44.46981" lon="2.83318">
        <ele>644.1</ele>
        <time>2014-04-13T09:03:52Z</time>
      </trkpt>
      <trkpt lat="44.46981" lon="2.83329">
        <ele>644.3</ele>
        <time>2014-04-13T09:03:57Z</time>
      </trkpt>
      <trkpt lat="44.46981" lon="2.83341">
        <ele>644.6</ele>
        <time>2014-04-13T09:04:02Z</time>
      </trkpt>
      <trkpt lat="44.4698" lon="2.83352">
        <ele>644.4</ele>
        <time>2014-04-13T09:04:06Z</time>
      </trkpt>
      <trkpt lat="44.46981" lon="2.83362">
        <ele>644.1</ele>
        <time>2014-04-13T09:04:10Z</time>
      </trkpt>
      <trkpt lat="44.46982" lon="2.83374">
        <ele>643.3</ele>
        <time>2014-04-13T09:04:15Z</time>
      </trkpt>
      <trkpt lat="44.46982" lon="2.83385">
        <ele>642.6</ele>
        <time>2014-04-13T09:04:20Z</time>
      </trkpt>
      <trkpt lat="44.46985" lon="2.83396">
        <ele>643.9</ele>
        <time>2014-04-13T09:04:26Z</time>
      </trkpt>
      <trkpt lat="44.46986" lon="2.83406">
        <ele>643.1</ele>
        <time>2014-04-13T09:04:31Z</time>
      </trkpt>
      <trkpt lat="44.46987" lon="2.83417">
        <ele>643.1</ele>
        <time>2014-04-13T09:04:36Z</time>
      </trkpt>
      <trkpt lat="44.46988" lon="2.83419">
        <ele>643.1</ele>
        <time>2014-04-13T09:04:37Z</time>
      </trkpt>
      <trkpt lat="44.4699" lon="2.83439">
        <ele>643.7</ele>
        <time>2014-04-13T09:04:46Z</time>
      </trkpt>
      <trkpt lat="44.4699" lon="2.8345">
        <ele>644.3</ele>
        <time>2014-04-13T09:04:51Z</time>
      </trkpt>
      <trkpt lat="44.46991" lon="2.83462">
        <ele>643.7</ele>
        <time>2014-04-13T09:04:56Z</time>
      </trkpt>
      <trkpt lat="44.46991" lon="2.83473">
        <ele>644.4</ele>
        <time>2014-04-13T09:05:01Z</time>
      </trkpt>
      <trkpt lat="44.46991" lon="2.83484">
        <ele>644.2</ele>
        <time>2014-04-13T09:05:07Z</time>
      </trkpt>
      <trkpt lat="44.46989" lon="2.83496">
        <ele>644.4</ele>
        <time>2014-04-13T09:05:13Z</time>
      </trkpt>
      <trkpt lat="44.46986" lon="2.83508">
        <ele>643.7</ele>
        <time>2014-04-13T09:05:18Z</time>
      </trkpt>
      <trkpt lat="44.46983" lon="2.83517">
        <ele>644.6</ele>
        <time>2014-04-13T09:05:22Z</time>
      </trkpt>
      <trkpt lat="44.46979" lon="2.83528">
        <ele>645.2</ele>
        <time>2014-04-13T09:05:27Z</time>
      </trkpt>
      <trkpt lat="44.46978" lon="2.83539">
        <ele>645.1</ele>
        <time>2014-04-13T09:05:33Z</time>
      </trkpt>
      <trkpt lat="44.46976" lon="2.83551">
        <ele>642.4</ele>
        <time>2014-04-13T09:05:38Z</time>
      </trkpt>
      <trkpt lat="44.46975" lon="2.83554">
        <ele>641.6</ele>
        <time>2014-04-13T09:05:39Z</time>
      </trkpt>
      <trkpt lat="44.46972" lon="2.83572">
        <ele>645.5</ele>
        <time>2014-04-13T09:05:46Z</time>
      </trkpt>
      <trkpt lat="44.46971" lon="2.83583">
        <ele>646.4</ele>
        <time>2014-04-13T09:05:50Z</time>
      </trkpt>
      <trkpt lat="44.46972" lon="2.83594">
        <ele>646.8</ele>
        <time>2014-04-13T09:05:54Z</time>
      </trkpt>
      <trkpt lat="44.46972" lon="2.83607">
        <ele>646.2</ele>
        <time>2014-04-13T09:05:59Z</time>
      </trkpt>
      <trkpt lat="44.46973" lon="2.83618">
        <ele>646.9</ele>
        <time>2014-04-13T09:06:04Z</time>
      </trkpt>
      <trkpt lat="44.46975" lon="2.8363">
        <ele>646.5</ele>
        <time>2014-04-13T09:06:09Z</time>
      </trkpt>
      <trkpt lat="44.46979" lon="2.83641">
        <ele>646.3</ele>
        <time>2014-04-13T09:06:14Z</time>
      </trkpt>
      <trkpt lat="44.46982" lon="2.83652">
        <ele>646</ele>
        <time>2014-04-13T09:06:19Z</time>
      </trkpt>
      <trkpt lat="44.46984" lon="2.83664">
        <ele>646.2</ele>
        <time>2014-04-13T09:06:24Z</time>
      </trkpt>
      <trkpt lat="44.46988" lon="2.83674">
        <ele>645.1</ele>
        <time>2014-04-13T09:06:29Z</time>
      </trkpt>
      <trkpt lat="44.46991" lon="2.83685">
        <ele>646.5</ele>
        <time>2014-04-13T09:06:36Z</time>
      </trkpt>
      <trkpt lat="44.46994" lon="2.83696">
        <ele>646.9</ele>
        <time>2014-04-13T09:06:43Z</time>
      </trkpt>
      <trkpt lat="44.46995" lon="2.83698">
        <ele>646.6</ele>
        <time>2014-04-13T09:06:44Z</time>
      </trkpt>
      <trkpt lat="44.47" lon="2.83719">
        <ele>646.1</ele>
        <time>2014-04-13T09:06:55Z</time>
      </trkpt>
      <trkpt lat="44.47001" lon="2.83729">
        <ele>645.5</ele>
        <time>2014-04-13T09:07:00Z</time>
      </trkpt>
      <trkpt lat="44.47003" lon="2.83741">
        <ele>644.9</ele>
        <time>2014-04-13T09:07:06Z</time>
      </trkpt>
      <trkpt lat="44.47005" lon="2.83753">
        <ele>644.5</ele>
        <time>2014-04-13T09:07:13Z</time>
      </trkpt>
      <trkpt lat="44.47005" lon="2.83764">
        <ele>644.4</ele>
        <time>2014-04-13T09:07:19Z</time>
      </trkpt>
      <trkpt lat="44.47006" lon="2.83775">
        <ele>643.7</ele>
        <time>2014-04-13T09:07:25Z</time>
      </trkpt>
      <trkpt lat="44.47007" lon="2.83787">
        <ele>643.4</ele>
        <time>2014-04-13T09:07:31Z</time>
      </trkpt>
      <trkpt lat="44.47009" lon="2.83799">
        <ele>643.2</ele>
        <time>2014-04-13T09:07:37Z</time>
      </trkpt>
      <trkpt lat="44.4701" lon="2.83809">
        <ele>642.7</ele>
        <time>2014-04-13T09:07:42Z</time>
      </trkpt>
      <trkpt lat="44.47011" lon="2.8382">
        <ele>642.1</ele>
        <time>2014-04-13T09:07:47Z</time>
      </trkpt>
      <trkpt lat="44.47012" lon="2.83822">
        <ele>642.5</ele>
        <time>2014-04-13T09:07:48Z</time>
      </trkpt>
      <trkpt lat="44.47013" lon="2.83842">
        <ele>642.1</ele>
        <time>2014-04-13T09:07:57Z</time>
      </trkpt>
      <trkpt lat="44.47015" lon="2.83854">
        <ele>641.2</ele>
        <time>2014-04-13T09:08:03Z</time>
      </trkpt>
      <trkpt lat="44.47016" lon="2.83866">
        <ele>641.2</ele>
        <time>2014-04-13T09:08:08Z</time>
      </trkpt>
      <trkpt lat="44.47014" lon="2.83877">
        <ele>641</ele>
        <time>2014-04-13T09:08:15Z</time>
      </trkpt>
      <trkpt lat="44.47009" lon="2.83886">
        <ele>641.4</ele>
        <time>2014-04-13T09:08:21Z</time>
      </trkpt>
      <trkpt lat="44.47002" lon="2.83893">
        <ele>642.4</ele>
        <time>2014-04-13T09:08:28Z</time>
      </trkpt>
      <trkpt lat="44.46994" lon="2.83898">
        <ele>643.9</ele>
        <time>2014-04-13T09:08:34Z</time>
      </trkpt>
      <trkpt lat="44.46986" lon="2.83903">
        <ele>644.4</ele>
        <time>2014-04-13T09:08:39Z</time>
      </trkpt>
      <trkpt lat="44.46979" lon="2.83907">
        <ele>646.1</ele>
        <time>2014-04-13T09:08:44Z</time>
      </trkpt>
      <trkpt lat="44.46971" lon="2.8391">
        <ele>647.3</ele>
        <time>2014-04-13T09:08:49Z</time>
      </trkpt>
      <trkpt lat="44.46969" lon="2.8391">
        <ele>647.5</ele>
        <time>2014-04-13T09:08:50Z</time>
      </trkpt>
      <trkpt lat="44.46955" lon="2.83917">
        <ele>651.2</ele>
        <time>2014-04-13T09:09:01Z</time>
      </trkpt>
      <trkpt lat="44.46947" lon="2.83921">
        <ele>653.4</ele>
        <time>2014-04-13T09:09:07Z</time>
      </trkpt>
      <trkpt lat="44.46939" lon="2.83925">
        <ele>654</ele>
        <time>2014-04-13T09:09:13Z</time>
      </trkpt>
      <trkpt lat="44.46932" lon="2.83931">
        <ele>655.5</ele>
        <time>2014-04-13T09:09:19Z</time>
      </trkpt>
      <trkpt lat="44.46925" lon="2.83937">
        <ele>656.4</ele>
        <time>2014-04-13T09:09:24Z</time>
      </trkpt>
      <trkpt lat="44.46918" lon="2.83943">
        <ele>657.6</ele>
        <time>2014-04-13T09:09:30Z</time>
      </trkpt>
      <trkpt lat="44.4691" lon="2.83948">
        <ele>658.1</ele>
        <time>2014-04-13T09:09:35Z</time>
      </trkpt>
      <trkpt lat="44.46904" lon="2.83952">
        <ele>658.5</ele>
        <time>2014-04-13T09:09:38Z</time>
      </trkpt>
      <trkpt lat="44.46898" lon="2.83956">
        <ele>659.8</ele>
        <time>2014-04-13T09:09:41Z</time>
      </trkpt>
      <trkpt lat="44.46892" lon="2.83961">
        <ele>660.3</ele>
        <time>2014-04-13T09:09:44Z</time>
      </trkpt>
      <trkpt lat="44.46884" lon="2.83967">
        <ele>661.7</ele>
        <time>2014-04-13T09:09:47Z</time>
      </trkpt>
      <trkpt lat="44.46879" lon="2.83971">
        <ele>662.7</ele>
        <time>2014-04-13T09:09:49Z</time>
      </trkpt>
      <trkpt lat="44.46873" lon="2.83976">
        <ele>663.4</ele>
        <time>2014-04-13T09:09:51Z</time>
      </trkpt>
      <trkpt lat="44.4687" lon="2.83979">
        <ele>663.6</ele>
        <time>2014-04-13T09:09:52Z</time>
      </trkpt>
      <trkpt lat="44.46861" lon="2.83987">
        <ele>664.5</ele>
        <time>2014-04-13T09:09:55Z</time>
      </trkpt>
      <trkpt lat="44.46855" lon="2.83992">
        <ele>665.3</ele>
        <time>2014-04-13T09:09:57Z</time>
      </trkpt>
      <trkpt lat="44.4685" lon="2.83996">
        <ele>665.8</ele>
        <time>2014-04-13T09:09:59Z</time>
      </trkpt>
      <trkpt lat="44.46842" lon="2.84001">
        <ele>666.9</ele>
        <time>2014-04-13T09:10:02Z</time>
      </trkpt>
      <trkpt lat="44.46835" lon="2.84004">
        <ele>667.9</ele>
        <time>2014-04-13T09:10:04Z</time>
      </trkpt>
      <trkpt lat="44.46829" lon="2.84006">
        <ele>668.7</ele>
        <time>2014-04-13T09:10:06Z</time>
      </trkpt>
      <trkpt lat="44.46822" lon="2.84008">
        <ele>669.6</ele>
        <time>2014-04-13T09:10:08Z</time>
      </trkpt>
      <trkpt lat="44.46815" lon="2.8401">
        <ele>670.4</ele>
        <time>2014-04-13T09:10:10Z</time>
      </trkpt>
      <trkpt lat="44.46808" lon="2.84011">
        <ele>671</ele>
        <time>2014-04-13T09:10:12Z</time>
      </trkpt>
      <trkpt lat="44.468" lon="2.84014">
        <ele>671.5</ele>
        <time>2014-04-13T09:10:14Z</time>
      </trkpt>
      <trkpt lat="44.46791" lon="2.84016">
        <ele>671.9</ele>
        <time>2014-04-13T09:10:16Z</time>
      </trkpt>
      <trkpt lat="44.46784" lon="2.84018">
        <ele>673.5</ele>
        <time>2014-04-13T09:10:18Z</time>
      </trkpt>
      <trkpt lat="44.46776" lon="2.84022">
        <ele>674.2</ele>
        <time>2014-04-13T09:10:20Z</time>
      </trkpt>
      <trkpt lat="44.46768" lon="2.84025">
        <ele>674.8</ele>
        <time>2014-04-13T09:10:22Z</time>
      </trkpt>
      <trkpt lat="44.4676" lon="2.84028">
        <ele>675.6</ele>
        <time>2014-04-13T09:10:24Z</time>
      </trkpt>
      <trkpt lat="44.46752" lon="2.84032">
        <ele>676.1</ele>
        <time>2014-04-13T09:10:26Z</time>
      </trkpt>
      <trkpt lat="44.46744" lon="2.84038">
        <ele>676.6</ele>
        <time>2014-04-13T09:10:28Z</time>
      </trkpt>
      <trkpt lat="44.46737" lon="2.84043">
        <ele>677.4</ele>
        <time>2014-04-13T09:10:30Z</time>
      </trkpt>
      <trkpt lat="44.46733" lon="2.84045">
        <ele>677.8</ele>
        <time>2014-04-13T09:10:31Z</time>
      </trkpt>
      <trkpt lat="44.46728" lon="2.84048">
        <ele>678.1</ele>
        <time>2014-04-13T09:10:32Z</time>
      </trkpt>
      <trkpt lat="44.46722" lon="2.84052">
        <ele>678.3</ele>
        <time>2014-04-13T09:10:33Z</time>
      </trkpt>
      <trkpt lat="44.46715" lon="2.84056">
        <ele>678.6</ele>
        <time>2014-04-13T09:10:34Z</time>
      </trkpt>
      <trkpt lat="44.46709" lon="2.8406">
        <ele>678.8</ele>
        <time>2014-04-13T09:10:35Z</time>
      </trkpt>
      <trkpt lat="44.46703" lon="2.84063">
        <ele>679.5</ele>
        <time>2014-04-13T09:10:36Z</time>
      </trkpt>
      <trkpt lat="44.46696" lon="2.84065">
        <ele>680.1</ele>
        <time>2014-04-13T09:10:37Z</time>
      </trkpt>
      <trkpt lat="44.46688" lon="2.84066">
        <ele>680.5</ele>
        <time>2014-04-13T09:10:38Z</time>
      </trkpt>
      <trkpt lat="44.4668" lon="2.84066">
        <ele>681.2</ele>
        <time>2014-04-13T09:10:39Z</time>
      </trkpt>
      <trkpt lat="44.46671" lon="2.84066">
        <ele>681.7</ele>
        <time>2014-04-13T09:10:40Z</time>
      </trkpt>
      <trkpt lat="44.46662" lon="2.84066">
        <ele>682.2</ele>
        <time>2014-04-13T09:10:41Z</time>
      </trkpt>
      <trkpt lat="44.46653" lon="2.84066">
        <ele>682.5</ele>
        <time>2014-04-13T09:10:42Z</time>
      </trkpt>
      <trkpt lat="44.46645" lon="2.84067">
        <ele>683</ele>
        <time>2014-04-13T09:10:43Z</time>
      </trkpt>
      <trkpt lat="44.46637" lon="2.84067">
        <ele>683.3</ele>
        <time>2014-04-13T09:10:44Z</time>
      </trkpt>
      <trkpt lat="44.46628" lon="2.84068">
        <ele>683.6</ele>
        <time>2014-04-13T09:10:45Z</time>
      </trkpt>
      <trkpt lat="44.46619" lon="2.84069">
        <ele>684.4</ele>
        <time>2014-04-13T09:10:46Z</time>
      </trkpt>
      <trkpt lat="44.46608" lon="2.84071">
        <ele>685</ele>
        <time>2014-04-13T09:10:47Z</time>
      </trkpt>
      <trkpt lat="44.46598" lon="2.84074">
        <ele>685.3</ele>
        <time>2014-04-13T09:10:48Z</time>
      </trkpt>
      <trkpt lat="44.46588" lon="2.84078">
        <ele>685.6</ele>
        <time>2014-04-13T09:10:49Z</time>
      </trkpt>
      <trkpt lat="44.46579" lon="2.84082">
        <ele>685.6</ele>
        <time>2014-04-13T09:10:50Z</time>
      </trkpt>
      <trkpt lat="44.4657" lon="2.84086">
        <ele>685.6</ele>
        <time>2014-04-13T09:10:51Z</time>
      </trkpt>
      <trkpt lat="44.46562" lon="2.84091">
        <ele>685.6</ele>
        <time>2014-04-13T09:10:52Z</time>
      </trkpt>
      <trkpt lat="44.46553" lon="2.84095">
        <ele>686.2</ele>
        <time>2014-04-13T09:10:53Z</time>
      </trkpt>
      <trkpt lat="44.46545" lon="2.84101">
        <ele>686.7</ele>
        <time>2014-04-13T09:10:54Z</time>
      </trkpt>
      <trkpt lat="44.46536" lon="2.84106">
        <ele>687.1</ele>
        <time>2014-04-13T09:10:55Z</time>
      </trkpt>
      <trkpt lat="44.46527" lon="2.84112">
        <ele>687.4</ele>
        <time>2014-04-13T09:10:56Z</time>
      </trkpt>
      <trkpt lat="44.46518" lon="2.84116">
        <ele>687.7</ele>
        <time>2014-04-13T09:10:57Z</time>
      </trkpt>
      <trkpt lat="44.46508" lon="2.84119">
        <ele>687.6</ele>
        <time>2014-04-13T09:10:58Z</time>
      </trkpt>
      <trkpt lat="44.46498" lon="2.84124">
        <ele>687.5</ele>
        <time>2014-04-13T09:10:59Z</time>
      </trkpt>
      <trkpt lat="44.46487" lon="2.8413">
        <ele>687.6</ele>
        <time>2014-04-13T09:11:00Z</time>
      </trkpt>
      <trkpt lat="44.46477" lon="2.84137">
        <ele>687.7</ele>
        <time>2014-04-13T09:11:01Z</time>
      </trkpt>
      <trkpt lat="44.46467" lon="2.84144">
        <ele>687.6</ele>
        <time>2014-04-13T09:11:02Z</time>
      </trkpt>
      <trkpt lat="44.46456" lon="2.8415">
        <ele>687.5</ele>
        <time>2014-04-13T09:11:03Z</time>
      </trkpt>
      <trkpt lat="44.46446" lon="2.84155">
        <ele>687.5</ele>
        <time>2014-04-13T09:11:04Z</time>
      </trkpt>
      <trkpt lat="44.46437" lon="2.8416">
        <ele>687.9</ele>
        <time>2014-04-13T09:11:05Z</time>
      </trkpt>
      <trkpt lat="44.46428" lon="2.84165">
        <ele>688.1</ele>
        <time>2014-04-13T09:11:06Z</time>
      </trkpt>
      <trkpt lat="44.46419" lon="2.8417">
        <ele>688.5</ele>
        <time>2014-04-13T09:11:07Z</time>
      </trkpt>
      <trkpt lat="44.4641" lon="2.84174">
        <ele>688.8</ele>
        <time>2014-04-13T09:11:08Z</time>
      </trkpt>
      <trkpt lat="44.46401" lon="2.84179">
        <ele>689.2</ele>
        <time>2014-04-13T09:11:09Z</time>
      </trkpt>
      <trkpt lat="44.46392" lon="2.84184">
        <ele>689.5</ele>
        <time>2014-04-13T09:11:10Z</time>
      </trkpt>
      <trkpt lat="44.46384" lon="2.84189">
        <ele>689.7</ele>
        <time>2014-04-13T09:11:11Z</time>
      </trkpt>
      <trkpt lat="44.46375" lon="2.84195">
        <ele>690.3</ele>
        <time>2014-04-13T09:11:12Z</time>
      </trkpt>
      <trkpt lat="44.46368" lon="2.84201">
        <ele>690.7</ele>
        <time>2014-04-13T09:11:13Z</time>
      </trkpt>
      <trkpt lat="44.46359" lon="2.84206">
        <ele>690.7</ele>
        <time>2014-04-13T09:11:14Z</time>
      </trkpt>
      <trkpt lat="44.46351" lon="2.84211">
        <ele>690.7</ele>
        <time>2014-04-13T09:11:15Z</time>
      </trkpt>
      <trkpt lat="44.46344" lon="2.84214">
        <ele>690.7</ele>
        <time>2014-04-13T09:11:16Z</time>
      </trkpt>
      <trkpt lat="44.46338" lon="2.84218">
        <ele>690.7</ele>
        <time>2014-04-13T09:11:17Z</time>
      </trkpt>
      <trkpt lat="44.46332" lon="2.84222">
        <ele>690.7</ele>
        <time>2014-04-13T09:11:18Z</time>
      </trkpt>
      <trkpt lat="44.46328" lon="2.84226">
        <ele>690.8</ele>
        <time>2014-04-13T09:11:19Z</time>
      </trkpt>
      <trkpt lat="44.46321" lon="2.84233">
        <ele>690.9</ele>
        <time>2014-04-13T09:11:21Z</time>
      </trkpt>
      <trkpt lat="44.46315" lon="2.84241">
        <ele>690.7</ele>
        <time>2014-04-13T09:11:25Z</time>
      </trkpt>
      <trkpt lat="44.46309" lon="2.84247">
        <ele>691.4</ele>
        <time>2014-04-13T09:11:30Z</time>
      </trkpt>
      <trkpt lat="44.46303" lon="2.84252">
        <ele>691</ele>
        <time>2014-04-13T09:11:34Z</time>
      </trkpt>
      <trkpt lat="44.46297" lon="2.84257">
        <ele>691.1</ele>
        <time>2014-04-13T09:11:38Z</time>
      </trkpt>
      <trkpt lat="44.46291" lon="2.84263">
        <ele>691.5</ele>
        <time>2014-04-13T09:11:42Z</time>
      </trkpt>
      <trkpt lat="44.46283" lon="2.84269">
        <ele>691.1</ele>
        <time>2014-04-13T09:11:47Z</time>
      </trkpt>
      <trkpt lat="44.46276" lon="2.84275">
        <ele>690.8</ele>
        <time>2014-04-13T09:11:52Z</time>
      </trkpt>
      <trkpt lat="44.46269" lon="2.84283">
        <ele>691.7</ele>
        <time>2014-04-13T09:11:57Z</time>
      </trkpt>
      <trkpt lat="44.46268" lon="2.84285">
        <ele>691.8</ele>
        <time>2014-04-13T09:11:58Z</time>
      </trkpt>
      <trkpt lat="44.46254" lon="2.84294">
        <ele>691.8</ele>
        <time>2014-04-13T09:12:10Z</time>
      </trkpt>
      <trkpt lat="44.46247" lon="2.84301">
        <ele>691.9</ele>
        <time>2014-04-13T09:12:16Z</time>
      </trkpt>
      <trkpt lat="44.4624" lon="2.84308">
        <ele>692</ele>
        <time>2014-04-13T09:12:22Z</time>
      </trkpt>
      <trkpt lat="44.46233" lon="2.84316">
        <ele>692.5</ele>
        <time>2014-04-13T09:12:28Z</time>
      </trkpt>
      <trkpt lat="44.46226" lon="2.84322">
        <ele>692.3</ele>
        <time>2014-04-13T09:12:35Z</time>
      </trkpt>
      <trkpt lat="44.46219" lon="2.84328">
        <ele>692.2</ele>
        <time>2014-04-13T09:12:42Z</time>
      </trkpt>
      <trkpt lat="44.46212" lon="2.84334">
        <ele>692.4</ele>
        <time>2014-04-13T09:12:49Z</time>
      </trkpt>
      <trkpt lat="44.46206" lon="2.84341">
        <ele>692.8</ele>
        <time>2014-04-13T09:12:54Z</time>
      </trkpt>
      <trkpt lat="44.46199" lon="2.84347">
        <ele>693</ele>
        <time>2014-04-13T09:13:00Z</time>
      </trkpt>
      <trkpt lat="44.46197" lon="2.84348">
        <ele>693.1</ele>
        <time>2014-04-13T09:13:01Z</time>
      </trkpt>
      <trkpt lat="44.46184" lon="2.84353">
        <ele>693</ele>
        <time>2014-04-13T09:13:09Z</time>
      </trkpt>
      <trkpt lat="44.46176" lon="2.84358">
        <ele>692.5</ele>
        <time>2014-04-13T09:13:13Z</time>
      </trkpt>
      <trkpt lat="44.46169" lon="2.84364">
        <ele>693.2</ele>
        <time>2014-04-13T09:13:17Z</time>
      </trkpt>
      <trkpt lat="44.46161" lon="2.84369">
        <ele>692.6</ele>
        <time>2014-04-13T09:13:21Z</time>
      </trkpt>
      <trkpt lat="44.46154" lon="2.84374">
        <ele>692.8</ele>
        <time>2014-04-13T09:13:25Z</time>
      </trkpt>
      <trkpt lat="44.46149" lon="2.84381">
        <ele>692.3</ele>
        <time>2014-04-13T09:13:29Z</time>
      </trkpt>
      <trkpt lat="44.46142" lon="2.84388">
        <ele>693.2</ele>
        <time>2014-04-13T09:13:40Z</time>
      </trkpt>
      <trkpt lat="44.46134" lon="2.84393">
        <ele>693.2</ele>
        <time>2014-04-13T09:13:47Z</time>
      </trkpt>
      <trkpt lat="44.46127" lon="2.84401">
        <ele>693.2</ele>
        <time>2014-04-13T09:13:52Z</time>
      </trkpt>
      <trkpt lat="44.46121" lon="2.84405">
        <ele>692.8</ele>
        <time>2014-04-13T09:13:56Z</time>
      </trkpt>
      <trkpt lat="44.46114" lon="2.8441">
        <ele>692.5</ele>
        <time>2014-04-13T09:14:00Z</time>
      </trkpt>
      <trkpt lat="44.46107" lon="2.84415">
        <ele>692.8</ele>
        <time>2014-04-13T09:14:04Z</time>
      </trkpt>
      <trkpt lat="44.46106" lon="2.84417">
        <ele>693.2</ele>
        <time>2014-04-13T09:14:05Z</time>
      </trkpt>
      <trkpt lat="44.46094" lon="2.84427">
        <ele>692.7</ele>
        <time>2014-04-13T09:14:13Z</time>
      </trkpt>
      <trkpt lat="44.46087" lon="2.84433">
        <ele>692.6</ele>
        <time>2014-04-13T09:14:18Z</time>
      </trkpt>
      <trkpt lat="44.4608" lon="2.84439">
        <ele>692.8</ele>
        <time>2014-04-13T09:14:23Z</time>
      </trkpt>
      <trkpt lat="44.46073" lon="2.84444">
        <ele>692.4</ele>
        <time>2014-04-13T09:14:28Z</time>
      </trkpt>
      <trkpt lat="44.46065" lon="2.84449">
        <ele>692.3</ele>
        <time>2014-04-13T09:14:33Z</time>
      </trkpt>
      <trkpt lat="44.46059" lon="2.84455">
        <ele>692.9</ele>
        <time>2014-04-13T09:14:38Z</time>
      </trkpt>
      <trkpt lat="44.46052" lon="2.84462">
        <ele>692.5</ele>
        <time>2014-04-13T09:14:43Z</time>
      </trkpt>
      <trkpt lat="44.46045" lon="2.84468">
        <ele>692.6</ele>
        <time>2014-04-13T09:14:48Z</time>
      </trkpt>
      <trkpt lat="44.46039" lon="2.84474">
        <ele>692.8</ele>
        <time>2014-04-13T09:14:53Z</time>
      </trkpt>
      <trkpt lat="44.46031" lon="2.8448">
        <ele>692.6</ele>
        <time>2014-04-13T09:15:03Z</time>
      </trkpt>
      <trkpt lat="44.46024" lon="2.84487">
        <ele>692.9</ele>
        <time>2014-04-13T09:15:09Z</time>
      </trkpt>
      <trkpt lat="44.46023" lon="2.84489">
        <ele>693</ele>
        <time>2014-04-13T09:15:10Z</time>
      </trkpt>
      <trkpt lat="44.46012" lon="2.84502">
        <ele>694.4</ele>
        <time>2014-04-13T09:15:18Z</time>
      </trkpt>
      <trkpt lat="44.46006" lon="2.84507">
        <ele>692.6</ele>
        <time>2014-04-13T09:15:22Z</time>
      </trkpt>
      <trkpt lat="44.45997" lon="2.84508">
        <ele>692.1</ele>
        <time>2014-04-13T09:15:28Z</time>
      </trkpt>
      <trkpt lat="44.4599" lon="2.84505">
        <ele>692.3</ele>
        <time>2014-04-13T09:15:33Z</time>
      </trkpt>
      <trkpt lat="44.45983" lon="2.84499">
        <ele>691.4</ele>
        <time>2014-04-13T09:15:39Z</time>
      </trkpt>
      <trkpt lat="44.45979" lon="2.84488">
        <ele>691.7</ele>
        <time>2014-04-13T09:15:44Z</time>
      </trkpt>
      <trkpt lat="44.45975" lon="2.84477">
        <ele>691.2</ele>
        <time>2014-04-13T09:15:49Z</time>
      </trkpt>
      <trkpt lat="44.45972" lon="2.84467">
        <ele>691.7</ele>
        <time>2014-04-13T09:15:53Z</time>
      </trkpt>
      <trkpt lat="44.45968" lon="2.84455">
        <ele>691.6</ele>
        <time>2014-04-13T09:15:58Z</time>
      </trkpt>
      <trkpt lat="44.45965" lon="2.84446">
        <ele>691.6</ele>
        <time>2014-04-13T09:16:02Z</time>
      </trkpt>
      <trkpt lat="44.45961" lon="2.84435">
        <ele>691.1</ele>
        <time>2014-04-13T09:16:07Z</time>
      </trkpt>
      <trkpt lat="44.45957" lon="2.84425">
        <ele>690.9</ele>
        <time>2014-04-13T09:16:12Z</time>
      </trkpt>
      <trkpt lat="44.45957" lon="2.84423">
        <ele>690.6</ele>
        <time>2014-04-13T09:16:13Z</time>
      </trkpt>
      <trkpt lat="44.4595" lon="2.84404">
        <ele>690.9</ele>
        <time>2014-04-13T09:16:22Z</time>
      </trkpt>
      <trkpt lat="44.45945" lon="2.84396">
        <ele>689.7</ele>
        <time>2014-04-13T09:16:26Z</time>
      </trkpt>
      <trkpt lat="44.45939" lon="2.84388">
        <ele>690.2</ele>
        <time>2014-04-13T09:16:30Z</time>
      </trkpt>
      <trkpt lat="44.45933" lon="2.84382">
        <ele>689.3</ele>
        <time>2014-04-13T09:16:34Z</time>
      </trkpt>
      <trkpt lat="44.45926" lon="2.84375">
        <ele>688.5</ele>
        <time>2014-04-13T09:16:38Z</time>
      </trkpt>
      <trkpt lat="44.4592" lon="2.8437">
        <ele>687.4</ele>
        <time>2014-04-13T09:16:42Z</time>
      </trkpt>
      <trkpt lat="44.45914" lon="2.84364">
        <ele>687.5</ele>
        <time>2014-04-13T09:16:46Z</time>
      </trkpt>
      <trkpt lat="44.45908" lon="2.84359">
        <ele>687.5</ele>
        <time>2014-04-13T09:16:50Z</time>
      </trkpt>
      <trkpt lat="44.45901" lon="2.84354">
        <ele>686.9</ele>
        <time>2014-04-13T09:16:54Z</time>
      </trkpt>
      <trkpt lat="44.45895" lon="2.84349">
        <ele>685.8</ele>
        <time>2014-04-13T09:16:58Z</time>
      </trkpt>
      <trkpt lat="44.45888" lon="2.84344">
        <ele>685.3</ele>
        <time>2014-04-13T09:17:02Z</time>
      </trkpt>
      <trkpt lat="44.4588" lon="2.84338">
        <ele>684.1</ele>
        <time>2014-04-13T09:17:13Z</time>
      </trkpt>
      <trkpt lat="44.4588" lon="2.84337">
        <ele>684</ele>
        <time>2014-04-13T09:17:14Z</time>
      </trkpt>
      <trkpt lat="44.45865" lon="2.84326">
        <ele>682.9</ele>
        <time>2014-04-13T09:17:28Z</time>
      </trkpt>
      <trkpt lat="44.45859" lon="2.84322">
        <ele>682.2</ele>
        <time>2014-04-13T09:17:31Z</time>
      </trkpt>
      <trkpt lat="44.45854" lon="2.84318">
        <ele>681.9</ele>
        <time>2014-04-13T09:17:33Z</time>
      </trkpt>
      <trkpt lat="44.45848" lon="2.84314">
        <ele>681.3</ele>
        <time>2014-04-13T09:17:35Z</time>
      </trkpt>
      <trkpt lat="44.45841" lon="2.8431">
        <ele>680.4</ele>
        <time>2014-04-13T09:17:38Z</time>
      </trkpt>
      <trkpt lat="44.45833" lon="2.84305">
        <ele>680.1</ele>
        <time>2014-04-13T09:17:43Z</time>
      </trkpt>
      <trkpt lat="44.45825" lon="2.843">
        <ele>678.6</ele>
        <time>2014-04-13T09:17:48Z</time>
      </trkpt>
      <trkpt lat="44.45817" lon="2.84295">
        <ele>677.4</ele>
        <time>2014-04-13T09:17:53Z</time>
      </trkpt>
      <trkpt lat="44.45809" lon="2.84289">
        <ele>676.7</ele>
        <time>2014-04-13T09:17:58Z</time>
      </trkpt>
      <trkpt lat="44.45802" lon="2.84283">
        <ele>675.5</ele>
        <time>2014-04-13T09:18:03Z</time>
      </trkpt>
      <trkpt lat="44.45794" lon="2.84278">
        <ele>674.9</ele>
        <time>2014-04-13T09:18:08Z</time>
      </trkpt>
      <trkpt lat="44.45786" lon="2.84273">
        <ele>674.4</ele>
        <time>2014-04-13T09:18:13Z</time>
      </trkpt>
      <trkpt lat="44.45778" lon="2.84269">
        <ele>673.6</ele>
        <time>2014-04-13T09:18:18Z</time>
      </trkpt>
      <trkpt lat="44.45777" lon="2.84268">
        <ele>673.1</ele>
        <time>2014-04-13T09:18:19Z</time>
      </trkpt>
      <trkpt lat="44.45763" lon="2.8426">
        <ele>671</ele>
        <time>2014-04-13T09:18:28Z</time>
      </trkpt>
      <trkpt lat="44.45756" lon="2.84256">
        <ele>670.1</ele>
        <time>2014-04-13T09:18:33Z</time>
      </trkpt>
      <trkpt lat="44.4575" lon="2.84251">
        <ele>669.4</ele>
        <time>2014-04-13T09:18:37Z</time>
      </trkpt>
      <trkpt lat="44.45742" lon="2.84245">
        <ele>668.5</ele>
        <time>2014-04-13T09:18:42Z</time>
      </trkpt>
      <trkpt lat="44.45735" lon="2.8424">
        <ele>667.9</ele>
        <time>2014-04-13T09:18:46Z</time>
      </trkpt>
      <trkpt lat="44.45728" lon="2.84234">
        <ele>666.2</ele>
        <time>2014-04-13T09:18:53Z</time>
      </trkpt>
      <trkpt lat="44.45721" lon="2.84228">
        <ele>664.4</ele>
        <time>2014-04-13T09:19:00Z</time>
      </trkpt>
      <trkpt lat="44.45715" lon="2.84224">
        <ele>663.8</ele>
        <time>2014-04-13T09:19:02Z</time>
      </trkpt>
      <trkpt lat="44.45708" lon="2.84219">
        <ele>663.1</ele>
        <time>2014-04-13T09:19:04Z</time>
      </trkpt>
      <trkpt lat="44.45702" lon="2.84214">
        <ele>663.2</ele>
        <time>2014-04-13T09:19:06Z</time>
      </trkpt>
      <trkpt lat="44.45695" lon="2.84208">
        <ele>662.7</ele>
        <time>2014-04-13T09:19:10Z</time>
      </trkpt>
      <trkpt lat="44.45687" lon="2.84202">
        <ele>661.2</ele>
        <time>2014-04-13T09:19:15Z</time>
      </trkpt>
      <trkpt lat="44.4568" lon="2.84198">
        <ele>659.5</ele>
        <time>2014-04-13T09:19:20Z</time>
      </trkpt>
      <trkpt lat="44.45679" lon="2.84196">
        <ele>659.4</ele>
        <time>2014-04-13T09:19:21Z</time>
      </trkpt>
      <trkpt lat="44.45666" lon="2.84187">
        <ele>659.2</ele>
        <time>2014-04-13T09:19:32Z</time>
      </trkpt>
      <trkpt lat="44.45659" lon="2.84182">
        <ele>658.1</ele>
        <time>2014-04-13T09:19:37Z</time>
      </trkpt>
      <trkpt lat="44.45651" lon="2.84176">
        <ele>656.5</ele>
        <time>2014-04-13T09:19:42Z</time>
      </trkpt>
      <trkpt lat="44.45644" lon="2.8417">
        <ele>655.5</ele>
        <time>2014-04-13T09:19:47Z</time>
      </trkpt>
      <trkpt lat="44.45638" lon="2.84164">
        <ele>654.7</ele>
        <time>2014-04-13T09:19:52Z</time>
      </trkpt>
      <trkpt lat="44.45631" lon="2.84158">
        <ele>654.9</ele>
        <time>2014-04-13T09:19:57Z</time>
      </trkpt>
      <trkpt lat="44.45622" lon="2.84155">
        <ele>653.9</ele>
        <time>2014-04-13T09:20:03Z</time>
      </trkpt>
      <trkpt lat="44.45615" lon="2.84149">
        <ele>652.3</ele>
        <time>2014-04-13T09:20:10Z</time>
      </trkpt>
      <trkpt lat="44.45607" lon="2.84145">
        <ele>651.3</ele>
        <time>2014-04-13T09:20:15Z</time>
      </trkpt>
      <trkpt lat="44.45599" lon="2.8414">
        <ele>650.2</ele>
        <time>2014-04-13T09:20:20Z</time>
      </trkpt>
      <trkpt lat="44.45591" lon="2.84135">
        <ele>649.8</ele>
        <time>2014-04-13T09:20:25Z</time>
      </trkpt>
      <trkpt lat="44.4559" lon="2.84134">
        <ele>649.7</ele>
        <time>2014-04-13T09:20:26Z</time>
      </trkpt>
      <trkpt lat="44.45577" lon="2.84125">
        <ele>648.8</ele>
        <time>2014-04-13T09:20:35Z</time>
      </trkpt>
      <trkpt lat="44.45571" lon="2.84119">
        <ele>648.2</ele>
        <time>2014-04-13T09:20:40Z</time>
      </trkpt>
      <trkpt lat="44.45564" lon="2.84114">
        <ele>647.4</ele>
        <time>2014-04-13T09:20:45Z</time>
      </trkpt>
      <trkpt lat="44.45557" lon="2.84108">
        <ele>646.1</ele>
        <time>2014-04-13T09:20:50Z</time>
      </trkpt>
      <trkpt lat="44.4555" lon="2.84102">
        <ele>645.3</ele>
        <time>2014-04-13T09:20:55Z</time>
      </trkpt>
      <trkpt lat="44.45543" lon="2.84096">
        <ele>644.8</ele>
        <time>2014-04-13T09:21:00Z</time>
      </trkpt>
      <trkpt lat="44.45536" lon="2.84091">
        <ele>644.3</ele>
        <time>2014-04-13T09:21:05Z</time>
      </trkpt>
      <trkpt lat="44.45529" lon="2.84085">
        <ele>643</ele>
        <time>2014-04-13T09:21:10Z</time>
      </trkpt>
      <trkpt lat="44.45523" lon="2.84078">
        <ele>641.2</ele>
        <time>2014-04-13T09:21:42Z</time>
      </trkpt>
      <trkpt lat="44.45522" lon="2.84077">
        <ele>641.4</ele>
        <time>2014-04-13T09:21:43Z</time>
      </trkpt>
      <trkpt lat="44.45511" lon="2.84061">
        <ele>639.8</ele>
        <time>2014-04-13T09:22:15Z</time>
      </trkpt>
      <trkpt lat="44.45506" lon="2.84052">
        <ele>638.9</ele>
        <time>2014-04-13T09:22:21Z</time>
      </trkpt>
      <trkpt lat="44.45502" lon="2.84043">
        <ele>638.9</ele>
        <time>2014-04-13T09:22:27Z</time>
      </trkpt>
      <trkpt lat="44.45497" lon="2.84033">
        <ele>636.9</ele>
        <time>2014-04-13T09:22:34Z</time>
      </trkpt>
      <trkpt lat="44.45491" lon="2.84024">
        <ele>636.4</ele>
        <time>2014-04-13T09:22:41Z</time>
      </trkpt>
      <trkpt lat="44.45485" lon="2.84015">
        <ele>635.1</ele>
        <time>2014-04-13T09:22:47Z</time>
      </trkpt>
      <trkpt lat="44.45484" lon="2.84014">
        <ele>635.1</ele>
        <time>2014-04-13T09:22:48Z</time>
      </trkpt>
      <trkpt lat="44.45472" lon="2.84">
        <ele>633.9</ele>
        <time>2014-04-13T09:22:59Z</time>
      </trkpt>
      <trkpt lat="44.45467" lon="2.83991">
        <ele>632.9</ele>
        <time>2014-04-13T09:23:06Z</time>
      </trkpt>
      <trkpt lat="44.45469" lon="2.8398">
        <ele>632.4</ele>
        <time>2014-04-13T09:23:12Z</time>
      </trkpt>
      <trkpt lat="44.45474" lon="2.83973">
        <ele>631.6</ele>
        <time>2014-04-13T09:23:18Z</time>
      </trkpt>
      <trkpt lat="44.45479" lon="2.83962">
        <ele>630.7</ele>
        <time>2014-04-13T09:23:25Z</time>
      </trkpt>
      <trkpt lat="44.45484" lon="2.83953">
        <ele>629.7</ele>
        <time>2014-04-13T09:23:32Z</time>
      </trkpt>
      <trkpt lat="44.45484" lon="2.83942">
        <ele>628.9</ele>
        <time>2014-04-13T09:23:38Z</time>
      </trkpt>
      <trkpt lat="44.45484" lon="2.83929">
        <ele>626.6</ele>
        <time>2014-04-13T09:23:44Z</time>
      </trkpt>
      <trkpt lat="44.45482" lon="2.83917">
        <ele>625.2</ele>
        <time>2014-04-13T09:23:50Z</time>
      </trkpt>
      <trkpt lat="44.45482" lon="2.83916">
        <ele>625.1</ele>
        <time>2014-04-13T09:23:51Z</time>
      </trkpt>
      <trkpt lat="44.45478" lon="2.83895">
        <ele>623.6</ele>
        <time>2014-04-13T09:24:01Z</time>
      </trkpt>
      <trkpt lat="44.45476" lon="2.83884">
        <ele>622.8</ele>
        <time>2014-04-13T09:24:06Z</time>
      </trkpt>
      <trkpt lat="44.45476" lon="2.83873">
        <ele>622.2</ele>
        <time>2014-04-13T09:24:11Z</time>
      </trkpt>
      <trkpt lat="44.45475" lon="2.83861">
        <ele>621.5</ele>
        <time>2014-04-13T09:24:16Z</time>
      </trkpt>
      <trkpt lat="44.45474" lon="2.8385">
        <ele>620.3</ele>
        <time>2014-04-13T09:24:22Z</time>
      </trkpt>
      <trkpt lat="44.45473" lon="2.83838">
        <ele>620</ele>
        <time>2014-04-13T09:24:28Z</time>
      </trkpt>
      <trkpt lat="44.45472" lon="2.83828">
        <ele>619.1</ele>
        <time>2014-04-13T09:24:33Z</time>
      </trkpt>
      <trkpt lat="44.4547" lon="2.83818">
        <ele>619.9</ele>
        <time>2014-04-13T09:24:38Z</time>
      </trkpt>
      <trkpt lat="44.45468" lon="2.83807">
        <ele>618.8</ele>
        <time>2014-04-13T09:24:43Z</time>
      </trkpt>
      <trkpt lat="44.45467" lon="2.83796">
        <ele>618.8</ele>
        <time>2014-04-13T09:24:49Z</time>
      </trkpt>
      <trkpt lat="44.45466" lon="2.83785">
        <ele>618.3</ele>
        <time>2014-04-13T09:24:54Z</time>
      </trkpt>
      <trkpt lat="44.45466" lon="2.83783">
        <ele>618.3</ele>
        <time>2014-04-13T09:24:55Z</time>
      </trkpt>
      <trkpt lat="44.45463" lon="2.83764">
        <ele>617.1</ele>
        <time>2014-04-13T09:25:05Z</time>
      </trkpt>
      <trkpt lat="44.45462" lon="2.83752">
        <ele>616.2</ele>
        <time>2014-04-13T09:25:11Z</time>
      </trkpt>
      <trkpt lat="44.45462" lon="2.8374">
        <ele>615.8</ele>
        <time>2014-04-13T09:25:16Z</time>
      </trkpt>
      <trkpt lat="44.45463" lon="2.83728">
        <ele>615.8</ele>
        <time>2014-04-13T09:25:21Z</time>
      </trkpt>
      <trkpt lat="44.45463" lon="2.83717">
        <ele>615.4</ele>
        <time>2014-04-13T09:25:26Z</time>
      </trkpt>
      <trkpt lat="44.4546" lon="2.83706">
        <ele>614.9</ele>
        <time>2014-04-13T09:25:31Z</time>
      </trkpt>
      <trkpt lat="44.45459" lon="2.83695">
        <ele>615.8</ele>
        <time>2014-04-13T09:25:36Z</time>
      </trkpt>
      <trkpt lat="44.45456" lon="2.83684">
        <ele>614.9</ele>
        <time>2014-04-13T09:25:53Z</time>
      </trkpt>
      <trkpt lat="44.4546" lon="2.83674">
        <ele>614.4</ele>
        <time>2014-04-13T09:26:00Z</time>
      </trkpt>
      <trkpt lat="44.45461" lon="2.83673">
        <ele>614.5</ele>
        <time>2014-04-13T09:26:01Z</time>
      </trkpt>
      <trkpt lat="44.45475" lon="2.83665">
        <ele>613.7</ele>
        <time>2014-04-13T09:26:11Z</time>
      </trkpt>
      <trkpt lat="44.45482" lon="2.83664">
        <ele>612.9</ele>
        <time>2014-04-13T09:26:16Z</time>
      </trkpt>
      <trkpt lat="44.4549" lon="2.83662">
        <ele>612.6</ele>
        <time>2014-04-13T09:26:21Z</time>
      </trkpt>
      <trkpt lat="44.45499" lon="2.83659">
        <ele>612.2</ele>
        <time>2014-04-13T09:26:27Z</time>
      </trkpt>
      <trkpt lat="44.45507" lon="2.83655">
        <ele>610.8</ele>
        <time>2014-04-13T09:26:33Z</time>
      </trkpt>
      <trkpt lat="44.45514" lon="2.83651">
        <ele>610.8</ele>
        <time>2014-04-13T09:26:38Z</time>
      </trkpt>
      <trkpt lat="44.45522" lon="2.83648">
        <ele>609.8</ele>
        <time>2014-04-13T09:26:44Z</time>
      </trkpt>
      <trkpt lat="44.4553" lon="2.83642">
        <ele>608.4</ele>
        <time>2014-04-13T09:26:49Z</time>
      </trkpt>
      <trkpt lat="44.45538" lon="2.83638">
        <ele>607</ele>
        <time>2014-04-13T09:26:56Z</time>
      </trkpt>
      <trkpt lat="44.45546" lon="2.83635">
        <ele>606.2</ele>
        <time>2014-04-13T09:27:02Z</time>
      </trkpt>
      <trkpt lat="44.45547" lon="2.83634">
        <ele>605.8</ele>
        <time>2014-04-13T09:27:03Z</time>
      </trkpt>
      <trkpt lat="44.45557" lon="2.83618">
        <ele>603</ele>
        <time>2014-04-13T09:27:14Z</time>
      </trkpt>
      <trkpt lat="44.45561" lon="2.83609">
        <ele>602</ele>
        <time>2014-04-13T09:27:19Z</time>
      </trkpt>
      <trkpt lat="44.45566" lon="2.83598">
        <ele>600.1</ele>
        <time>2014-04-13T09:27:25Z</time>
      </trkpt>
      <trkpt lat="44.4557" lon="2.83589">
        <ele>600</ele>
        <time>2014-04-13T09:27:30Z</time>
      </trkpt>
      <trkpt lat="44.45572" lon="2.83578">
        <ele>598.6</ele>
        <time>2014-04-13T09:27:36Z</time>
      </trkpt>
      <trkpt lat="44.45573" lon="2.83566">
        <ele>597.5</ele>
        <time>2014-04-13T09:27:42Z</time>
      </trkpt>
      <trkpt lat="44.45577" lon="2.83555">
        <ele>596.4</ele>
        <time>2014-04-13T09:27:49Z</time>
      </trkpt>
      <trkpt lat="44.4558" lon="2.83543">
        <ele>594.5</ele>
        <time>2014-04-13T09:27:56Z</time>
      </trkpt>
      <trkpt lat="44.45581" lon="2.83532">
        <ele>592.3</ele>
        <time>2014-04-13T09:28:02Z</time>
      </trkpt>
      <trkpt lat="44.45581" lon="2.83521">
        <ele>589.8</ele>
        <time>2014-04-13T09:28:08Z</time>
      </trkpt>
      <trkpt lat="44.4558" lon="2.83519">
        <ele>589.7</ele>
        <time>2014-04-13T09:28:09Z</time>
      </trkpt>
      <trkpt lat="44.45576" lon="2.83498">
        <ele>587.3</ele>
        <time>2014-04-13T09:28:19Z</time>
      </trkpt>
      <trkpt lat="44.45575" lon="2.83486">
        <ele>585.9</ele>
        <time>2014-04-13T09:28:24Z</time>
      </trkpt>
      <trkpt lat="44.45573" lon="2.83474">
        <ele>585.2</ele>
        <time>2014-04-13T09:28:30Z</time>
      </trkpt>
      <trkpt lat="44.45572" lon="2.83464">
        <ele>583.8</ele>
        <time>2014-04-13T09:28:35Z</time>
      </trkpt>
      <trkpt lat="44.45571" lon="2.83453">
        <ele>582.6</ele>
        <time>2014-04-13T09:28:39Z</time>
      </trkpt>
      <trkpt lat="44.4557" lon="2.83442">
        <ele>581.3</ele>
        <time>2014-04-13T09:28:43Z</time>
      </trkpt>
      <trkpt lat="44.45567" lon="2.83432">
        <ele>580.9</ele>
        <time>2014-04-13T09:28:47Z</time>
      </trkpt>
      <trkpt lat="44.45565" lon="2.83421">
        <ele>580</ele>
        <time>2014-04-13T09:28:51Z</time>
      </trkpt>
      <trkpt lat="44.45565" lon="2.8341">
        <ele>579.2</ele>
        <time>2014-04-13T09:28:55Z</time>
      </trkpt>
      <trkpt lat="44.45568" lon="2.834">
        <ele>579.3</ele>
        <time>2014-04-13T09:28:59Z</time>
      </trkpt>
      <trkpt lat="44.45572" lon="2.8339">
        <ele>578.7</ele>
        <time>2014-04-13T09:29:03Z</time>
      </trkpt>
      <trkpt lat="44.45577" lon="2.83382">
        <ele>578.4</ele>
        <time>2014-04-13T09:29:07Z</time>
      </trkpt>
      <trkpt lat="44.45583" lon="2.83374">
        <ele>577.8</ele>
        <time>2014-04-13T09:29:12Z</time>
      </trkpt>
      <trkpt lat="44.45584" lon="2.83372">
        <ele>577.7</ele>
        <time>2014-04-13T09:29:13Z</time>
      </trkpt>
      <trkpt lat="44.45596" lon="2.83358">
        <ele>576.9</ele>
        <time>2014-04-13T09:29:22Z</time>
      </trkpt>
      <trkpt lat="44.45601" lon="2.83351">
        <ele>577.3</ele>
        <time>2014-04-13T09:29:26Z</time>
      </trkpt>
      <trkpt lat="44.45606" lon="2.83341">
        <ele>578</ele>
        <time>2014-04-13T09:29:31Z</time>
      </trkpt>
      <trkpt lat="44.45607" lon="2.8333">
        <ele>576.5</ele>
        <time>2014-04-13T09:29:37Z</time>
      </trkpt>
      <trkpt lat="44.45607" lon="2.8332">
        <ele>576.6</ele>
        <time>2014-04-13T09:29:42Z</time>
      </trkpt>
      <trkpt lat="44.45607" lon="2.83308">
        <ele>576.4</ele>
        <time>2014-04-13T09:29:51Z</time>
      </trkpt>
      <trkpt lat="44.45601" lon="2.83299">
        <ele>576.2</ele>
        <time>2014-04-13T09:30:07Z</time>
      </trkpt>
      <trkpt lat="44.45594" lon="2.83295">
        <ele>577.4</ele>
        <time>2014-04-13T09:30:13Z</time>
      </trkpt>
      <trkpt lat="44.45592" lon="2.83294">
        <ele>577.5</ele>
        <time>2014-04-13T09:30:14Z</time>
      </trkpt>
      <trkpt lat="44.45577" lon="2.83289">
        <ele>579.2</ele>
        <time>2014-04-13T09:30:25Z</time>
      </trkpt>
      <trkpt lat="44.45569" lon="2.83284">
        <ele>579.7</ele>
        <time>2014-04-13T09:30:30Z</time>
      </trkpt>
      <trkpt lat="44.45562" lon="2.8328">
        <ele>581.3</ele>
        <time>2014-04-13T09:30:35Z</time>
      </trkpt>
      <trkpt lat="44.45555" lon="2.83272">
        <ele>584.1</ele>
        <time>2014-04-13T09:30:50Z</time>
      </trkpt>
      <trkpt lat="44.45548" lon="2.83265">
        <ele>584</ele>
        <time>2014-04-13T09:30:59Z</time>
      </trkpt>
      <trkpt lat="44.45543" lon="2.83255">
        <ele>587.1</ele>
        <time>2014-04-13T09:35:16Z</time>
      </trkpt>
      <trkpt lat="44.45543" lon="2.83255">
        <ele>587.2</ele>
        <time>2014-04-13T09:35:17Z</time>
      </trkpt>
      <trkpt lat="44.45559" lon="2.8325">
        <ele>589.4</ele>
        <time>2014-04-13T09:35:35Z</time>
      </trkpt>
      <trkpt lat="44.45567" lon="2.83246">
        <ele>589.6</ele>
        <time>2014-04-13T09:35:41Z</time>
      </trkpt>
      <trkpt lat="44.45576" lon="2.83244">
        <ele>590.7</ele>
        <time>2014-04-13T09:35:47Z</time>
      </trkpt>
      <trkpt lat="44.45583" lon="2.83239">
        <ele>592.4</ele>
        <time>2014-04-13T09:35:52Z</time>
      </trkpt>
      <trkpt lat="44.45589" lon="2.83234">
        <ele>593.5</ele>
        <time>2014-04-13T09:35:57Z</time>
      </trkpt>
      <trkpt lat="44.45596" lon="2.83228">
        <ele>594.4</ele>
        <time>2014-04-13T09:36:02Z</time>
      </trkpt>
      <trkpt lat="44.45603" lon="2.83223">
        <ele>593.8</ele>
        <time>2014-04-13T09:36:08Z</time>
      </trkpt>
      <trkpt lat="44.4561" lon="2.83218">
        <ele>595.1</ele>
        <time>2014-04-13T09:36:13Z</time>
      </trkpt>
      <trkpt lat="44.45618" lon="2.83214">
        <ele>596.4</ele>
        <time>2014-04-13T09:36:18Z</time>
      </trkpt>
      <trkpt lat="44.45619" lon="2.83214">
        <ele>596.5</ele>
        <time>2014-04-13T09:36:19Z</time>
      </trkpt>
      <trkpt lat="44.45633" lon="2.83208">
        <ele>598.3</ele>
        <time>2014-04-13T09:36:29Z</time>
      </trkpt>
      <trkpt lat="44.4564" lon="2.83202">
        <ele>598.3</ele>
        <time>2014-04-13T09:36:34Z</time>
      </trkpt>
      <trkpt lat="44.45646" lon="2.83194">
        <ele>598.3</ele>
        <time>2014-04-13T09:36:40Z</time>
      </trkpt>
      <trkpt lat="44.45652" lon="2.83186">
        <ele>599.2</ele>
        <time>2014-04-13T09:36:46Z</time>
      </trkpt>
      <trkpt lat="44.45659" lon="2.83178">
        <ele>600.3</ele>
        <time>2014-04-13T09:36:52Z</time>
      </trkpt>
      <trkpt lat="44.45667" lon="2.83172">
        <ele>600.7</ele>
        <time>2014-04-13T09:36:57Z</time>
      </trkpt>
      <trkpt lat="44.45674" lon="2.83167">
        <ele>601.3</ele>
        <time>2014-04-13T09:37:02Z</time>
      </trkpt>
      <trkpt lat="44.45681" lon="2.83162">
        <ele>602.6</ele>
        <time>2014-04-13T09:37:07Z</time>
      </trkpt>
      <trkpt lat="44.45688" lon="2.83157">
        <ele>602.4</ele>
        <time>2014-04-13T09:37:12Z</time>
      </trkpt>
      <trkpt lat="44.45695" lon="2.83151">
        <ele>603.5</ele>
        <time>2014-04-13T09:37:17Z</time>
      </trkpt>
      <trkpt lat="44.45703" lon="2.83146">
        <ele>603</ele>
        <time>2014-04-13T09:37:22Z</time>
      </trkpt>
      <trkpt lat="44.45704" lon="2.83144">
        <ele>603.4</ele>
        <time>2014-04-13T09:37:23Z</time>
      </trkpt>
      <trkpt lat="44.45717" lon="2.83132">
        <ele>605.1</ele>
        <time>2014-04-13T09:37:33Z</time>
      </trkpt>
      <trkpt lat="44.45722" lon="2.83124">
        <ele>605.1</ele>
        <time>2014-04-13T09:37:38Z</time>
      </trkpt>
      <trkpt lat="44.45726" lon="2.83116">
        <ele>606</ele>
        <time>2014-04-13T09:37:42Z</time>
      </trkpt>
      <trkpt lat="44.45732" lon="2.83107">
        <ele>606.7</ele>
        <time>2014-04-13T09:37:47Z</time>
      </trkpt>
      <trkpt lat="44.4574" lon="2.83105">
        <ele>608</ele>
        <time>2014-04-13T09:37:52Z</time>
      </trkpt>
      <trkpt lat="44.45747" lon="2.83099">
        <ele>608</ele>
        <time>2014-04-13T09:37:57Z</time>
      </trkpt>
      <trkpt lat="44.45752" lon="2.83091">
        <ele>608.2</ele>
        <time>2014-04-13T09:38:02Z</time>
      </trkpt>
      <trkpt lat="44.45753" lon="2.83079">
        <ele>609.6</ele>
        <time>2014-04-13T09:38:08Z</time>
      </trkpt>
      <trkpt lat="44.45755" lon="2.83068">
        <ele>610.9</ele>
        <time>2014-04-13T09:38:13Z</time>
      </trkpt>
      <trkpt lat="44.45763" lon="2.83064">
        <ele>611.7</ele>
        <time>2014-04-13T09:38:19Z</time>
      </trkpt>
      <trkpt lat="44.45771" lon="2.83058">
        <ele>611.2</ele>
        <time>2014-04-13T09:38:25Z</time>
      </trkpt>
      <trkpt lat="44.45772" lon="2.83056">
        <ele>611.5</ele>
        <time>2014-04-13T09:38:26Z</time>
      </trkpt>
      <trkpt lat="44.45775" lon="2.83036">
        <ele>611.9</ele>
        <time>2014-04-13T09:38:35Z</time>
      </trkpt>
      <trkpt lat="44.45777" lon="2.83024">
        <ele>612.7</ele>
        <time>2014-04-13T09:38:40Z</time>
      </trkpt>
      <trkpt lat="44.4578" lon="2.83013">
        <ele>613.6</ele>
        <time>2014-04-13T09:38:45Z</time>
      </trkpt>
      <trkpt lat="44.45783" lon="2.83002">
        <ele>614.1</ele>
        <time>2014-04-13T09:38:50Z</time>
      </trkpt>
      <trkpt lat="44.45786" lon="2.82993">
        <ele>615.2</ele>
        <time>2014-04-13T09:38:56Z</time>
      </trkpt>
      <trkpt lat="44.45789" lon="2.82981">
        <ele>615.4</ele>
        <time>2014-04-13T09:39:01Z</time>
      </trkpt>
      <trkpt lat="44.45794" lon="2.82971">
        <ele>615.1</ele>
        <time>2014-04-13T09:39:06Z</time>
      </trkpt>
      <trkpt lat="44.45797" lon="2.82961">
        <ele>616.4</ele>
        <time>2014-04-13T09:39:11Z</time>
      </trkpt>
      <trkpt lat="44.45801" lon="2.82951">
        <ele>617.6</ele>
        <time>2014-04-13T09:39:16Z</time>
      </trkpt>
      <trkpt lat="44.45805" lon="2.8294">
        <ele>617.6</ele>
        <time>2014-04-13T09:39:22Z</time>
      </trkpt>
      <trkpt lat="44.45809" lon="2.8293">
        <ele>618.2</ele>
        <time>2014-04-13T09:39:27Z</time>
      </trkpt>
      <trkpt lat="44.45809" lon="2.82928">
        <ele>618.2</ele>
        <time>2014-04-13T09:39:28Z</time>
      </trkpt>
      <trkpt lat="44.45817" lon="2.8291">
        <ele>619.1</ele>
        <time>2014-04-13T09:39:38Z</time>
      </trkpt>
      <trkpt lat="44.45821" lon="2.829">
        <ele>619.5</ele>
        <time>2014-04-13T09:39:43Z</time>
      </trkpt>
      <trkpt lat="44.45824" lon="2.8289">
        <ele>620.1</ele>
        <time>2014-04-13T09:39:48Z</time>
      </trkpt>
      <trkpt lat="44.45828" lon="2.8288">
        <ele>620.2</ele>
        <time>2014-04-13T09:39:53Z</time>
      </trkpt>
      <trkpt lat="44.45831" lon="2.82869">
        <ele>621.7</ele>
        <time>2014-04-13T09:39:58Z</time>
      </trkpt>
      <trkpt lat="44.45834" lon="2.82859">
        <ele>622.1</ele>
        <time>2014-04-13T09:40:03Z</time>
      </trkpt>
      <trkpt lat="44.45837" lon="2.82848">
        <ele>622</ele>
        <time>2014-04-13T09:40:09Z</time>
      </trkpt>
      <trkpt lat="44.45838" lon="2.82835">
        <ele>623.6</ele>
        <time>2014-04-13T09:40:15Z</time>
      </trkpt>
      <trkpt lat="44.45839" lon="2.82825">
        <ele>624.4</ele>
        <time>2014-04-13T09:40:20Z</time>
      </trkpt>
      <trkpt lat="44.45837" lon="2.82814">
        <ele>624.5</ele>
        <time>2014-04-13T09:40:25Z</time>
      </trkpt>
      <trkpt lat="44.45834" lon="2.82803">
        <ele>624.9</ele>
        <time>2014-04-13T09:40:31Z</time>
      </trkpt>
      <trkpt lat="44.45833" lon="2.82801">
        <ele>624.8</ele>
        <time>2014-04-13T09:40:32Z</time>
      </trkpt>
      <trkpt lat="44.45828" lon="2.82784">
        <ele>625.7</ele>
        <time>2014-04-13T09:40:41Z</time>
      </trkpt>
      <trkpt lat="44.45827" lon="2.82773">
        <ele>626.2</ele>
        <time>2014-04-13T09:40:46Z</time>
      </trkpt>
      <trkpt lat="44.45826" lon="2.82761">
        <ele>625.6</ele>
        <time>2014-04-13T09:40:51Z</time>
      </trkpt>
      <trkpt lat="44.45825" lon="2.8275">
        <ele>626.8</ele>
        <time>2014-04-13T09:40:56Z</time>
      </trkpt>
      <trkpt lat="44.45826" lon="2.82739">
        <ele>626.9</ele>
        <time>2014-04-13T09:41:01Z</time>
      </trkpt>
      <trkpt lat="44.45827" lon="2.82728">
        <ele>628</ele>
        <time>2014-04-13T09:41:06Z</time>
      </trkpt>
      <trkpt lat="44.45828" lon="2.82717">
        <ele>628.1</ele>
        <time>2014-04-13T09:41:12Z</time>
      </trkpt>
      <trkpt lat="44.45829" lon="2.82706">
        <ele>628.5</ele>
        <time>2014-04-13T09:41:17Z</time>
      </trkpt>
      <trkpt lat="44.45831" lon="2.82695">
        <ele>630.1</ele>
        <time>2014-04-13T09:41:24Z</time>
      </trkpt>
      <trkpt lat="44.45834" lon="2.82683">
        <ele>630.6</ele>
        <time>2014-04-13T09:41:30Z</time>
      </trkpt>
      <trkpt lat="44.45836" lon="2.82673">
        <ele>630.9</ele>
        <time>2014-04-13T09:41:36Z</time>
      </trkpt>
      <trkpt lat="44.45836" lon="2.82671">
        <ele>630.5</ele>
        <time>2014-04-13T09:41:37Z</time>
      </trkpt>
      <trkpt lat="44.45841" lon="2.82652">
        <ele>632.7</ele>
        <time>2014-04-13T09:41:47Z</time>
      </trkpt>
      <trkpt lat="44.45844" lon="2.82641">
        <ele>633.3</ele>
        <time>2014-04-13T09:41:52Z</time>
      </trkpt>
      <trkpt lat="44.45846" lon="2.8263">
        <ele>634</ele>
        <time>2014-04-13T09:41:57Z</time>
      </trkpt>
      <trkpt lat="44.45846" lon="2.82618">
        <ele>634.9</ele>
        <time>2014-04-13T09:42:02Z</time>
      </trkpt>
      <trkpt lat="44.45844" lon="2.82606">
        <ele>636.2</ele>
        <time>2014-04-13T09:42:07Z</time>
      </trkpt>
      <trkpt lat="44.4584" lon="2.82598">
        <ele>636</ele>
        <time>2014-04-13T09:42:11Z</time>
      </trkpt>
      <trkpt lat="44.45834" lon="2.82589">
        <ele>637.3</ele>
        <time>2014-04-13T09:42:16Z</time>
      </trkpt>
      <trkpt lat="44.45829" lon="2.82583">
        <ele>636.9</ele>
        <time>2014-04-13T09:42:20Z</time>
      </trkpt>
      <trkpt lat="44.45822" lon="2.82575">
        <ele>637</ele>
        <time>2014-04-13T09:42:25Z</time>
      </trkpt>
      <trkpt lat="44.45814" lon="2.82568">
        <ele>638.3</ele>
        <time>2014-04-13T09:42:30Z</time>
      </trkpt>
      <trkpt lat="44.45808" lon="2.82563">
        <ele>638.8</ele>
        <time>2014-04-13T09:42:35Z</time>
      </trkpt>
      <trkpt lat="44.45801" lon="2.82558">
        <ele>638.7</ele>
        <time>2014-04-13T09:42:41Z</time>
      </trkpt>
      <trkpt lat="44.45799" lon="2.82557">
        <ele>638.9</ele>
        <time>2014-04-13T09:42:42Z</time>
      </trkpt>
      <trkpt lat="44.45789" lon="2.82543">
        <ele>640.4</ele>
        <time>2014-04-13T09:42:52Z</time>
      </trkpt>
      <trkpt lat="44.45783" lon="2.82533">
        <ele>641.2</ele>
        <time>2014-04-13T09:42:58Z</time>
      </trkpt>
      <trkpt lat="44.45779" lon="2.82525">
        <ele>641.7</ele>
        <time>2014-04-13T09:43:02Z</time>
      </trkpt>
      <trkpt lat="44.45775" lon="2.82514">
        <ele>642</ele>
        <time>2014-04-13T09:43:07Z</time>
      </trkpt>
      <trkpt lat="44.4577" lon="2.82505">
        <ele>642.1</ele>
        <time>2014-04-13T09:43:12Z</time>
      </trkpt>
      <trkpt lat="44.45765" lon="2.82496">
        <ele>642.3</ele>
        <time>2014-04-13T09:43:16Z</time>
      </trkpt>
      <trkpt lat="44.45759" lon="2.82487">
        <ele>642.4</ele>
        <time>2014-04-13T09:43:21Z</time>
      </trkpt>
      <trkpt lat="44.45752" lon="2.8248">
        <ele>643.5</ele>
        <time>2014-04-13T09:43:26Z</time>
      </trkpt>
      <trkpt lat="44.45745" lon="2.82475">
        <ele>643.6</ele>
        <time>2014-04-13T09:43:31Z</time>
      </trkpt>
      <trkpt lat="44.45737" lon="2.82471">
        <ele>644.2</ele>
        <time>2014-04-13T09:43:36Z</time>
      </trkpt>
      <trkpt lat="44.45729" lon="2.82469">
        <ele>644.9</ele>
        <time>2014-04-13T09:43:42Z</time>
      </trkpt>
      <trkpt lat="44.45727" lon="2.82469">
        <ele>645.1</ele>
        <time>2014-04-13T09:43:43Z</time>
      </trkpt>
      <trkpt lat="44.45712" lon="2.82464">
        <ele>643.7</ele>
        <time>2014-04-13T09:43:53Z</time>
      </trkpt>
      <trkpt lat="44.45705" lon="2.82467">
        <ele>645.1</ele>
        <time>2014-04-13T09:43:58Z</time>
      </trkpt>
      <trkpt lat="44.45696" lon="2.82471">
        <ele>645.4</ele>
        <time>2014-04-13T09:44:04Z</time>
      </trkpt>
      <trkpt lat="44.45689" lon="2.82479">
        <ele>644.8</ele>
        <time>2014-04-13T09:44:10Z</time>
      </trkpt>
      <trkpt lat="44.45683" lon="2.82487">
        <ele>643.4</ele>
        <time>2014-04-13T09:44:17Z</time>
      </trkpt>
      <trkpt lat="44.45676" lon="2.82494">
        <ele>642.3</ele>
        <time>2014-04-13T09:44:23Z</time>
      </trkpt>
      <trkpt lat="44.45668" lon="2.825">
        <ele>641.2</ele>
        <time>2014-04-13T09:44:29Z</time>
      </trkpt>
      <trkpt lat="44.4566" lon="2.82505">
        <ele>640.5</ele>
        <time>2014-04-13T09:44:35Z</time>
      </trkpt>
      <trkpt lat="44.45653" lon="2.82509">
        <ele>640.2</ele>
        <time>2014-04-13T09:44:41Z</time>
      </trkpt>
      <trkpt lat="44.45645" lon="2.82514">
        <ele>639.1</ele>
        <time>2014-04-13T09:44:47Z</time>
      </trkpt>
      <trkpt lat="44.45644" lon="2.82514">
        <ele>639.1</ele>
        <time>2014-04-13T09:44:48Z</time>
      </trkpt>
      <trkpt lat="44.45629" lon="2.82513">
        <ele>637.6</ele>
        <time>2014-04-13T09:44:59Z</time>
      </trkpt>
      <trkpt lat="44.4562" lon="2.82511">
        <ele>637.3</ele>
        <time>2014-04-13T09:45:05Z</time>
      </trkpt>
      <trkpt lat="44.45613" lon="2.82507">
        <ele>636.6</ele>
        <time>2014-04-13T09:45:09Z</time>
      </trkpt>
      <trkpt lat="44.45606" lon="2.82502">
        <ele>636.6</ele>
        <time>2014-04-13T09:45:14Z</time>
      </trkpt>
      <trkpt lat="44.45599" lon="2.82499">
        <ele>636.8</ele>
        <time>2014-04-13T09:45:18Z</time>
      </trkpt>
      <trkpt lat="44.45592" lon="2.82496">
        <ele>636.5</ele>
        <time>2014-04-13T09:45:22Z</time>
      </trkpt>
      <trkpt lat="44.45584" lon="2.82495">
        <ele>636.4</ele>
        <time>2014-04-13T09:45:27Z</time>
      </trkpt>
      <trkpt lat="44.45576" lon="2.82494">
        <ele>637.1</ele>
        <time>2014-04-13T09:45:32Z</time>
      </trkpt>
      <trkpt lat="44.45567" lon="2.82494">
        <ele>636.9</ele>
        <time>2014-04-13T09:45:37Z</time>
      </trkpt>
      <trkpt lat="44.45559" lon="2.82495">
        <ele>636.4</ele>
        <time>2014-04-13T09:45:42Z</time>
      </trkpt>
      <trkpt lat="44.4555" lon="2.82496">
        <ele>636.4</ele>
        <time>2014-04-13T09:46:27Z</time>
      </trkpt>
      <trkpt lat="44.45549" lon="2.82496">
        <ele>636.3</ele>
        <time>2014-04-13T09:46:28Z</time>
      </trkpt>
      <trkpt lat="44.45534" lon="2.82499">
        <ele>634.5</ele>
        <time>2014-04-13T09:46:40Z</time>
      </trkpt>
      <trkpt lat="44.45526" lon="2.825">
        <ele>635</ele>
        <time>2014-04-13T09:46:46Z</time>
      </trkpt>
      <trkpt lat="44.45517" lon="2.82505">
        <ele>635</ele>
        <time>2014-04-13T09:46:52Z</time>
      </trkpt>
      <trkpt lat="44.45509" lon="2.82504">
        <ele>635</ele>
        <time>2014-04-13T09:49:08Z</time>
      </trkpt>
      <trkpt lat="44.45508" lon="2.82504">
        <ele>635</ele>
        <time>2014-04-13T09:49:09Z</time>
      </trkpt>
      <trkpt lat="44.45499" lon="2.82507">
        <ele>635.7</ele>
        <time>2014-04-13T09:53:53Z</time>
      </trkpt>
      <trkpt lat="44.45485" lon="2.82501">
        <ele>637</ele>
        <time>2014-04-13T09:54:02Z</time>
      </trkpt>
      <trkpt lat="44.45477" lon="2.82497">
        <ele>637.4</ele>
        <time>2014-04-13T09:54:06Z</time>
      </trkpt>
      <trkpt lat="44.4547" lon="2.82493">
        <ele>637.7</ele>
        <time>2014-04-13T09:54:10Z</time>
      </trkpt>
      <trkpt lat="44.45462" lon="2.82488">
        <ele>638.1</ele>
        <time>2014-04-13T09:54:13Z</time>
      </trkpt>
      <trkpt lat="44.45456" lon="2.82484">
        <ele>638.4</ele>
        <time>2014-04-13T09:54:15Z</time>
      </trkpt>
      <trkpt lat="44.45449" lon="2.82479">
        <ele>637</ele>
        <time>2014-04-13T09:54:18Z</time>
      </trkpt>
      <trkpt lat="44.45441" lon="2.82478">
        <ele>637.5</ele>
        <time>2014-04-13T09:54:21Z</time>
      </trkpt>
      <trkpt lat="44.45434" lon="2.82475">
        <ele>638.3</ele>
        <time>2014-04-13T09:54:26Z</time>
      </trkpt>
      <trkpt lat="44.45425" lon="2.82472">
        <ele>638.4</ele>
        <time>2014-04-13T09:54:32Z</time>
      </trkpt>
      <trkpt lat="44.45418" lon="2.82466">
        <ele>637.9</ele>
        <time>2014-04-13T09:54:39Z</time>
      </trkpt>
      <trkpt lat="44.45413" lon="2.82457">
        <ele>637.9</ele>
        <time>2014-04-13T09:54:45Z</time>
      </trkpt>
      <trkpt lat="44.45408" lon="2.82448">
        <ele>638.1</ele>
        <time>2014-04-13T09:54:51Z</time>
      </trkpt>
      <trkpt lat="44.45404" lon="2.82439">
        <ele>637.7</ele>
        <time>2014-04-13T09:54:56Z</time>
      </trkpt>
      <trkpt lat="44.45403" lon="2.82438">
        <ele>638</ele>
        <time>2014-04-13T09:54:57Z</time>
      </trkpt>
      <trkpt lat="44.45395" lon="2.82422">
        <ele>637.9</ele>
        <time>2014-04-13T09:55:09Z</time>
      </trkpt>
      <trkpt lat="44.45388" lon="2.82415">
        <ele>638.1</ele>
        <time>2014-04-13T09:55:15Z</time>
      </trkpt>
      <trkpt lat="44.45381" lon="2.82409">
        <ele>638</ele>
        <time>2014-04-13T09:55:21Z</time>
      </trkpt>
      <trkpt lat="44.45374" lon="2.82402">
        <ele>637.8</ele>
        <time>2014-04-13T09:55:27Z</time>
      </trkpt>
      <trkpt lat="44.45368" lon="2.82395">
        <ele>637.6</ele>
        <time>2014-04-13T09:55:33Z</time>
      </trkpt>
      <trkpt lat="44.45362" lon="2.82387">
        <ele>636.9</ele>
        <time>2014-04-13T09:55:39Z</time>
      </trkpt>
      <trkpt lat="44.45357" lon="2.82379">
        <ele>636.8</ele>
        <time>2014-04-13T09:55:45Z</time>
      </trkpt>
      <trkpt lat="44.45352" lon="2.8237">
        <ele>637.5</ele>
        <time>2014-04-13T09:55:50Z</time>
      </trkpt>
      <trkpt lat="44.45348" lon="2.82361">
        <ele>637.2</ele>
        <time>2014-04-13T09:55:55Z</time>
      </trkpt>
      <trkpt lat="44.45341" lon="2.82354">
        <ele>634.9</ele>
        <time>2014-04-13T09:56:02Z</time>
      </trkpt>
      <trkpt lat="44.45339" lon="2.82353">
        <ele>635.4</ele>
        <time>2014-04-13T09:56:03Z</time>
      </trkpt>
      <trkpt lat="44.45325" lon="2.82354">
        <ele>635.4</ele>
        <time>2014-04-13T09:56:13Z</time>
      </trkpt>
      <trkpt lat="44.45318" lon="2.82358">
        <ele>634.2</ele>
        <time>2014-04-13T09:56:19Z</time>
      </trkpt>
      <trkpt lat="44.45311" lon="2.82365">
        <ele>633</ele>
        <time>2014-04-13T09:56:25Z</time>
      </trkpt>
      <trkpt lat="44.45305" lon="2.82373">
        <ele>631.1</ele>
        <time>2014-04-13T09:56:31Z</time>
      </trkpt>
      <trkpt lat="44.453" lon="2.82382">
        <ele>629.8</ele>
        <time>2014-04-13T09:56:37Z</time>
      </trkpt>
      <trkpt lat="44.45296" lon="2.82393">
        <ele>628.4</ele>
        <time>2014-04-13T09:56:43Z</time>
      </trkpt>
      <trkpt lat="44.45294" lon="2.82403">
        <ele>626.4</ele>
        <time>2014-04-13T09:56:54Z</time>
      </trkpt>
      <trkpt lat="44.45294" lon="2.82415">
        <ele>625.5</ele>
        <time>2014-04-13T09:57:00Z</time>
      </trkpt>
      <trkpt lat="44.45289" lon="2.82423">
        <ele>624</ele>
        <time>2014-04-13T09:57:05Z</time>
      </trkpt>
      <trkpt lat="44.45288" lon="2.82424">
        <ele>623.9</ele>
        <time>2014-04-13T09:57:06Z</time>
      </trkpt>
      <trkpt lat="44.45273" lon="2.82428">
        <ele>620.6</ele>
        <time>2014-04-13T09:57:16Z</time>
      </trkpt>
      <trkpt lat="44.45265" lon="2.82426">
        <ele>619.3</ele>
        <time>2014-04-13T09:57:21Z</time>
      </trkpt>
      <trkpt lat="44.45257" lon="2.82421">
        <ele>617.5</ele>
        <time>2014-04-13T09:57:27Z</time>
      </trkpt>
      <trkpt lat="44.4525" lon="2.82415">
        <ele>616.3</ele>
        <time>2014-04-13T09:57:34Z</time>
      </trkpt>
      <trkpt lat="44.45243" lon="2.82409">
        <ele>614.6</ele>
        <time>2014-04-13T09:57:41Z</time>
      </trkpt>
      <trkpt lat="44.45234" lon="2.82408">
        <ele>613.1</ele>
        <time>2014-04-13T09:57:47Z</time>
      </trkpt>
      <trkpt lat="44.45228" lon="2.82414">
        <ele>612.1</ele>
        <time>2014-04-13T09:57:53Z</time>
      </trkpt>
      <trkpt lat="44.45226" lon="2.82425">
        <ele>611.2</ele>
        <time>2014-04-13T09:57:59Z</time>
      </trkpt>
      <trkpt lat="44.45225" lon="2.82437">
        <ele>608.9</ele>
        <time>2014-04-13T09:58:06Z</time>
      </trkpt>
      <trkpt lat="44.45225" lon="2.82439">
        <ele>608.6</ele>
        <time>2014-04-13T09:58:07Z</time>
      </trkpt>
      <trkpt lat="44.45223" lon="2.82461">
        <ele>605.9</ele>
        <time>2014-04-13T09:58:18Z</time>
      </trkpt>
      <trkpt lat="44.45221" lon="2.82472">
        <ele>605.6</ele>
        <time>2014-04-13T09:58:24Z</time>
      </trkpt>
      <trkpt lat="44.45216" lon="2.82483">
        <ele>603.6</ele>
        <time>2014-04-13T09:58:29Z</time>
      </trkpt>
      <trkpt lat="44.45211" lon="2.82493">
        <ele>601.6</ele>
        <time>2014-04-13T09:58:41Z</time>
      </trkpt>
      <trkpt lat="44.45208" lon="2.82503">
        <ele>600.6</ele>
        <time>2014-04-13T09:58:47Z</time>
      </trkpt>
      <trkpt lat="44.45202" lon="2.82512">
        <ele>599.6</ele>
        <time>2014-04-13T09:58:52Z</time>
      </trkpt>
      <trkpt lat="44.45196" lon="2.82521">
        <ele>597.9</ele>
        <time>2014-04-13T09:58:57Z</time>
      </trkpt>
      <trkpt lat="44.45193" lon="2.82531">
        <ele>596.7</ele>
        <time>2014-04-13T09:59:03Z</time>
      </trkpt>
      <trkpt lat="44.45189" lon="2.82541">
        <ele>595.3</ele>
        <time>2014-04-13T09:59:10Z</time>
      </trkpt>
      <trkpt lat="44.45189" lon="2.82543">
        <ele>595.4</ele>
        <time>2014-04-13T09:59:11Z</time>
      </trkpt>
      <trkpt lat="44.45178" lon="2.82556">
        <ele>594</ele>
        <time>2014-04-13T09:59:20Z</time>
      </trkpt>
      <trkpt lat="44.4517" lon="2.82559">
        <ele>592.4</ele>
        <time>2014-04-13T09:59:25Z</time>
      </trkpt>
      <trkpt lat="44.45161" lon="2.82559">
        <ele>591</ele>
        <time>2014-04-13T09:59:31Z</time>
      </trkpt>
      <trkpt lat="44.45153" lon="2.82556">
        <ele>591.3</ele>
        <time>2014-04-13T09:59:36Z</time>
      </trkpt>
      <trkpt lat="44.45145" lon="2.82554">
        <ele>589.8</ele>
        <time>2014-04-13T09:59:40Z</time>
      </trkpt>
      <trkpt lat="44.45137" lon="2.82552">
        <ele>590.5</ele>
        <time>2014-04-13T09:59:45Z</time>
      </trkpt>
      <trkpt lat="44.45128" lon="2.82551">
        <ele>589.6</ele>
        <time>2014-04-13T09:59:50Z</time>
      </trkpt>
      <trkpt lat="44.45119" lon="2.8255">
        <ele>588.9</ele>
        <time>2014-04-13T09:59:56Z</time>
      </trkpt>
      <trkpt lat="44.45111" lon="2.82547">
        <ele>587.6</ele>
        <time>2014-04-13T10:00:02Z</time>
      </trkpt>
      <trkpt lat="44.45104" lon="2.82543">
        <ele>587.9</ele>
        <time>2014-04-13T10:00:07Z</time>
      </trkpt>
      <trkpt lat="44.45097" lon="2.82535">
        <ele>587.8</ele>
        <time>2014-04-13T10:00:12Z</time>
      </trkpt>
      <trkpt lat="44.45096" lon="2.82534">
        <ele>587.6</ele>
        <time>2014-04-13T10:00:13Z</time>
      </trkpt>
      <trkpt lat="44.45085" lon="2.82519">
        <ele>587.7</ele>
        <time>2014-04-13T10:00:24Z</time>
      </trkpt>
      <trkpt lat="44.45078" lon="2.82515">
        <ele>587.5</ele>
        <time>2014-04-13T10:00:29Z</time>
      </trkpt>
      <trkpt lat="44.4507" lon="2.8251">
        <ele>586.8</ele>
        <time>2014-04-13T10:00:34Z</time>
      </trkpt>
      <trkpt lat="44.45063" lon="2.82505">
        <ele>587.3</ele>
        <time>2014-04-13T10:00:39Z</time>
      </trkpt>
      <trkpt lat="44.45056" lon="2.82501">
        <ele>586.6</ele>
        <time>2014-04-13T10:00:44Z</time>
      </trkpt>
      <trkpt lat="44.45048" lon="2.82495">
        <ele>586.1</ele>
        <time>2014-04-13T10:00:49Z</time>
      </trkpt>
      <trkpt lat="44.4504" lon="2.8249">
        <ele>585.7</ele>
        <time>2014-04-13T10:00:53Z</time>
      </trkpt>
      <trkpt lat="44.45033" lon="2.82486">
        <ele>585.7</ele>
        <time>2014-04-13T10:00:57Z</time>
      </trkpt>
      <trkpt lat="44.45026" lon="2.82482">
        <ele>585.5</ele>
        <time>2014-04-13T10:01:01Z</time>
      </trkpt>
      <trkpt lat="44.45019" lon="2.82479">
        <ele>585.4</ele>
        <time>2014-04-13T10:01:05Z</time>
      </trkpt>
      <trkpt lat="44.45011" lon="2.82478">
        <ele>584.4</ele>
        <time>2014-04-13T10:01:09Z</time>
      </trkpt>
      <trkpt lat="44.45004" lon="2.82476">
        <ele>585</ele>
        <time>2014-04-13T10:01:13Z</time>
      </trkpt>
      <trkpt lat="44.45002" lon="2.82477">
        <ele>585</ele>
        <time>2014-04-13T10:01:14Z</time>
      </trkpt>
      <trkpt lat="44.44987" lon="2.82478">
        <ele>585.4</ele>
        <time>2014-04-13T10:01:23Z</time>
      </trkpt>
      <trkpt lat="44.4498" lon="2.82476">
        <ele>585.1</ele>
        <time>2014-04-13T10:01:28Z</time>
      </trkpt>
      <trkpt lat="44.44972" lon="2.82474">
        <ele>585.6</ele>
        <time>2014-04-13T10:01:33Z</time>
      </trkpt>
      <trkpt lat="44.44964" lon="2.82472">
        <ele>585</ele>
        <time>2014-04-13T10:01:38Z</time>
      </trkpt>
      <trkpt lat="44.44956" lon="2.82468">
        <ele>585.3</ele>
        <time>2014-04-13T10:01:44Z</time>
      </trkpt>
      <trkpt lat="44.44947" lon="2.82465">
        <ele>584.3</ele>
        <time>2014-04-13T10:01:50Z</time>
      </trkpt>
      <trkpt lat="44.44939" lon="2.82463">
        <ele>585.1</ele>
        <time>2014-04-13T10:01:55Z</time>
      </trkpt>
      <trkpt lat="44.44932" lon="2.82461">
        <ele>585.2</ele>
        <time>2014-04-13T10:01:59Z</time>
      </trkpt>
      <trkpt lat="44.44924" lon="2.82458">
        <ele>584.5</ele>
        <time>2014-04-13T10:02:04Z</time>
      </trkpt>
      <trkpt lat="44.44915" lon="2.82455">
        <ele>583.6</ele>
        <time>2014-04-13T10:02:10Z</time>
      </trkpt>
      <trkpt lat="44.44906" lon="2.82453">
        <ele>584.4</ele>
        <time>2014-04-13T10:02:16Z</time>
      </trkpt>
      <trkpt lat="44.44905" lon="2.82453">
        <ele>584.5</ele>
        <time>2014-04-13T10:02:17Z</time>
      </trkpt>
      <trkpt lat="44.44889" lon="2.82449">
        <ele>584.7</ele>
        <time>2014-04-13T10:02:26Z</time>
      </trkpt>
      <trkpt lat="44.44881" lon="2.82448">
        <ele>585.1</ele>
        <time>2014-04-13T10:02:31Z</time>
      </trkpt>
      <trkpt lat="44.44873" lon="2.82446">
        <ele>584.8</ele>
        <time>2014-04-13T10:02:36Z</time>
      </trkpt>
      <trkpt lat="44.44864" lon="2.82447">
        <ele>584.3</ele>
        <time>2014-04-13T10:02:41Z</time>
      </trkpt>
      <trkpt lat="44.44855" lon="2.82447">
        <ele>584.4</ele>
        <time>2014-04-13T10:02:47Z</time>
      </trkpt>
      <trkpt lat="44.44847" lon="2.82446">
        <ele>583.3</ele>
        <time>2014-04-13T10:02:52Z</time>
      </trkpt>
      <trkpt lat="44.44838" lon="2.82446">
        <ele>584.4</ele>
        <time>2014-04-13T10:02:58Z</time>
      </trkpt>
      <trkpt lat="44.44829" lon="2.82445">
        <ele>584.1</ele>
        <time>2014-04-13T10:03:04Z</time>
      </trkpt>
      <trkpt lat="44.44821" lon="2.82443">
        <ele>583.5</ele>
        <time>2014-04-13T10:03:09Z</time>
      </trkpt>
      <trkpt lat="44.44813" lon="2.8244">
        <ele>583.1</ele>
        <time>2014-04-13T10:03:15Z</time>
      </trkpt>
      <trkpt lat="44.44805" lon="2.82438">
        <ele>582.9</ele>
        <time>2014-04-13T10:03:20Z</time>
      </trkpt>
      <trkpt lat="44.44804" lon="2.82438">
        <ele>582.9</ele>
        <time>2014-04-13T10:03:21Z</time>
      </trkpt>
      <trkpt lat="44.44789" lon="2.82438">
        <ele>582.9</ele>
        <time>2014-04-13T10:03:30Z</time>
      </trkpt>
      <trkpt lat="44.44781" lon="2.82439">
        <ele>582.3</ele>
        <time>2014-04-13T10:03:35Z</time>
      </trkpt>
      <trkpt lat="44.44773" lon="2.82442">
        <ele>583.1</ele>
        <time>2014-04-13T10:03:40Z</time>
      </trkpt>
      <trkpt lat="44.44765" lon="2.82448">
        <ele>582.4</ele>
        <time>2014-04-13T10:03:45Z</time>
      </trkpt>
      <trkpt lat="44.44758" lon="2.82452">
        <ele>582</ele>
        <time>2014-04-13T10:03:49Z</time>
      </trkpt>
      <trkpt lat="44.44749" lon="2.82453">
        <ele>581.8</ele>
        <time>2014-04-13T10:03:54Z</time>
      </trkpt>
      <trkpt lat="44.44742" lon="2.82453">
        <ele>581.5</ele>
        <time>2014-04-13T10:03:59Z</time>
      </trkpt>
      <trkpt lat="44.44733" lon="2.82455">
        <ele>580.6</ele>
        <time>2014-04-13T10:04:05Z</time>
      </trkpt>
      <trkpt lat="44.44725" lon="2.82458">
        <ele>580.2</ele>
        <time>2014-04-13T10:04:10Z</time>
      </trkpt>
      <trkpt lat="44.44718" lon="2.8246">
        <ele>578.8</ele>
        <time>2014-04-13T10:04:15Z</time>
      </trkpt>
      <trkpt lat="44.4471" lon="2.82463">
        <ele>578.5</ele>
        <time>2014-04-13T10:04:20Z</time>
      </trkpt>
      <trkpt lat="44.44702" lon="2.82467">
        <ele>577.7</ele>
        <time>2014-04-13T10:04:25Z</time>
      </trkpt>
      <trkpt lat="44.447" lon="2.82468">
        <ele>577.5</ele>
        <time>2014-04-13T10:04:26Z</time>
      </trkpt>
      <trkpt lat="44.44687" lon="2.82476">
        <ele>576.6</ele>
        <time>2014-04-13T10:04:35Z</time>
      </trkpt>
      <trkpt lat="44.4468" lon="2.8248">
        <ele>576</ele>
        <time>2014-04-13T10:04:41Z</time>
      </trkpt>
      <trkpt lat="44.44673" lon="2.82486">
        <ele>574.3</ele>
        <time>2014-04-13T10:04:47Z</time>
      </trkpt>
      <trkpt lat="44.44665" lon="2.82491">
        <ele>574.6</ele>
        <time>2014-04-13T10:04:52Z</time>
      </trkpt>
      <trkpt lat="44.44658" lon="2.82493">
        <ele>574.5</ele>
        <time>2014-04-13T10:04:56Z</time>
      </trkpt>
      <trkpt lat="44.4465" lon="2.82493">
        <ele>573.3</ele>
        <time>2014-04-13T10:05:01Z</time>
      </trkpt>
      <trkpt lat="44.44644" lon="2.82485">
        <ele>572.4</ele>
        <time>2014-04-13T10:05:05Z</time>
      </trkpt>
      <trkpt lat="44.4464" lon="2.82478">
        <ele>572.2</ele>
        <time>2014-04-13T10:05:07Z</time>
      </trkpt>
      <trkpt lat="44.44635" lon="2.8247">
        <ele>571.9</ele>
        <time>2014-04-13T10:05:09Z</time>
      </trkpt>
      <trkpt lat="44.44631" lon="2.82463">
        <ele>571.9</ele>
        <time>2014-04-13T10:05:11Z</time>
      </trkpt>
      <trkpt lat="44.44626" lon="2.82455">
        <ele>572</ele>
        <time>2014-04-13T10:05:13Z</time>
      </trkpt>
      <trkpt lat="44.44621" lon="2.82446">
        <ele>571.9</ele>
        <time>2014-04-13T10:05:15Z</time>
      </trkpt>
      <trkpt lat="44.44615" lon="2.82437">
        <ele>571.1</ele>
        <time>2014-04-13T10:05:17Z</time>
      </trkpt>
      <trkpt lat="44.44609" lon="2.82429">
        <ele>571.1</ele>
        <time>2014-04-13T10:05:19Z</time>
      </trkpt>
      <trkpt lat="44.44603" lon="2.8242">
        <ele>571.1</ele>
        <time>2014-04-13T10:05:21Z</time>
      </trkpt>
      <trkpt lat="44.44596" lon="2.82413">
        <ele>571</ele>
        <time>2014-04-13T10:05:23Z</time>
      </trkpt>
      <trkpt lat="44.44588" lon="2.82407">
        <ele>570.6</ele>
        <time>2014-04-13T10:05:25Z</time>
      </trkpt>
      <trkpt lat="44.44584" lon="2.82405">
        <ele>570.3</ele>
        <time>2014-04-13T10:05:26Z</time>
      </trkpt>
      <trkpt lat="44.44579" lon="2.82404">
        <ele>570.1</ele>
        <time>2014-04-13T10:05:27Z</time>
      </trkpt>
      <trkpt lat="44.44575" lon="2.82403">
        <ele>570.1</ele>
        <time>2014-04-13T10:05:28Z</time>
      </trkpt>
      <trkpt lat="44.4457" lon="2.82403">
        <ele>570.1</ele>
        <time>2014-04-13T10:05:29Z</time>
      </trkpt>
      <trkpt lat="44.44565" lon="2.82404">
        <ele>569.9</ele>
        <time>2014-04-13T10:05:30Z</time>
      </trkpt>
      <trkpt lat="44.4456" lon="2.82406">
        <ele>569.8</ele>
        <time>2014-04-13T10:05:31Z</time>
      </trkpt>
      <trkpt lat="44.44556" lon="2.82408">
        <ele>569.8</ele>
        <time>2014-04-13T10:05:32Z</time>
      </trkpt>
      <trkpt lat="44.44547" lon="2.82412">
        <ele>569.8</ele>
        <time>2014-04-13T10:05:34Z</time>
      </trkpt>
      <trkpt lat="44.44543" lon="2.82414">
        <ele>569.7</ele>
        <time>2014-04-13T10:05:35Z</time>
      </trkpt>
      <trkpt lat="44.44539" lon="2.82417">
        <ele>569.6</ele>
        <time>2014-04-13T10:05:36Z</time>
      </trkpt>
      <trkpt lat="44.44534" lon="2.8242">
        <ele>569.4</ele>
        <time>2014-04-13T10:05:37Z</time>
      </trkpt>
      <trkpt lat="44.4453" lon="2.82423">
        <ele>569.2</ele>
        <time>2014-04-13T10:05:38Z</time>
      </trkpt>
      <trkpt lat="44.44526" lon="2.82425">
        <ele>569.1</ele>
        <time>2014-04-13T10:05:39Z</time>
      </trkpt>
      <trkpt lat="44.44522" lon="2.82428">
        <ele>569.4</ele>
        <time>2014-04-13T10:05:40Z</time>
      </trkpt>
      <trkpt lat="44.44517" lon="2.8243">
        <ele>569.6</ele>
        <time>2014-04-13T10:05:41Z</time>
      </trkpt>
      <trkpt lat="44.44512" lon="2.82432">
        <ele>569.6</ele>
        <time>2014-04-13T10:05:42Z</time>
      </trkpt>
      <trkpt lat="44.44507" lon="2.82434">
        <ele>569.7</ele>
        <time>2014-04-13T10:05:43Z</time>
      </trkpt>
      <trkpt lat="44.44502" lon="2.82436">
        <ele>569.9</ele>
        <time>2014-04-13T10:05:44Z</time>
      </trkpt>
      <trkpt lat="44.44497" lon="2.82437">
        <ele>570</ele>
        <time>2014-04-13T10:05:45Z</time>
      </trkpt>
      <trkpt lat="44.44492" lon="2.82438">
        <ele>570.1</ele>
        <time>2014-04-13T10:05:46Z</time>
      </trkpt>
      <trkpt lat="44.44487" lon="2.82439">
        <ele>570.3</ele>
        <time>2014-04-13T10:05:47Z</time>
      </trkpt>
      <trkpt lat="44.44481" lon="2.8244">
        <ele>570.5</ele>
        <time>2014-04-13T10:05:48Z</time>
      </trkpt>
      <trkpt lat="44.44476" lon="2.82441">
        <ele>570.2</ele>
        <time>2014-04-13T10:05:49Z</time>
      </trkpt>
      <trkpt lat="44.44468" lon="2.82442">
        <ele>569.7</ele>
        <time>2014-04-13T10:05:51Z</time>
      </trkpt>
      <trkpt lat="44.4446" lon="2.82443">
        <ele>569.4</ele>
        <time>2014-04-13T10:05:53Z</time>
      </trkpt>
      <trkpt lat="44.44453" lon="2.82446">
        <ele>569.3</ele>
        <time>2014-04-13T10:05:55Z</time>
      </trkpt>
      <trkpt lat="44.44444" lon="2.82448">
        <ele>569.6</ele>
        <time>2014-04-13T10:05:57Z</time>
      </trkpt>
      <trkpt lat="44.44439" lon="2.82448">
        <ele>569.7</ele>
        <time>2014-04-13T10:05:58Z</time>
      </trkpt>
      <trkpt lat="44.4443" lon="2.8245">
        <ele>569.9</ele>
        <time>2014-04-13T10:06:00Z</time>
      </trkpt>
      <trkpt lat="44.44426" lon="2.82451">
        <ele>570.3</ele>
        <time>2014-04-13T10:06:01Z</time>
      </trkpt>
      <trkpt lat="44.44421" lon="2.82452">
        <ele>570.6</ele>
        <time>2014-04-13T10:06:02Z</time>
      </trkpt>
      <trkpt lat="44.44413" lon="2.82455">
        <ele>570.4</ele>
        <time>2014-04-13T10:06:04Z</time>
      </trkpt>
      <trkpt lat="44.44405" lon="2.82458">
        <ele>570.5</ele>
        <time>2014-04-13T10:06:06Z</time>
      </trkpt>
      <trkpt lat="44.44399" lon="2.8246">
        <ele>570.4</ele>
        <time>2014-04-13T10:06:08Z</time>
      </trkpt>
      <trkpt lat="44.44393" lon="2.82462">
        <ele>570</ele>
        <time>2014-04-13T10:06:10Z</time>
      </trkpt>
      <trkpt lat="44.44386" lon="2.82464">
        <ele>569.6</ele>
        <time>2014-04-13T10:06:12Z</time>
      </trkpt>
      <trkpt lat="44.44378" lon="2.82466">
        <ele>569.3</ele>
        <time>2014-04-13T10:06:15Z</time>
      </trkpt>
      <trkpt lat="44.44371" lon="2.82467">
        <ele>569.7</ele>
        <time>2014-04-13T10:06:17Z</time>
      </trkpt>
      <trkpt lat="44.44364" lon="2.82468">
        <ele>569.6</ele>
        <time>2014-04-13T10:06:19Z</time>
      </trkpt>
      <trkpt lat="44.44358" lon="2.8247">
        <ele>569.3</ele>
        <time>2014-04-13T10:06:21Z</time>
      </trkpt>
      <trkpt lat="44.44349" lon="2.82472">
        <ele>569.1</ele>
        <time>2014-04-13T10:06:24Z</time>
      </trkpt>
      <trkpt lat="44.44343" lon="2.82473">
        <ele>569.4</ele>
        <time>2014-04-13T10:06:26Z</time>
      </trkpt>
      <trkpt lat="44.44335" lon="2.82474">
        <ele>568.5</ele>
        <time>2014-04-13T10:06:29Z</time>
      </trkpt>
      <trkpt lat="44.44332" lon="2.82475">
        <ele>568.3</ele>
        <time>2014-04-13T10:06:30Z</time>
      </trkpt>
      <trkpt lat="44.4432" lon="2.82479">
        <ele>567.2</ele>
        <time>2014-04-13T10:06:34Z</time>
      </trkpt>
      <trkpt lat="44.44311" lon="2.82481">
        <ele>566.1</ele>
        <time>2014-04-13T10:06:38Z</time>
      </trkpt>
      <trkpt lat="44.44303" lon="2.82484">
        <ele>565.4</ele>
        <time>2014-04-13T10:06:43Z</time>
      </trkpt>
      <trkpt lat="44.44295" lon="2.82486">
        <ele>564.4</ele>
        <time>2014-04-13T10:06:48Z</time>
      </trkpt>
      <trkpt lat="44.44286" lon="2.82488">
        <ele>564.7</ele>
        <time>2014-04-13T10:06:54Z</time>
      </trkpt>
      <trkpt lat="44.44278" lon="2.82489">
        <ele>564.1</ele>
        <time>2014-04-13T10:07:00Z</time>
      </trkpt>
      <trkpt lat="44.4427" lon="2.82491">
        <ele>562.7</ele>
        <time>2014-04-13T10:07:05Z</time>
      </trkpt>
      <trkpt lat="44.44261" lon="2.82493">
        <ele>562.1</ele>
        <time>2014-04-13T10:07:11Z</time>
      </trkpt>
      <trkpt lat="44.44252" lon="2.82494">
        <ele>560.9</ele>
        <time>2014-04-13T10:07:17Z</time>
      </trkpt>
      <trkpt lat="44.44244" lon="2.82494">
        <ele>561.2</ele>
        <time>2014-04-13T10:07:22Z</time>
      </trkpt>
      <trkpt lat="44.44235" lon="2.82495">
        <ele>560.9</ele>
        <time>2014-04-13T10:07:28Z</time>
      </trkpt>
      <trkpt lat="44.44227" lon="2.82496">
        <ele>558.8</ele>
        <time>2014-04-13T10:07:33Z</time>
      </trkpt>
      <trkpt lat="44.44226" lon="2.82496">
        <ele>558.8</ele>
        <time>2014-04-13T10:07:34Z</time>
      </trkpt>
      <trkpt lat="44.44211" lon="2.82496">
        <ele>558.3</ele>
        <time>2014-04-13T10:07:43Z</time>
      </trkpt>
      <trkpt lat="44.44203" lon="2.82497">
        <ele>557.9</ele>
        <time>2014-04-13T10:07:48Z</time>
      </trkpt>
      <trkpt lat="44.44196" lon="2.82498">
        <ele>556.4</ele>
        <time>2014-04-13T10:07:53Z</time>
      </trkpt>
      <trkpt lat="44.44188" lon="2.82499">
        <ele>555.5</ele>
        <time>2014-04-13T10:07:58Z</time>
      </trkpt>
      <trkpt lat="44.44179" lon="2.825">
        <ele>555.9</ele>
        <time>2014-04-13T10:08:03Z</time>
      </trkpt>
      <trkpt lat="44.44171" lon="2.825">
        <ele>556.6</ele>
        <time>2014-04-13T10:08:08Z</time>
      </trkpt>
      <trkpt lat="44.44164" lon="2.82499">
        <ele>555</ele>
        <time>2014-04-13T10:08:12Z</time>
      </trkpt>
      <trkpt lat="44.44155" lon="2.82497">
        <ele>555.6</ele>
        <time>2014-04-13T10:08:17Z</time>
      </trkpt>
      <trkpt lat="44.44148" lon="2.82494">
        <ele>555.4</ele>
        <time>2014-04-13T10:08:21Z</time>
      </trkpt>
      <trkpt lat="44.44141" lon="2.82491">
        <ele>554.8</ele>
        <time>2014-04-13T10:08:25Z</time>
      </trkpt>
      <trkpt lat="44.44133" lon="2.82488">
        <ele>554.4</ele>
        <time>2014-04-13T10:08:30Z</time>
      </trkpt>
      <trkpt lat="44.44125" lon="2.82482">
        <ele>554.6</ele>
        <time>2014-04-13T10:08:36Z</time>
      </trkpt>
      <trkpt lat="44.44123" lon="2.82481">
        <ele>554.8</ele>
        <time>2014-04-13T10:08:37Z</time>
      </trkpt>
      <trkpt lat="44.44112" lon="2.82467">
        <ele>553.7</ele>
        <time>2014-04-13T10:08:46Z</time>
      </trkpt>
      <trkpt lat="44.44106" lon="2.82458">
        <ele>554</ele>
        <time>2014-04-13T10:08:51Z</time>
      </trkpt>
      <trkpt lat="44.441" lon="2.82452">
        <ele>554.5</ele>
        <time>2014-04-13T10:08:56Z</time>
      </trkpt>
      <trkpt lat="44.44093" lon="2.82446">
        <ele>553.7</ele>
        <time>2014-04-13T10:09:01Z</time>
      </trkpt>
      <trkpt lat="44.44086" lon="2.82439">
        <ele>553.5</ele>
        <time>2014-04-13T10:09:07Z</time>
      </trkpt>
      <trkpt lat="44.4408" lon="2.82434">
        <ele>553.1</ele>
        <time>2014-04-13T10:09:12Z</time>
      </trkpt>
      <trkpt lat="44.44072" lon="2.8243">
        <ele>553</ele>
        <time>2014-04-13T10:09:16Z</time>
      </trkpt>
      <trkpt lat="44.44067" lon="2.82425">
        <ele>553.3</ele>
        <time>2014-04-13T10:09:19Z</time>
      </trkpt>
      <trkpt lat="44.44061" lon="2.82421">
        <ele>553.6</ele>
        <time>2014-04-13T10:09:21Z</time>
      </trkpt>
      <trkpt lat="44.44052" lon="2.82418">
        <ele>552.9</ele>
        <time>2014-04-13T10:09:25Z</time>
      </trkpt>
      <trkpt lat="44.44044" lon="2.82417">
        <ele>554.2</ele>
        <time>2014-04-13T10:09:31Z</time>
      </trkpt>
      <trkpt lat="44.44051" lon="2.82423">
        <ele>553.1</ele>
        <time>2014-04-13T10:10:01Z</time>
      </trkpt>
      <trkpt lat="44.44052" lon="2.82423">
        <ele>553.1</ele>
        <time>2014-04-13T10:10:02Z</time>
      </trkpt>
      <trkpt lat="44.44068" lon="2.82429">
        <ele>553.5</ele>
        <time>2014-04-13T10:10:13Z</time>
      </trkpt>
      <trkpt lat="44.44075" lon="2.82434">
        <ele>553.9</ele>
        <time>2014-04-13T10:10:21Z</time>
      </trkpt>
      <trkpt lat="44.44084" lon="2.82435">
        <ele>553.4</ele>
        <time>2014-04-13T10:10:27Z</time>
      </trkpt>
      <trkpt lat="44.4409" lon="2.82427">
        <ele>552.9</ele>
        <time>2014-04-13T10:10:34Z</time>
      </trkpt>
      <trkpt lat="44.44093" lon="2.82418">
        <ele>552.6</ele>
        <time>2014-04-13T10:10:38Z</time>
      </trkpt>
      <trkpt lat="44.44096" lon="2.82408">
        <ele>552.9</ele>
        <time>2014-04-13T10:10:41Z</time>
      </trkpt>
      <trkpt lat="44.44099" lon="2.82399">
        <ele>552.2</ele>
        <time>2014-04-13T10:10:44Z</time>
      </trkpt>
      <trkpt lat="44.44101" lon="2.82388">
        <ele>552.8</ele>
        <time>2014-04-13T10:10:47Z</time>
      </trkpt>
      <trkpt lat="44.44102" lon="2.82379">
        <ele>553</ele>
        <time>2014-04-13T10:10:49Z</time>
      </trkpt>
      <trkpt lat="44.44103" lon="2.82369">
        <ele>553.4</ele>
        <time>2014-04-13T10:10:51Z</time>
      </trkpt>
      <trkpt lat="44.44104" lon="2.82359">
        <ele>553.6</ele>
        <time>2014-04-13T10:10:53Z</time>
      </trkpt>
      <trkpt lat="44.44107" lon="2.82347">
        <ele>552.7</ele>
        <time>2014-04-13T10:10:56Z</time>
      </trkpt>
      <trkpt lat="44.44109" lon="2.82335">
        <ele>552.5</ele>
        <time>2014-04-13T10:10:59Z</time>
      </trkpt>
      <trkpt lat="44.44111" lon="2.82324">
        <ele>552.3</ele>
        <time>2014-04-13T10:11:02Z</time>
      </trkpt>
      <trkpt lat="44.44112" lon="2.8232">
        <ele>552.4</ele>
        <time>2014-04-13T10:11:03Z</time>
      </trkpt>
      <trkpt lat="44.44115" lon="2.82304">
        <ele>552.7</ele>
        <time>2014-04-13T10:11:07Z</time>
      </trkpt>
      <trkpt lat="44.44117" lon="2.82292">
        <ele>553.1</ele>
        <time>2014-04-13T10:11:10Z</time>
      </trkpt>
      <trkpt lat="44.44118" lon="2.82279">
        <ele>552.5</ele>
        <time>2014-04-13T10:11:13Z</time>
      </trkpt>
      <trkpt lat="44.4412" lon="2.82269">
        <ele>552.8</ele>
        <time>2014-04-13T10:11:15Z</time>
      </trkpt>
      <trkpt lat="44.44124" lon="2.82261">
        <ele>553</ele>
        <time>2014-04-13T10:11:17Z</time>
      </trkpt>
      <trkpt lat="44.44128" lon="2.82253">
        <ele>553</ele>
        <time>2014-04-13T10:11:19Z</time>
      </trkpt>
      <trkpt lat="44.44132" lon="2.82246">
        <ele>553.1</ele>
        <time>2014-04-13T10:11:21Z</time>
      </trkpt>
      <trkpt lat="44.44137" lon="2.82238">
        <ele>553.3</ele>
        <time>2014-04-13T10:11:23Z</time>
      </trkpt>
      <trkpt lat="44.44143" lon="2.82233">
        <ele>552.7</ele>
        <time>2014-04-13T10:11:25Z</time>
      </trkpt>
      <trkpt lat="44.44148" lon="2.82225">
        <ele>551.9</ele>
        <time>2014-04-13T10:11:27Z</time>
      </trkpt>
      <trkpt lat="44.44154" lon="2.82216">
        <ele>551.6</ele>
        <time>2014-04-13T10:11:29Z</time>
      </trkpt>
      <trkpt lat="44.44158" lon="2.82209">
        <ele>551.2</ele>
        <time>2014-04-13T10:11:31Z</time>
      </trkpt>
      <trkpt lat="44.44163" lon="2.82201">
        <ele>551.3</ele>
        <time>2014-04-13T10:11:33Z</time>
      </trkpt>
      <trkpt lat="44.44167" lon="2.82192">
        <ele>552</ele>
        <time>2014-04-13T10:11:35Z</time>
      </trkpt>
      <trkpt lat="44.44173" lon="2.82185">
        <ele>552.5</ele>
        <time>2014-04-13T10:11:37Z</time>
      </trkpt>
      <trkpt lat="44.44179" lon="2.82179">
        <ele>552.4</ele>
        <time>2014-04-13T10:11:39Z</time>
      </trkpt>
      <trkpt lat="44.44184" lon="2.82172">
        <ele>552.7</ele>
        <time>2014-04-13T10:11:41Z</time>
      </trkpt>
      <trkpt lat="44.44191" lon="2.82166">
        <ele>552.7</ele>
        <time>2014-04-13T10:11:43Z</time>
      </trkpt>
      <trkpt lat="44.44198" lon="2.82158">
        <ele>552.4</ele>
        <time>2014-04-13T10:11:45Z</time>
      </trkpt>
      <trkpt lat="44.44204" lon="2.8215">
        <ele>552.3</ele>
        <time>2014-04-13T10:11:47Z</time>
      </trkpt>
      <trkpt lat="44.44208" lon="2.82145">
        <ele>552.3</ele>
        <time>2014-04-13T10:11:48Z</time>
      </trkpt>
      <trkpt lat="44.4421" lon="2.8214">
        <ele>552.3</ele>
        <time>2014-04-13T10:11:49Z</time>
      </trkpt>
      <trkpt lat="44.44213" lon="2.82135">
        <ele>552.1</ele>
        <time>2014-04-13T10:11:50Z</time>
      </trkpt>
      <trkpt lat="44.44219" lon="2.82125">
        <ele>552</ele>
        <time>2014-04-13T10:11:52Z</time>
      </trkpt>
      <trkpt lat="44.44224" lon="2.82115">
        <ele>551.9</ele>
        <time>2014-04-13T10:11:54Z</time>
      </trkpt>
      <trkpt lat="44.44229" lon="2.82105">
        <ele>551.6</ele>
        <time>2014-04-13T10:11:56Z</time>
      </trkpt>
      <trkpt lat="44.44233" lon="2.82095">
        <ele>551.6</ele>
        <time>2014-04-13T10:11:58Z</time>
      </trkpt>
      <trkpt lat="44.44237" lon="2.82086">
        <ele>552.4</ele>
        <time>2014-04-13T10:12:00Z</time>
      </trkpt>
      <trkpt lat="44.44241" lon="2.82077">
        <ele>552.9</ele>
        <time>2014-04-13T10:12:02Z</time>
      </trkpt>
      <trkpt lat="44.44242" lon="2.82066">
        <ele>552.8</ele>
        <time>2014-04-13T10:12:04Z</time>
      </trkpt>
      <trkpt lat="44.44242" lon="2.82061">
        <ele>552.6</ele>
        <time>2014-04-13T10:12:05Z</time>
      </trkpt>
      <trkpt lat="44.4424" lon="2.82047">
        <ele>552.3</ele>
        <time>2014-04-13T10:12:08Z</time>
      </trkpt>
      <trkpt lat="44.44239" lon="2.82038">
        <ele>552.9</ele>
        <time>2014-04-13T10:12:10Z</time>
      </trkpt>
      <trkpt lat="44.4424" lon="2.82029">
        <ele>553</ele>
        <time>2014-04-13T10:12:12Z</time>
      </trkpt>
      <trkpt lat="44.44243" lon="2.82021">
        <ele>553.5</ele>
        <time>2014-04-13T10:12:14Z</time>
      </trkpt>
      <trkpt lat="44.44248" lon="2.82013">
        <ele>554.1</ele>
        <time>2014-04-13T10:12:16Z</time>
      </trkpt>
      <trkpt lat="44.44253" lon="2.82005">
        <ele>554.6</ele>
        <time>2014-04-13T10:12:18Z</time>
      </trkpt>
      <trkpt lat="44.44257" lon="2.81996">
        <ele>555</ele>
        <time>2014-04-13T10:12:20Z</time>
      </trkpt>
      <trkpt lat="44.44261" lon="2.81989">
        <ele>555.2</ele>
        <time>2014-04-13T10:12:22Z</time>
      </trkpt>
      <trkpt lat="44.44265" lon="2.81982">
        <ele>555.7</ele>
        <time>2014-04-13T10:12:24Z</time>
      </trkpt>
      <trkpt lat="44.44268" lon="2.81975">
        <ele>556.3</ele>
        <time>2014-04-13T10:12:26Z</time>
      </trkpt>
      <trkpt lat="44.44271" lon="2.81967">
        <ele>556.6</ele>
        <time>2014-04-13T10:12:28Z</time>
      </trkpt>
      <trkpt lat="44.44275" lon="2.8196">
        <ele>557</ele>
        <time>2014-04-13T10:12:30Z</time>
      </trkpt>
      <trkpt lat="44.44279" lon="2.81952">
        <ele>557.3</ele>
        <time>2014-04-13T10:12:32Z</time>
      </trkpt>
      <trkpt lat="44.44283" lon="2.81944">
        <ele>557.3</ele>
        <time>2014-04-13T10:12:34Z</time>
      </trkpt>
      <trkpt lat="44.44287" lon="2.81935">
        <ele>557.4</ele>
        <time>2014-04-13T10:12:36Z</time>
      </trkpt>
      <trkpt lat="44.44291" lon="2.81927">
        <ele>557.9</ele>
        <time>2014-04-13T10:12:38Z</time>
      </trkpt>
      <trkpt lat="44.44295" lon="2.81917">
        <ele>558</ele>
        <time>2014-04-13T10:12:40Z</time>
      </trkpt>
      <trkpt lat="44.44299" lon="2.81908">
        <ele>558.5</ele>
        <time>2014-04-13T10:12:42Z</time>
      </trkpt>
      <trkpt lat="44.44304" lon="2.81899">
        <ele>559.4</ele>
        <time>2014-04-13T10:12:44Z</time>
      </trkpt>
      <trkpt lat="44.44307" lon="2.81891">
        <ele>560</ele>
        <time>2014-04-13T10:12:46Z</time>
      </trkpt>
      <trkpt lat="44.44311" lon="2.81881">
        <ele>559.8</ele>
        <time>2014-04-13T10:12:48Z</time>
      </trkpt>
      <trkpt lat="44.44313" lon="2.81872">
        <ele>559.8</ele>
        <time>2014-04-13T10:12:50Z</time>
      </trkpt>
      <trkpt lat="44.44316" lon="2.81862">
        <ele>560.5</ele>
        <time>2014-04-13T10:12:52Z</time>
      </trkpt>
      <trkpt lat="44.44318" lon="2.81853">
        <ele>560.7</ele>
        <time>2014-04-13T10:12:54Z</time>
      </trkpt>
      <trkpt lat="44.44321" lon="2.81844">
        <ele>560.8</ele>
        <time>2014-04-13T10:12:56Z</time>
      </trkpt>
      <trkpt lat="44.44324" lon="2.81834">
        <ele>560.9</ele>
        <time>2014-04-13T10:12:58Z</time>
      </trkpt>
      <trkpt lat="44.44327" lon="2.81825">
        <ele>561.2</ele>
        <time>2014-04-13T10:13:00Z</time>
      </trkpt>
      <trkpt lat="44.44329" lon="2.81815">
        <ele>561.7</ele>
        <time>2014-04-13T10:13:02Z</time>
      </trkpt>
      <trkpt lat="44.44331" lon="2.81805">
        <ele>561.5</ele>
        <time>2014-04-13T10:13:04Z</time>
      </trkpt>
      <trkpt lat="44.44334" lon="2.81796">
        <ele>561.8</ele>
        <time>2014-04-13T10:13:06Z</time>
      </trkpt>
      <trkpt lat="44.44335" lon="2.81791">
        <ele>562.1</ele>
        <time>2014-04-13T10:13:07Z</time>
      </trkpt>
      <trkpt lat="44.4434" lon="2.81777">
        <ele>562.5</ele>
        <time>2014-04-13T10:13:10Z</time>
      </trkpt>
      <trkpt lat="44.44344" lon="2.81767">
        <ele>562.7</ele>
        <time>2014-04-13T10:13:12Z</time>
      </trkpt>
      <trkpt lat="44.44348" lon="2.81757">
        <ele>562.8</ele>
        <time>2014-04-13T10:13:14Z</time>
      </trkpt>
      <trkpt lat="44.44351" lon="2.81748">
        <ele>563.1</ele>
        <time>2014-04-13T10:13:16Z</time>
      </trkpt>
      <trkpt lat="44.44355" lon="2.8174">
        <ele>562.9</ele>
        <time>2014-04-13T10:13:18Z</time>
      </trkpt>
      <trkpt lat="44.44358" lon="2.81732">
        <ele>562.6</ele>
        <time>2014-04-13T10:13:20Z</time>
      </trkpt>
      <trkpt lat="44.44363" lon="2.81725">
        <ele>562.1</ele>
        <time>2014-04-13T10:13:22Z</time>
      </trkpt>
      <trkpt lat="44.44368" lon="2.81715">
        <ele>561.6</ele>
        <time>2014-04-13T10:13:25Z</time>
      </trkpt>
      <trkpt lat="44.44373" lon="2.81705">
        <ele>561.1</ele>
        <time>2014-04-13T10:13:29Z</time>
      </trkpt>
      <trkpt lat="44.44377" lon="2.81695">
        <ele>560.8</ele>
        <time>2014-04-13T10:13:34Z</time>
      </trkpt>
      <trkpt lat="44.44385" lon="2.81689">
        <ele>559.6</ele>
        <time>2014-04-13T10:14:09Z</time>
      </trkpt>
      <trkpt lat="44.44385" lon="2.81688">
        <ele>559.2</ele>
        <time>2014-04-13T10:14:10Z</time>
      </trkpt>
      <trkpt lat="44.44389" lon="2.81665">
        <ele>559.6</ele>
        <time>2014-04-13T10:14:25Z</time>
      </trkpt>
      <trkpt lat="44.4439" lon="2.81654">
        <ele>561</ele>
        <time>2014-04-13T10:14:31Z</time>
      </trkpt>
      <trkpt lat="44.44392" lon="2.81642">
        <ele>561.6</ele>
        <time>2014-04-13T10:14:38Z</time>
      </trkpt>
      <trkpt lat="44.44393" lon="2.81631">
        <ele>561.6</ele>
        <time>2014-04-13T10:14:44Z</time>
      </trkpt>
      <trkpt lat="44.44394" lon="2.8162">
        <ele>562</ele>
        <time>2014-04-13T10:14:49Z</time>
      </trkpt>
      <trkpt lat="44.44395" lon="2.81608">
        <ele>562.5</ele>
        <time>2014-04-13T10:14:55Z</time>
      </trkpt>
      <trkpt lat="44.44396" lon="2.81596">
        <ele>561.6</ele>
        <time>2014-04-13T10:15:01Z</time>
      </trkpt>
      <trkpt lat="44.44399" lon="2.81584">
        <ele>561.9</ele>
        <time>2014-04-13T10:15:08Z</time>
      </trkpt>
      <trkpt lat="44.44401" lon="2.81574">
        <ele>560.7</ele>
        <time>2014-04-13T10:15:14Z</time>
      </trkpt>
      <trkpt lat="44.44402" lon="2.81572">
        <ele>560.7</ele>
        <time>2014-04-13T10:15:15Z</time>
      </trkpt>
      <trkpt lat="44.44407" lon="2.81552">
        <ele>561.1</ele>
        <time>2014-04-13T10:15:25Z</time>
      </trkpt>
      <trkpt lat="44.44409" lon="2.8154">
        <ele>561.6</ele>
        <time>2014-04-13T10:15:30Z</time>
      </trkpt>
      <trkpt lat="44.44411" lon="2.81528">
        <ele>562.3</ele>
        <time>2014-04-13T10:15:35Z</time>
      </trkpt>
      <trkpt lat="44.44412" lon="2.81518">
        <ele>562.3</ele>
        <time>2014-04-13T10:15:40Z</time>
      </trkpt>
      <trkpt lat="44.44414" lon="2.81507">
        <ele>562.5</ele>
        <time>2014-04-13T10:15:46Z</time>
      </trkpt>
      <trkpt lat="44.44415" lon="2.81496">
        <ele>563.6</ele>
        <time>2014-04-13T10:15:51Z</time>
      </trkpt>
      <trkpt lat="44.44416" lon="2.81485">
        <ele>563.7</ele>
        <time>2014-04-13T10:15:56Z</time>
      </trkpt>
      <trkpt lat="44.44416" lon="2.81475">
        <ele>564</ele>
        <time>2014-04-13T10:16:01Z</time>
      </trkpt>
      <trkpt lat="44.44416" lon="2.81464">
        <ele>563.4</ele>
        <time>2014-04-13T10:16:06Z</time>
      </trkpt>
      <trkpt lat="44.44416" lon="2.81453">
        <ele>562.9</ele>
        <time>2014-04-13T10:16:11Z</time>
      </trkpt>
      <trkpt lat="44.44418" lon="2.81441">
        <ele>562.8</ele>
        <time>2014-04-13T10:16:17Z</time>
      </trkpt>
      <trkpt lat="44.44419" lon="2.8144">
        <ele>563</ele>
        <time>2014-04-13T10:16:18Z</time>
      </trkpt>
      <trkpt lat="44.44423" lon="2.8142">
        <ele>561.3</ele>
        <time>2014-04-13T10:16:29Z</time>
      </trkpt>
      <trkpt lat="44.44424" lon="2.81408">
        <ele>560.3</ele>
        <time>2014-04-13T10:16:34Z</time>
      </trkpt>
      <trkpt lat="44.44425" lon="2.81396">
        <ele>559.7</ele>
        <time>2014-04-13T10:16:39Z</time>
      </trkpt>
      <trkpt lat="44.44427" lon="2.81385">
        <ele>558.7</ele>
        <time>2014-04-13T10:16:45Z</time>
      </trkpt>
      <trkpt lat="44.44429" lon="2.81374">
        <ele>557.9</ele>
        <time>2014-04-13T10:16:51Z</time>
      </trkpt>
      <trkpt lat="44.44432" lon="2.81363">
        <ele>557.3</ele>
        <time>2014-04-13T10:16:57Z</time>
      </trkpt>
      <trkpt lat="44.44433" lon="2.81352">
        <ele>556.6</ele>
        <time>2014-04-13T10:17:02Z</time>
      </trkpt>
      <trkpt lat="44.44433" lon="2.81341">
        <ele>555</ele>
        <time>2014-04-13T10:17:06Z</time>
      </trkpt>
      <trkpt lat="44.44434" lon="2.81331">
        <ele>554.9</ele>
        <time>2014-04-13T10:17:10Z</time>
      </trkpt>
      <trkpt lat="44.44434" lon="2.8132">
        <ele>555.3</ele>
        <time>2014-04-13T10:17:14Z</time>
      </trkpt>
      <trkpt lat="44.44434" lon="2.81309">
        <ele>554.8</ele>
        <time>2014-04-13T10:17:18Z</time>
      </trkpt>
      <trkpt lat="44.44434" lon="2.81307">
        <ele>554.4</ele>
        <time>2014-04-13T10:17:19Z</time>
      </trkpt>
      <trkpt lat="44.44436" lon="2.81285">
        <ele>554.7</ele>
        <time>2014-04-13T10:17:28Z</time>
      </trkpt>
      <trkpt lat="44.44438" lon="2.81274">
        <ele>554.1</ele>
        <time>2014-04-13T10:17:33Z</time>
      </trkpt>
      <trkpt lat="44.44441" lon="2.81263">
        <ele>554.8</ele>
        <time>2014-04-13T10:17:38Z</time>
      </trkpt>
      <trkpt lat="44.44445" lon="2.81252">
        <ele>553.7</ele>
        <time>2014-04-13T10:17:43Z</time>
      </trkpt>
      <trkpt lat="44.44449" lon="2.81243">
        <ele>553.4</ele>
        <time>2014-04-13T10:17:48Z</time>
      </trkpt>
      <trkpt lat="44.44453" lon="2.81233">
        <ele>552.9</ele>
        <time>2014-04-13T10:17:53Z</time>
      </trkpt>
      <trkpt lat="44.44457" lon="2.81224">
        <ele>552.5</ele>
        <time>2014-04-13T10:17:58Z</time>
      </trkpt>
      <trkpt lat="44.44464" lon="2.81218">
        <ele>552.1</ele>
        <time>2014-04-13T10:18:03Z</time>
      </trkpt>
      <trkpt lat="44.4447" lon="2.81211">
        <ele>551.8</ele>
        <time>2014-04-13T10:18:08Z</time>
      </trkpt>
      <trkpt lat="44.44473" lon="2.812">
        <ele>550.9</ele>
        <time>2014-04-13T10:18:14Z</time>
      </trkpt>
      <trkpt lat="44.44473" lon="2.81189">
        <ele>550</ele>
        <time>2014-04-13T10:18:20Z</time>
      </trkpt>
      <trkpt lat="44.44473" lon="2.81187">
        <ele>549.9</ele>
        <time>2014-04-13T10:18:21Z</time>
      </trkpt>
      <trkpt lat="44.44475" lon="2.81165">
        <ele>550.4</ele>
        <time>2014-04-13T10:18:30Z</time>
      </trkpt>
      <trkpt lat="44.44479" lon="2.81154">
        <ele>550.6</ele>
        <time>2014-04-13T10:18:35Z</time>
      </trkpt>
      <trkpt lat="44.44484" lon="2.81145">
        <ele>550</ele>
        <time>2014-04-13T10:18:40Z</time>
      </trkpt>
      <trkpt lat="44.4449" lon="2.81136">
        <ele>550.2</ele>
        <time>2014-04-13T10:18:47Z</time>
      </trkpt>
      <trkpt lat="44.44495" lon="2.81127">
        <ele>550</ele>
        <time>2014-04-13T10:18:52Z</time>
      </trkpt>
      <trkpt lat="44.445" lon="2.81117">
        <ele>550.1</ele>
        <time>2014-04-13T10:18:57Z</time>
      </trkpt>
      <trkpt lat="44.44504" lon="2.81107">
        <ele>550.5</ele>
        <time>2014-04-13T10:19:01Z</time>
      </trkpt>
      <trkpt lat="44.44509" lon="2.81098">
        <ele>550.7</ele>
        <time>2014-04-13T10:19:05Z</time>
      </trkpt>
      <trkpt lat="44.44511" lon="2.81087">
        <ele>550.8</ele>
        <time>2014-04-13T10:19:09Z</time>
      </trkpt>
      <trkpt lat="44.44514" lon="2.81076">
        <ele>551.2</ele>
        <time>2014-04-13T10:19:14Z</time>
      </trkpt>
      <trkpt lat="44.44516" lon="2.81064">
        <ele>551.3</ele>
        <time>2014-04-13T10:19:19Z</time>
      </trkpt>
      <trkpt lat="44.4452" lon="2.81052">
        <ele>550</ele>
        <time>2014-04-13T10:19:25Z</time>
      </trkpt>
      <trkpt lat="44.4452" lon="2.8105">
        <ele>549.7</ele>
        <time>2014-04-13T10:19:26Z</time>
      </trkpt>
      <trkpt lat="44.44526" lon="2.8103">
        <ele>550</ele>
        <time>2014-04-13T10:19:37Z</time>
      </trkpt>
      <trkpt lat="44.44528" lon="2.81019">
        <ele>550.3</ele>
        <time>2014-04-13T10:19:42Z</time>
      </trkpt>
      <trkpt lat="44.44532" lon="2.81009">
        <ele>550.1</ele>
        <time>2014-04-13T10:19:47Z</time>
      </trkpt>
      <trkpt lat="44.44536" lon="2.80999">
        <ele>550.4</ele>
        <time>2014-04-13T10:19:52Z</time>
      </trkpt>
      <trkpt lat="44.44541" lon="2.8099">
        <ele>551.3</ele>
        <time>2014-04-13T10:19:57Z</time>
      </trkpt>
      <trkpt lat="44.44546" lon="2.80983">
        <ele>551</ele>
        <time>2014-04-13T10:20:00Z</time>
      </trkpt>
      <trkpt lat="44.44552" lon="2.80976">
        <ele>551.3</ele>
        <time>2014-04-13T10:20:02Z</time>
      </trkpt>
      <trkpt lat="44.44555" lon="2.80972">
        <ele>551.3</ele>
        <time>2014-04-13T10:20:03Z</time>
      </trkpt>
      <trkpt lat="44.4456" lon="2.80967">
        <ele>551.4</ele>
        <time>2014-04-13T10:20:04Z</time>
      </trkpt>
      <trkpt lat="44.44565" lon="2.8096">
        <ele>551.4</ele>
        <time>2014-04-13T10:20:05Z</time>
      </trkpt>
      <trkpt lat="44.4457" lon="2.80953">
        <ele>552</ele>
        <time>2014-04-13T10:20:06Z</time>
      </trkpt>
      <trkpt lat="44.44576" lon="2.80944">
        <ele>552.5</ele>
        <time>2014-04-13T10:20:07Z</time>
      </trkpt>
      <trkpt lat="44.4458" lon="2.80934">
        <ele>552.8</ele>
        <time>2014-04-13T10:20:08Z</time>
      </trkpt>
      <trkpt lat="44.44585" lon="2.80924">
        <ele>553.1</ele>
        <time>2014-04-13T10:20:09Z</time>
      </trkpt>
      <trkpt lat="44.44589" lon="2.80914">
        <ele>553.9</ele>
        <time>2014-04-13T10:20:10Z</time>
      </trkpt>
      <trkpt lat="44.44594" lon="2.80904">
        <ele>554.5</ele>
        <time>2014-04-13T10:20:11Z</time>
      </trkpt>
      <trkpt lat="44.446" lon="2.80894">
        <ele>555</ele>
        <time>2014-04-13T10:20:12Z</time>
      </trkpt>
      <trkpt lat="44.44605" lon="2.80884">
        <ele>556.2</ele>
        <time>2014-04-13T10:20:13Z</time>
      </trkpt>
      <trkpt lat="44.44611" lon="2.80874">
        <ele>557.1</ele>
        <time>2014-04-13T10:20:14Z</time>
      </trkpt>
      <trkpt lat="44.44616" lon="2.80864">
        <ele>557.7</ele>
        <time>2014-04-13T10:20:15Z</time>
      </trkpt>
      <trkpt lat="44.44622" lon="2.80854">
        <ele>558.2</ele>
        <time>2014-04-13T10:20:16Z</time>
      </trkpt>
      <trkpt lat="44.44628" lon="2.80843">
        <ele>558.6</ele>
        <time>2014-04-13T10:20:17Z</time>
      </trkpt>
      <trkpt lat="44.44634" lon="2.80832">
        <ele>559.8</ele>
        <time>2014-04-13T10:20:18Z</time>
      </trkpt>
      <trkpt lat="44.44638" lon="2.80821">
        <ele>560.6</ele>
        <time>2014-04-13T10:20:19Z</time>
      </trkpt>
      <trkpt lat="44.44642" lon="2.80808">
        <ele>561</ele>
        <time>2014-04-13T10:20:20Z</time>
      </trkpt>
      <trkpt lat="44.44646" lon="2.80795">
        <ele>561.2</ele>
        <time>2014-04-13T10:20:21Z</time>
      </trkpt>
      <trkpt lat="44.4465" lon="2.80782">
        <ele>561.2</ele>
        <time>2014-04-13T10:20:22Z</time>
      </trkpt>
      <trkpt lat="44.44655" lon="2.80768">
        <ele>561.2</ele>
        <time>2014-04-13T10:20:23Z</time>
      </trkpt>
      <trkpt lat="44.44658" lon="2.80754">
        <ele>561.2</ele>
        <time>2014-04-13T10:20:24Z</time>
      </trkpt>
      <trkpt lat="44.44662" lon="2.80741">
        <ele>561.7</ele>
        <time>2014-04-13T10:20:25Z</time>
      </trkpt>
      <trkpt lat="44.44666" lon="2.80728">
        <ele>562.1</ele>
        <time>2014-04-13T10:20:26Z</time>
      </trkpt>
      <trkpt lat="44.44668" lon="2.80716">
        <ele>562.4</ele>
        <time>2014-04-13T10:20:27Z</time>
      </trkpt>
      <trkpt lat="44.44671" lon="2.80703">
        <ele>562.7</ele>
        <time>2014-04-13T10:20:28Z</time>
      </trkpt>
      <trkpt lat="44.44673" lon="2.80691">
        <ele>563</ele>
        <time>2014-04-13T10:20:29Z</time>
      </trkpt>
      <trkpt lat="44.44675" lon="2.8068">
        <ele>563.2</ele>
        <time>2014-04-13T10:20:30Z</time>
      </trkpt>
      <trkpt lat="44.44677" lon="2.80669">
        <ele>563.4</ele>
        <time>2014-04-13T10:20:31Z</time>
      </trkpt>
      <trkpt lat="44.4468" lon="2.80658">
        <ele>563.7</ele>
        <time>2014-04-13T10:20:32Z</time>
      </trkpt>
      <trkpt lat="44.44683" lon="2.80647">
        <ele>564</ele>
        <time>2014-04-13T10:20:33Z</time>
      </trkpt>
      <trkpt lat="44.44686" lon="2.80637">
        <ele>564.3</ele>
        <time>2014-04-13T10:20:34Z</time>
      </trkpt>
      <trkpt lat="44.44689" lon="2.80627">
        <ele>564.5</ele>
        <time>2014-04-13T10:20:35Z</time>
      </trkpt>
      <trkpt lat="44.44691" lon="2.80618">
        <ele>564.6</ele>
        <time>2014-04-13T10:20:36Z</time>
      </trkpt>
      <trkpt lat="44.44694" lon="2.8061">
        <ele>564.5</ele>
        <time>2014-04-13T10:20:37Z</time>
      </trkpt>
      <trkpt lat="44.44696" lon="2.80603">
        <ele>564.4</ele>
        <time>2014-04-13T10:20:38Z</time>
      </trkpt>
      <trkpt lat="44.44698" lon="2.80597">
        <ele>563.7</ele>
        <time>2014-04-13T10:20:39Z</time>
      </trkpt>
      <trkpt lat="44.44702" lon="2.80586">
        <ele>562.7</ele>
        <time>2014-04-13T10:20:41Z</time>
      </trkpt>
      <trkpt lat="44.44704" lon="2.80578">
        <ele>562.1</ele>
        <time>2014-04-13T10:20:43Z</time>
      </trkpt>
      <trkpt lat="44.4471" lon="2.80569">
        <ele>560.8</ele>
        <time>2014-04-13T10:20:46Z</time>
      </trkpt>
      <trkpt lat="44.44715" lon="2.8056">
        <ele>558.7</ele>
        <time>2014-04-13T10:21:15Z</time>
      </trkpt>
      <trkpt lat="44.44716" lon="2.8055">
        <ele>558.6</ele>
        <time>2014-04-13T10:21:20Z</time>
      </trkpt>
      <trkpt lat="44.44721" lon="2.80539">
        <ele>557.9</ele>
        <time>2014-04-13T10:21:25Z</time>
      </trkpt>
      <trkpt lat="44.44724" lon="2.80529">
        <ele>557.8</ele>
        <time>2014-04-13T10:21:30Z</time>
      </trkpt>
      <trkpt lat="44.44724" lon="2.80527">
        <ele>557.7</ele>
        <time>2014-04-13T10:21:31Z</time>
      </trkpt>
      <trkpt lat="44.44731" lon="2.80509">
        <ele>557.4</ele>
        <time>2014-04-13T10:21:41Z</time>
      </trkpt>
      <trkpt lat="44.44733" lon="2.80499">
        <ele>556.6</ele>
        <time>2014-04-13T10:21:46Z</time>
      </trkpt>
      <trkpt lat="44.44736" lon="2.80487">
        <ele>556.2</ele>
        <time>2014-04-13T10:21:51Z</time>
      </trkpt>
      <trkpt lat="44.44739" lon="2.80477">
        <ele>555.8</ele>
        <time>2014-04-13T10:21:55Z</time>
      </trkpt>
      <trkpt lat="44.44741" lon="2.80466">
        <ele>556.8</ele>
        <time>2014-04-13T10:21:59Z</time>
      </trkpt>
      <trkpt lat="44.44743" lon="2.80454">
        <ele>555</ele>
        <time>2014-04-13T10:22:04Z</time>
      </trkpt>
      <trkpt lat="44.44745" lon="2.80443">
        <ele>554.5</ele>
        <time>2014-04-13T10:22:09Z</time>
      </trkpt>
      <trkpt lat="44.44747" lon="2.80431">
        <ele>554.1</ele>
        <time>2014-04-13T10:22:14Z</time>
      </trkpt>
      <trkpt lat="44.44748" lon="2.80419">
        <ele>553</ele>
        <time>2014-04-13T10:22:20Z</time>
      </trkpt>
      <trkpt lat="44.44751" lon="2.80408">
        <ele>552.9</ele>
        <time>2014-04-13T10:22:25Z</time>
      </trkpt>
      <trkpt lat="44.44754" lon="2.80397">
        <ele>552.1</ele>
        <time>2014-04-13T10:22:30Z</time>
      </trkpt>
      <trkpt lat="44.44755" lon="2.80385">
        <ele>551.4</ele>
        <time>2014-04-13T10:22:36Z</time>
      </trkpt>
      <trkpt lat="44.44755" lon="2.80383">
        <ele>551.3</ele>
        <time>2014-04-13T10:22:37Z</time>
      </trkpt>
      <trkpt lat="44.4476" lon="2.80364">
        <ele>549.9</ele>
        <time>2014-04-13T10:22:47Z</time>
      </trkpt>
      <trkpt lat="44.44763" lon="2.80353">
        <ele>549.3</ele>
        <time>2014-04-13T10:22:52Z</time>
      </trkpt>
      <trkpt lat="44.44766" lon="2.80342">
        <ele>548.9</ele>
        <time>2014-04-13T10:22:57Z</time>
      </trkpt>
      <trkpt lat="44.44767" lon="2.8033">
        <ele>549.1</ele>
        <time>2014-04-13T10:23:02Z</time>
      </trkpt>
      <trkpt lat="44.44769" lon="2.8032">
        <ele>549.3</ele>
        <time>2014-04-13T10:23:07Z</time>
      </trkpt>
      <trkpt lat="44.44772" lon="2.80308">
        <ele>549.4</ele>
        <time>2014-04-13T10:23:12Z</time>
      </trkpt>
      <trkpt lat="44.44775" lon="2.80297">
        <ele>550</ele>
        <time>2014-04-13T10:23:17Z</time>
      </trkpt>
      <trkpt lat="44.44778" lon="2.80286">
        <ele>549.1</ele>
        <time>2014-04-13T10:23:22Z</time>
      </trkpt>
      <trkpt lat="44.44781" lon="2.80274">
        <ele>549.3</ele>
        <time>2014-04-13T10:23:27Z</time>
      </trkpt>
      <trkpt lat="44.44783" lon="2.80265">
        <ele>548.7</ele>
        <time>2014-04-13T10:23:31Z</time>
      </trkpt>
      <trkpt lat="44.44786" lon="2.80255">
        <ele>548.6</ele>
        <time>2014-04-13T10:23:35Z</time>
      </trkpt>
      <trkpt lat="44.44789" lon="2.80244">
        <ele>548.2</ele>
        <time>2014-04-13T10:23:40Z</time>
      </trkpt>
      <trkpt lat="44.4479" lon="2.80242">
        <ele>548.2</ele>
        <time>2014-04-13T10:23:41Z</time>
      </trkpt>
      <trkpt lat="44.44797" lon="2.80223">
        <ele>548.8</ele>
        <time>2014-04-13T10:23:50Z</time>
      </trkpt>
      <trkpt lat="44.448" lon="2.80212">
        <ele>548.7</ele>
        <time>2014-04-13T10:23:55Z</time>
      </trkpt>
      <trkpt lat="44.44804" lon="2.80203">
        <ele>549.7</ele>
        <time>2014-04-13T10:23:59Z</time>
      </trkpt>
      <trkpt lat="44.44808" lon="2.80193">
        <ele>549.4</ele>
        <time>2014-04-13T10:24:04Z</time>
      </trkpt>
      <trkpt lat="44.44811" lon="2.80181">
        <ele>548.6</ele>
        <time>2014-04-13T10:24:10Z</time>
      </trkpt>
      <trkpt lat="44.44814" lon="2.80169">
        <ele>547.7</ele>
        <time>2014-04-13T10:24:16Z</time>
      </trkpt>
      <trkpt lat="44.44816" lon="2.80158">
        <ele>549.1</ele>
        <time>2014-04-13T10:24:23Z</time>
      </trkpt>
      <trkpt lat="44.44819" lon="2.80146">
        <ele>548.8</ele>
        <time>2014-04-13T10:24:29Z</time>
      </trkpt>
      <trkpt lat="44.44823" lon="2.80137">
        <ele>548.5</ele>
        <time>2014-04-13T10:24:33Z</time>
      </trkpt>
      <trkpt lat="44.44827" lon="2.80128">
        <ele>548.1</ele>
        <time>2014-04-13T10:24:37Z</time>
      </trkpt>
      <trkpt lat="44.44832" lon="2.8012">
        <ele>548.8</ele>
        <time>2014-04-13T10:24:41Z</time>
      </trkpt>
      <trkpt lat="44.44833" lon="2.80118">
        <ele>548.9</ele>
        <time>2014-04-13T10:24:42Z</time>
      </trkpt>
      <trkpt lat="44.44841" lon="2.80102">
        <ele>549.4</ele>
        <time>2014-04-13T10:24:49Z</time>
      </trkpt>
      <trkpt lat="44.44845" lon="2.80092">
        <ele>548.7</ele>
        <time>2014-04-13T10:24:53Z</time>
      </trkpt>
      <trkpt lat="44.44849" lon="2.80082">
        <ele>549.2</ele>
        <time>2014-04-13T10:24:57Z</time>
      </trkpt>
      <trkpt lat="44.44853" lon="2.80072">
        <ele>549.2</ele>
        <time>2014-04-13T10:25:02Z</time>
      </trkpt>
      <trkpt lat="44.44856" lon="2.8006">
        <ele>549</ele>
        <time>2014-04-13T10:25:07Z</time>
      </trkpt>
      <trkpt lat="44.4486" lon="2.80051">
        <ele>548.3</ele>
        <time>2014-04-13T10:25:12Z</time>
      </trkpt>
      <trkpt lat="44.44861" lon="2.8004">
        <ele>547.1</ele>
        <time>2014-04-13T10:25:16Z</time>
      </trkpt>
      <trkpt lat="44.44861" lon="2.80028">
        <ele>548.1</ele>
        <time>2014-04-13T10:25:21Z</time>
      </trkpt>
      <trkpt lat="44.44861" lon="2.80016">
        <ele>547.7</ele>
        <time>2014-04-13T10:25:26Z</time>
      </trkpt>
      <trkpt lat="44.4486" lon="2.80006">
        <ele>547.4</ele>
        <time>2014-04-13T10:25:31Z</time>
      </trkpt>
      <trkpt lat="44.44859" lon="2.79994">
        <ele>548.7</ele>
        <time>2014-04-13T10:25:37Z</time>
      </trkpt>
      <trkpt lat="44.44859" lon="2.79982">
        <ele>548.1</ele>
        <time>2014-04-13T10:25:43Z</time>
      </trkpt>
      <trkpt lat="44.44859" lon="2.7998">
        <ele>548</ele>
        <time>2014-04-13T10:25:44Z</time>
      </trkpt>
      <trkpt lat="44.44858" lon="2.79959">
        <ele>548.1</ele>
        <time>2014-04-13T10:25:55Z</time>
      </trkpt>
      <trkpt lat="44.44857" lon="2.79948">
        <ele>548.5</ele>
        <time>2014-04-13T10:26:01Z</time>
      </trkpt>
      <trkpt lat="44.44858" lon="2.79936">
        <ele>548.8</ele>
        <time>2014-04-13T10:26:07Z</time>
      </trkpt>
      <trkpt lat="44.4486" lon="2.79925">
        <ele>548.3</ele>
        <time>2014-04-13T10:26:13Z</time>
      </trkpt>
      <trkpt lat="44.44862" lon="2.79915">
        <ele>547.8</ele>
        <time>2014-04-13T10:26:18Z</time>
      </trkpt>
      <trkpt lat="44.44864" lon="2.79905">
        <ele>548</ele>
        <time>2014-04-13T10:26:23Z</time>
      </trkpt>
      <trkpt lat="44.44868" lon="2.79896">
        <ele>547.6</ele>
        <time>2014-04-13T10:26:28Z</time>
      </trkpt>
      <trkpt lat="44.44873" lon="2.79886">
        <ele>548.4</ele>
        <time>2014-04-13T10:26:33Z</time>
      </trkpt>
      <trkpt lat="44.44877" lon="2.79877">
        <ele>548.8</ele>
        <time>2014-04-13T10:26:38Z</time>
      </trkpt>
      <trkpt lat="44.4488" lon="2.79867">
        <ele>549.2</ele>
        <time>2014-04-13T10:26:43Z</time>
      </trkpt>
      <trkpt lat="44.44884" lon="2.79858">
        <ele>549.2</ele>
        <time>2014-04-13T10:26:48Z</time>
      </trkpt>
      <trkpt lat="44.44884" lon="2.79856">
        <ele>549.1</ele>
        <time>2014-04-13T10:26:49Z</time>
      </trkpt>
      <trkpt lat="44.44891" lon="2.79836">
        <ele>548.7</ele>
        <time>2014-04-13T10:26:58Z</time>
      </trkpt>
      <trkpt lat="44.44894" lon="2.79824">
        <ele>548.8</ele>
        <time>2014-04-13T10:27:03Z</time>
      </trkpt>
      <trkpt lat="44.44896" lon="2.79813">
        <ele>549.6</ele>
        <time>2014-04-13T10:27:08Z</time>
      </trkpt>
      <trkpt lat="44.449" lon="2.79803">
        <ele>549.2</ele>
        <time>2014-04-13T10:27:14Z</time>
      </trkpt>
      <trkpt lat="44.44904" lon="2.79792">
        <ele>549.4</ele>
        <time>2014-04-13T10:27:19Z</time>
      </trkpt>
      <trkpt lat="44.44908" lon="2.79783">
        <ele>549.5</ele>
        <time>2014-04-13T10:27:24Z</time>
      </trkpt>
      <trkpt lat="44.44912" lon="2.79773">
        <ele>550.2</ele>
        <time>2014-04-13T10:27:29Z</time>
      </trkpt>
      <trkpt lat="44.44915" lon="2.79763">
        <ele>550.2</ele>
        <time>2014-04-13T10:27:35Z</time>
      </trkpt>
      <trkpt lat="44.44918" lon="2.79751">
        <ele>550</ele>
        <time>2014-04-13T10:27:41Z</time>
      </trkpt>
      <trkpt lat="44.4492" lon="2.7974">
        <ele>551</ele>
        <time>2014-04-13T10:27:48Z</time>
      </trkpt>
      <trkpt lat="44.44924" lon="2.79729">
        <ele>550.8</ele>
        <time>2014-04-13T10:27:55Z</time>
      </trkpt>
      <trkpt lat="44.44924" lon="2.79727">
        <ele>550.9</ele>
        <time>2014-04-13T10:27:56Z</time>
      </trkpt>
      <trkpt lat="44.44931" lon="2.79708">
        <ele>552.4</ele>
        <time>2014-04-13T10:28:16Z</time>
      </trkpt>
      <trkpt lat="44.44934" lon="2.79696">
        <ele>552</ele>
        <time>2014-04-13T10:28:22Z</time>
      </trkpt>
      <trkpt lat="44.44935" lon="2.79685">
        <ele>552.7</ele>
        <time>2014-04-13T10:28:29Z</time>
      </trkpt>
      <trkpt lat="44.44939" lon="2.79674">
        <ele>552.7</ele>
        <time>2014-04-13T10:28:49Z</time>
      </trkpt>
      <trkpt lat="44.44941" lon="2.79664">
        <ele>553.1</ele>
        <time>2014-04-13T10:28:55Z</time>
      </trkpt>
      <trkpt lat="44.44946" lon="2.79655">
        <ele>554.3</ele>
        <time>2014-04-13T10:29:01Z</time>
      </trkpt>
      <trkpt lat="44.44947" lon="2.79653">
        <ele>554.3</ele>
        <time>2014-04-13T10:29:02Z</time>
      </trkpt>
      <trkpt lat="44.44957" lon="2.79638">
        <ele>555.3</ele>
        <time>2014-04-13T10:29:12Z</time>
      </trkpt>
      <trkpt lat="44.44963" lon="2.79629">
        <ele>555.9</ele>
        <time>2014-04-13T10:29:18Z</time>
      </trkpt>
      <trkpt lat="44.44968" lon="2.7962">
        <ele>555.8</ele>
        <time>2014-04-13T10:29:23Z</time>
      </trkpt>
      <trkpt lat="44.44974" lon="2.79611">
        <ele>556.8</ele>
        <time>2014-04-13T10:29:29Z</time>
      </trkpt>
      <trkpt lat="44.44979" lon="2.79602">
        <ele>556.6</ele>
        <time>2014-04-13T10:29:35Z</time>
      </trkpt>
      <trkpt lat="44.44984" lon="2.79593">
        <ele>556.7</ele>
        <time>2014-04-13T10:29:41Z</time>
      </trkpt>
      <trkpt lat="44.4499" lon="2.79584">
        <ele>557.1</ele>
        <time>2014-04-13T10:29:46Z</time>
      </trkpt>
      <trkpt lat="44.44996" lon="2.79576">
        <ele>558.5</ele>
        <time>2014-04-13T10:29:51Z</time>
      </trkpt>
      <trkpt lat="44.45001" lon="2.79567">
        <ele>559.2</ele>
        <time>2014-04-13T10:29:56Z</time>
      </trkpt>
      <trkpt lat="44.45006" lon="2.79558">
        <ele>559.2</ele>
        <time>2014-04-13T10:30:01Z</time>
      </trkpt>
      <trkpt lat="44.45011" lon="2.79551">
        <ele>559.9</ele>
        <time>2014-04-13T10:30:05Z</time>
      </trkpt>
      <trkpt lat="44.45012" lon="2.79549">
        <ele>560.1</ele>
        <time>2014-04-13T10:30:06Z</time>
      </trkpt>
      <trkpt lat="44.45021" lon="2.79533">
        <ele>560.4</ele>
        <time>2014-04-13T10:30:14Z</time>
      </trkpt>
      <trkpt lat="44.45026" lon="2.79525">
        <ele>560.8</ele>
        <time>2014-04-13T10:30:19Z</time>
      </trkpt>
      <trkpt lat="44.45031" lon="2.79516">
        <ele>561.9</ele>
        <time>2014-04-13T10:30:24Z</time>
      </trkpt>
      <trkpt lat="44.45036" lon="2.79506">
        <ele>561.9</ele>
        <time>2014-04-13T10:30:30Z</time>
      </trkpt>
      <trkpt lat="44.45041" lon="2.79496">
        <ele>562.8</ele>
        <time>2014-04-13T10:30:36Z</time>
      </trkpt>
      <trkpt lat="44.45046" lon="2.79487">
        <ele>563.5</ele>
        <time>2014-04-13T10:30:42Z</time>
      </trkpt>
      <trkpt lat="44.45052" lon="2.79479">
        <ele>563.8</ele>
        <time>2014-04-13T10:30:47Z</time>
      </trkpt>
      <trkpt lat="44.45058" lon="2.79471">
        <ele>563.7</ele>
        <time>2014-04-13T10:30:52Z</time>
      </trkpt>
      <trkpt lat="44.45063" lon="2.79461">
        <ele>563.6</ele>
        <time>2014-04-13T10:31:00Z</time>
      </trkpt>
      <trkpt lat="44.4507" lon="2.79453">
        <ele>565</ele>
        <time>2014-04-13T10:31:07Z</time>
      </trkpt>
      <trkpt lat="44.4507" lon="2.79452">
        <ele>565.1</ele>
        <time>2014-04-13T10:31:08Z</time>
      </trkpt>
      <trkpt lat="44.45083" lon="2.79441">
        <ele>565.8</ele>
        <time>2014-04-13T10:31:17Z</time>
      </trkpt>
      <trkpt lat="44.4509" lon="2.79436">
        <ele>566</ele>
        <time>2014-04-13T10:31:22Z</time>
      </trkpt>
      <trkpt lat="44.45098" lon="2.7943">
        <ele>567.1</ele>
        <time>2014-04-13T10:31:29Z</time>
      </trkpt>
      <trkpt lat="44.45106" lon="2.79424">
        <ele>567.6</ele>
        <time>2014-04-13T10:31:35Z</time>
      </trkpt>
      <trkpt lat="44.45113" lon="2.79419">
        <ele>567.7</ele>
        <time>2014-04-13T10:31:41Z</time>
      </trkpt>
      <trkpt lat="44.4512" lon="2.79412">
        <ele>568.9</ele>
        <time>2014-04-13T10:31:49Z</time>
      </trkpt>
      <trkpt lat="44.45128" lon="2.79407">
        <ele>569</ele>
        <time>2014-04-13T10:31:55Z</time>
      </trkpt>
      <trkpt lat="44.45135" lon="2.79403">
        <ele>568.5</ele>
        <time>2014-04-13T10:32:00Z</time>
      </trkpt>
      <trkpt lat="44.45144" lon="2.79401">
        <ele>568.8</ele>
        <time>2014-04-13T10:32:05Z</time>
      </trkpt>
      <trkpt lat="44.45151" lon="2.79398">
        <ele>570</ele>
        <time>2014-04-13T10:32:10Z</time>
      </trkpt>
      <trkpt lat="44.45153" lon="2.79397">
        <ele>570.2</ele>
        <time>2014-04-13T10:32:11Z</time>
      </trkpt>
      <trkpt lat="44.45166" lon="2.79389">
        <ele>570.1</ele>
        <time>2014-04-13T10:32:20Z</time>
      </trkpt>
      <trkpt lat="44.45172" lon="2.79382">
        <ele>571</ele>
        <time>2014-04-13T10:32:26Z</time>
      </trkpt>
      <trkpt lat="44.45179" lon="2.79376">
        <ele>572.4</ele>
        <time>2014-04-13T10:32:32Z</time>
      </trkpt>
      <trkpt lat="44.45187" lon="2.7937">
        <ele>573.3</ele>
        <time>2014-04-13T10:32:39Z</time>
      </trkpt>
      <trkpt lat="44.45194" lon="2.79365">
        <ele>573</ele>
        <time>2014-04-13T10:32:45Z</time>
      </trkpt>
      <trkpt lat="44.45202" lon="2.79362">
        <ele>573.7</ele>
        <time>2014-04-13T10:32:51Z</time>
      </trkpt>
      <trkpt lat="44.4521" lon="2.79357">
        <ele>574.2</ele>
        <time>2014-04-13T10:32:58Z</time>
      </trkpt>
      <trkpt lat="44.45217" lon="2.79351">
        <ele>573.4</ele>
        <time>2014-04-13T10:33:04Z</time>
      </trkpt>
      <trkpt lat="44.45225" lon="2.79347">
        <ele>574.2</ele>
        <time>2014-04-13T10:33:10Z</time>
      </trkpt>
      <trkpt lat="44.45234" lon="2.79344">
        <ele>575.3</ele>
        <time>2014-04-13T10:33:16Z</time>
      </trkpt>
      <trkpt lat="44.45235" lon="2.79343">
        <ele>575.5</ele>
        <time>2014-04-13T10:33:17Z</time>
      </trkpt>
      <trkpt lat="44.45249" lon="2.79335">
        <ele>576.7</ele>
        <time>2014-04-13T10:33:26Z</time>
      </trkpt>
      <trkpt lat="44.45257" lon="2.79331">
        <ele>576.6</ele>
        <time>2014-04-13T10:33:31Z</time>
      </trkpt>
      <trkpt lat="44.45265" lon="2.79327">
        <ele>577.6</ele>
        <time>2014-04-13T10:33:37Z</time>
      </trkpt>
      <trkpt lat="44.45272" lon="2.79323">
        <ele>578.1</ele>
        <time>2014-04-13T10:33:42Z</time>
      </trkpt>
      <trkpt lat="44.45279" lon="2.79318">
        <ele>578.6</ele>
        <time>2014-04-13T10:33:48Z</time>
      </trkpt>
      <trkpt lat="44.45286" lon="2.79312">
        <ele>578.1</ele>
        <time>2014-04-13T10:33:55Z</time>
      </trkpt>
      <trkpt lat="44.45293" lon="2.79307">
        <ele>578.6</ele>
        <time>2014-04-13T10:34:01Z</time>
      </trkpt>
      <trkpt lat="44.45302" lon="2.79305">
        <ele>579.1</ele>
        <time>2014-04-13T10:34:07Z</time>
      </trkpt>
      <trkpt lat="44.4531" lon="2.79308">
        <ele>579.2</ele>
        <time>2014-04-13T10:34:12Z</time>
      </trkpt>
      <trkpt lat="44.45315" lon="2.79316">
        <ele>578.7</ele>
        <time>2014-04-13T10:34:17Z</time>
      </trkpt>
      <trkpt lat="44.45316" lon="2.79318">
        <ele>578.9</ele>
        <time>2014-04-13T10:34:18Z</time>
      </trkpt>
      <trkpt lat="44.4532" lon="2.79338">
        <ele>579.2</ele>
        <time>2014-04-13T10:34:30Z</time>
      </trkpt>
      <trkpt lat="44.45322" lon="2.7935">
        <ele>578.5</ele>
        <time>2014-04-13T10:34:38Z</time>
      </trkpt>
      <trkpt lat="44.45323" lon="2.79361">
        <ele>578.3</ele>
        <time>2014-04-13T10:34:44Z</time>
      </trkpt>
      <trkpt lat="44.45325" lon="2.79371">
        <ele>578.8</ele>
        <time>2014-04-13T10:34:50Z</time>
      </trkpt>
      <trkpt lat="44.45329" lon="2.79381">
        <ele>577.6</ele>
        <time>2014-04-13T10:34:55Z</time>
      </trkpt>
      <trkpt lat="44.45335" lon="2.79387">
        <ele>577.8</ele>
        <time>2014-04-13T10:35:00Z</time>
      </trkpt>
      <trkpt lat="44.45342" lon="2.79394">
        <ele>578.6</ele>
        <time>2014-04-13T10:35:06Z</time>
      </trkpt>
      <trkpt lat="44.45349" lon="2.79402">
        <ele>578.2</ele>
        <time>2014-04-13T10:35:13Z</time>
      </trkpt>
      <trkpt lat="44.45356" lon="2.79408">
        <ele>578.5</ele>
        <time>2014-04-13T10:35:19Z</time>
      </trkpt>
      <trkpt lat="44.45357" lon="2.79409">
        <ele>578.3</ele>
        <time>2014-04-13T10:35:20Z</time>
      </trkpt>
      <trkpt lat="44.4537" lon="2.79419">
        <ele>579.1</ele>
        <time>2014-04-13T10:35:33Z</time>
      </trkpt>
      <trkpt lat="44.45377" lon="2.79423">
        <ele>578.7</ele>
        <time>2014-04-13T10:35:39Z</time>
      </trkpt>
      <trkpt lat="44.45385" lon="2.79426">
        <ele>580.1</ele>
        <time>2014-04-13T10:35:46Z</time>
      </trkpt>
      <trkpt lat="44.45393" lon="2.79427">
        <ele>579.9</ele>
        <time>2014-04-13T10:35:53Z</time>
      </trkpt>
      <trkpt lat="44.45401" lon="2.79428">
        <ele>580.1</ele>
        <time>2014-04-13T10:35:59Z</time>
      </trkpt>
      <trkpt lat="44.45408" lon="2.7943">
        <ele>580.3</ele>
        <time>2014-04-13T10:36:04Z</time>
      </trkpt>
      <trkpt lat="44.45415" lon="2.79431">
        <ele>581.7</ele>
        <time>2014-04-13T10:36:08Z</time>
      </trkpt>
      <trkpt lat="44.45423" lon="2.79432">
        <ele>582</ele>
        <time>2014-04-13T10:36:12Z</time>
      </trkpt>
      <trkpt lat="44.45431" lon="2.79434">
        <ele>581.9</ele>
        <time>2014-04-13T10:36:18Z</time>
      </trkpt>
      <trkpt lat="44.45438" lon="2.79434">
        <ele>582.2</ele>
        <time>2014-04-13T10:36:22Z</time>
      </trkpt>
      <trkpt lat="44.4544" lon="2.79435">
        <ele>582.5</ele>
        <time>2014-04-13T10:36:23Z</time>
      </trkpt>
      <trkpt lat="44.45455" lon="2.79437">
        <ele>583.8</ele>
        <time>2014-04-13T10:36:32Z</time>
      </trkpt>
      <trkpt lat="44.45463" lon="2.79438">
        <ele>584</ele>
        <time>2014-04-13T10:36:38Z</time>
      </trkpt>
      <trkpt lat="44.45466" lon="2.7945">
        <ele>583.9</ele>
        <time>2014-04-13T10:36:48Z</time>
      </trkpt>
      <trkpt lat="44.45463" lon="2.79461">
        <ele>582.3</ele>
        <time>2014-04-13T10:36:55Z</time>
      </trkpt>
      <trkpt lat="44.45457" lon="2.7947">
        <ele>580.6</ele>
        <time>2014-04-13T10:37:21Z</time>
      </trkpt>
      <trkpt lat="44.45449" lon="2.79475">
        <ele>581.6</ele>
        <time>2014-04-13T10:37:37Z</time>
      </trkpt>
      <trkpt lat="44.45449" lon="2.79475">
        <ele>581.4</ele>
        <time>2014-04-13T10:37:38Z</time>
      </trkpt>
      <trkpt lat="44.4544" lon="2.79474">
        <ele>581.7</ele>
        <time>2014-04-13T10:39:53Z</time>
      </trkpt>
      <trkpt lat="44.45449" lon="2.79478">
        <ele>581.1</ele>
        <time>2014-04-13T10:40:57Z</time>
      </trkpt>
      <trkpt lat="44.4544" lon="2.79475">
        <ele>581.9</ele>
        <time>2014-04-13T10:49:28Z</time>
      </trkpt>
      <trkpt lat="44.45449" lon="2.79477">
        <ele>582.8</ele>
        <time>2014-04-13T10:56:16Z</time>
      </trkpt>
      <trkpt lat="44.45461" lon="2.79491">
        <ele>584</ele>
        <time>2014-04-13T11:02:10Z</time>
      </trkpt>
      <trkpt lat="44.45461" lon="2.79491">
        <ele>583.9</ele>
        <time>2014-04-13T11:02:11Z</time>
      </trkpt>
      <trkpt lat="44.4547" lon="2.79486">
        <ele>583.5</ele>
        <time>2014-04-13T11:11:09Z</time>
      </trkpt>
      <trkpt lat="44.45486" lon="2.79479">
        <ele>583.3</ele>
        <time>2014-04-13T11:11:49Z</time>
      </trkpt>
      <trkpt lat="44.45479" lon="2.79475">
        <ele>583.4</ele>
        <time>2014-04-13T11:12:34Z</time>
      </trkpt>
      <trkpt lat="44.45477" lon="2.79475">
        <ele>583.5</ele>
        <time>2014-04-13T11:12:35Z</time>
      </trkpt>
      <trkpt lat="44.45461" lon="2.79476">
        <ele>584.2</ele>
        <time>2014-04-13T11:13:10Z</time>
      </trkpt>
      <trkpt lat="44.45459" lon="2.79488">
        <ele>584.1</ele>
        <time>2014-04-13T11:16:13Z</time>
      </trkpt>
      <trkpt lat="44.45459" lon="2.79488">
        <ele>584</ele>
        <time>2014-04-13T11:16:14Z</time>
      </trkpt>
      <trkpt lat="44.45453" lon="2.79477">
        <ele>583.2</ele>
        <time>2014-04-13T11:18:11Z</time>
      </trkpt>
      <trkpt lat="44.4546" lon="2.79469">
        <ele>583.5</ele>
        <time>2014-04-13T11:20:18Z</time>
      </trkpt>
      <trkpt lat="44.45467" lon="2.79451">
        <ele>585.1</ele>
        <time>2014-04-13T11:20:35Z</time>
      </trkpt>
      <trkpt lat="44.45474" lon="2.79445">
        <ele>585.2</ele>
        <time>2014-04-13T11:20:46Z</time>
      </trkpt>
      <trkpt lat="44.45483" lon="2.79446">
        <ele>586.4</ele>
        <time>2014-04-13T11:20:54Z</time>
      </trkpt>
      <trkpt lat="44.45492" lon="2.79443">
        <ele>585.5</ele>
        <time>2014-04-13T11:21:10Z</time>
      </trkpt>
      <trkpt lat="44.45501" lon="2.79441">
        <ele>586</ele>
        <time>2014-04-13T11:21:21Z</time>
      </trkpt>
      <trkpt lat="44.45501" lon="2.79441">
        <ele>586</ele>
        <time>2014-04-13T11:21:22Z</time>
      </trkpt>
      <trkpt lat="44.455" lon="2.79428">
        <ele>586.1</ele>
        <time>2014-04-13T11:23:57Z</time>
      </trkpt>
      <trkpt lat="44.45506" lon="2.79433">
        <ele>585.7</ele>
        <time>2014-04-13T11:24:38Z</time>
      </trkpt>
      <trkpt lat="44.4551" lon="2.79443">
        <ele>587.4</ele>
        <time>2014-04-13T11:25:21Z</time>
      </trkpt>
      <trkpt lat="44.4551" lon="2.79444">
        <ele>587.2</ele>
        <time>2014-04-13T11:25:22Z</time>
      </trkpt>
      <trkpt lat="44.45505" lon="2.79445">
        <ele>586.7</ele>
        <time>2014-04-13T11:26:27Z</time>
      </trkpt>
      <trkpt lat="44.45505" lon="2.79444">
        <ele>587</ele>
        <time>2014-04-13T11:26:28Z</time>
      </trkpt>
      <trkpt lat="44.45507" lon="2.79437">
        <ele>584.7</ele>
        <time>2014-04-13T11:29:09Z</time>
      </trkpt>
    </trkseg>
  </trk>
</gpx>